Wetterdaten: Montag, 22.08.2016
Datum Zeit Temp. A. Feuchte A. Luftdruck Regen Wind Richtung Richtung Sonnenschein ET UV Solar Taupunkt Windchill Windben Empfang
22.08.2016 00:00 14,6 C 87 % 1022,0 hPa 0,0 l/m 8,5 km/h (2 Bft) W-SW 256 0 min 0,000 mm 0,0 UV-I 0 W/m 12,5 C 13,4 C 14,5 km/h (3 Bft) 100,00 %
22.08.2016 00:02 14,6 C 87 % 1022,0 hPa 0,0 l/m 6,3 km/h (2 Bft) W-SW 257 0 min 0,000 mm 0,0 UV-I 0 W/m 12,5 C 14,6 C 9,7 km/h (2 Bft) 100,00 %
22.08.2016 00:04 14,7 C 86 % 1022,0 hPa 0,0 l/m 7,5 km/h (2 Bft) W-SW 246 0 min 0,000 mm 0,0 UV-I 0 W/m 12,4 C 14,1 C 12,9 km/h (3 Bft) 100,00 %
22.08.2016 00:06 14,7 C 86 % 1022,0 hPa 0,0 l/m 8,5 km/h (2 Bft) W 262 0 min 0,000 mm 0,0 UV-I 0 W/m 12,4 C 13,5 C 12,9 km/h (3 Bft) 97,44 %
22.08.2016 00:08 14,7 C 85 % 1022,0 hPa 0,0 l/m 7,3 km/h (2 Bft) W-SW 248 0 min 0,000 mm 0,0 UV-I 0 W/m 12,2 C 14,2 C 12,9 km/h (3 Bft) 100,00 %
22.08.2016 00:10 14,7 C 85 % 1022,0 hPa 0,0 l/m 6,1 km/h (2 Bft) W 262 0 min 0,000 mm 0,0 UV-I 0 W/m 12,2 C 14,7 C 9,7 km/h (2 Bft) 100,00 %
22.08.2016 00:12 14,7 C 85 % 1022,0 hPa 0,0 l/m 6,5 km/h (2 Bft) W 271 0 min 0,000 mm 0,0 UV-I 0 W/m 12,2 C 14,7 C 11,3 km/h (2 Bft) 100,00 %
22.08.2016 00:14 14,7 C 85 % 1022,0 hPa 0,0 l/m 5,4 km/h (1 Bft) W 262 0 min 0,000 mm 0,0 UV-I 0 W/m 12,2 C 14,7 C 6,4 km/h (2 Bft) 100,00 %
22.08.2016 00:16 14,7 C 85 % 1022,0 hPa 0,0 l/m 4,4 km/h (1 Bft) W-SW 246 0 min 0,000 mm 0,0 UV-I 0 W/m 12,2 C 14,7 C 6,4 km/h (2 Bft) 100,00 %
22.08.2016 00:18 14,7 C 86 % 1022,0 hPa 0,0 l/m 5,7 km/h (1 Bft) W-SW 251 0 min 0,000 mm 0,0 UV-I 0 W/m 12,4 C 14,7 C 8,0 km/h (2 Bft) 100,00 %
22.08.2016 00:20 14,7 C 85 % 1022,1 hPa 0,0 l/m 5,5 km/h (1 Bft) W-SW 256 0 min 0,000 mm 0,0 UV-I 0 W/m 12,2 C 14,7 C 8,0 km/h (2 Bft) 100,00 %
22.08.2016 00:22 14,6 C 86 % 1022,1 hPa 0,0 l/m 7,3 km/h (2 Bft) W-SW 250 0 min 0,000 mm 0,0 UV-I 0 W/m 12,3 C 14,1 C 11,3 km/h (2 Bft) 100,00 %
22.08.2016 00:24 14,6 C 86 % 1022,2 hPa 0,0 l/m 4,8 km/h (1 Bft) W 259 0 min 0,000 mm 0,0 UV-I 0 W/m 12,3 C 14,6 C 9,7 km/h (2 Bft) 100,00 %
22.08.2016 00:26 14,6 C 86 % 1022,2 hPa 0,0 l/m 3,6 km/h (1 Bft) W 262 0 min 0,000 mm 0,0 UV-I 0 W/m 12,3 C 14,6 C 6,4 km/h (2 Bft) 100,00 %
22.08.2016 00:28 14,6 C 86 % 1022,2 hPa 0,0 l/m 3,3 km/h (1 Bft) W-SW 250 0 min 0,000 mm 0,0 UV-I 0 W/m 12,3 C 14,6 C 8,0 km/h (2 Bft) 100,00 %
22.08.2016 00:30 14,6 C 86 % 1022,3 hPa 0,0 l/m 4,9 km/h (1 Bft) W 271 0 min 0,000 mm 0,0 UV-I 0 W/m 12,3 C 14,6 C 8,0 km/h (2 Bft) 100,00 %
22.08.2016 00:32 14,6 C 86 % 1022,4 hPa 0,0 l/m 5,6 km/h (1 Bft) W 271 0 min 0,000 mm 0,0 UV-I 0 W/m 12,3 C 14,6 C 11,3 km/h (2 Bft) 100,00 %
22.08.2016 00:34 14,6 C 86 % 1022,4 hPa 0,0 l/m 4,7 km/h (1 Bft) W 259 0 min 0,000 mm 0,0 UV-I 0 W/m 12,3 C 14,6 C 8,0 km/h (2 Bft) 100,00 %
22.08.2016 00:36 14,5 C 86 % 1022,5 hPa 0,0 l/m 3,6 km/h (1 Bft) W 261 0 min 0,000 mm 0,0 UV-I 0 W/m 12,2 C 14,5 C 6,4 km/h (2 Bft) 98,51 %
22.08.2016 00:38 14,5 C 86 % 1022,6 hPa 0,0 l/m 2,7 km/h (1 Bft) W 261 0 min 0,000 mm 0,0 UV-I 0 W/m 12,2 C 14,5 C 4,8 km/h (1 Bft) 100,00 %
22.08.2016 00:40 14,4 C 86 % 1022,6 hPa 0,0 l/m 2,2 km/h (1 Bft) W 262 0 min 0,000 mm 0,0 UV-I 0 W/m 12,1 C 14,4 C 4,8 km/h (1 Bft) 97,87 %
22.08.2016 00:42 14,4 C 87 % 1022,6 hPa 0,0 l/m 2,8 km/h (1 Bft) W 264 0 min 0,000 mm 0,0 UV-I 0 W/m 12,3 C 14,4 C 4,8 km/h (1 Bft) 97,44 %
22.08.2016 00:44 14,4 C 87 % 1022,7 hPa 0,0 l/m 2,6 km/h (1 Bft) W 264 0 min 0,000 mm 0,0 UV-I 0 W/m 12,3 C 14,4 C 4,8 km/h (1 Bft) 100,00 %
22.08.2016 00:46 14,3 C 87 % 1022,7 hPa 0,0 l/m 3,8 km/h (1 Bft) W 273 0 min 0,000 mm 0,0 UV-I 0 W/m 12,2 C 14,3 C 4,8 km/h (1 Bft) 100,00 %
22.08.2016 00:48 14,3 C 87 % 1022,7 hPa 0,0 l/m 3,8 km/h (1 Bft) W 279 0 min 0,000 mm 0,0 UV-I 0 W/m 12,2 C 14,3 C 4,8 km/h (1 Bft) 97,56 %
22.08.2016 00:50 14,2 C 87 % 1022,8 hPa 0,0 l/m 3,6 km/h (1 Bft) W 279 0 min 0,000 mm 0,0 UV-I 0 W/m 12,1 C 14,2 C 4,8 km/h (1 Bft) 100,00 %
22.08.2016 00:52 14,2 C 87 % 1022,8 hPa 0,0 l/m 4,1 km/h (1 Bft) W 265 0 min 0,000 mm 0,0 UV-I 0 W/m 12,1 C 14,2 C 6,4 km/h (2 Bft) 100,00 %
22.08.2016 00:54 14,2 C 87 % 1022,8 hPa 0,0 l/m 4,1 km/h (1 Bft) W 265 0 min 0,000 mm 0,0 UV-I 0 W/m 12,1 C 14,2 C 6,4 km/h (2 Bft) 97,87 %
22.08.2016 00:56 14,2 C 87 % 1022,7 hPa 0,0 l/m 2,1 km/h (1 Bft) W 265 0 min 0,000 mm 0,0 UV-I 0 W/m 12,1 C 14,2 C 3,2 km/h (1 Bft) 100,00 %
22.08.2016 00:58 14,2 C 87 % 1022,7 hPa 0,0 l/m 2,3 km/h (1 Bft) W 273 0 min 0,000 mm 0,0 UV-I 0 W/m 12,1 C 14,2 C 4,8 km/h (1 Bft) 98,11 %
22.08.2016 01:00 14,2 C 87 % 1022,7 hPa 0,0 l/m 1,1 km/h (1 Bft) W 273 0 min 0,000 mm 0,0 UV-I 0 W/m 12,1 C 14,2 C 3,2 km/h (1 Bft) 100,00 %
22.08.2016 01:01 14,2 C 87 % 1022,7 hPa 0,0 l/m 2,3 km/h (1 Bft) W 273 0 min 0,000 mm 0,0 UV-I 0 W/m 12,1 C 14,2 C 3,2 km/h (1 Bft) 100,00 %
22.08.2016 01:04 14,2 C 87 % 1022,8 hPa 0,0 l/m 1,9 km/h (1 Bft) W 273 0 min 0,000 mm 0,0 UV-I 0 W/m 12,1 C 14,2 C 3,2 km/h (1 Bft) 100,00 %
22.08.2016 01:06 14,2 C 87 % 1022,8 hPa 0,0 l/m 2,2 km/h (1 Bft) W 273 0 min 0,000 mm 0,0 UV-I 0 W/m 12,1 C 14,2 C 4,8 km/h (1 Bft) 100,00 %
22.08.2016 01:08 14,2 C 87 % 1022,7 hPa 0,0 l/m 1,9 km/h (1 Bft) W 273 0 min 0,000 mm 0,0 UV-I 0 W/m 12,1 C 14,2 C 3,2 km/h (1 Bft) 97,87 %
22.08.2016 01:10 14,1 C 88 % 1022,7 hPa 0,0 l/m 2,2 km/h (1 Bft) W 273 0 min 0,000 mm 0,0 UV-I 0 W/m 12,1 C 14,1 C 4,8 km/h (1 Bft) 96,00 %
22.08.2016 01:12 14,1 C 88 % 1022,6 hPa 0,0 l/m 3,7 km/h (1 Bft) W 273 0 min 0,000 mm 0,0 UV-I 0 W/m 12,1 C 14,1 C 4,8 km/h (1 Bft) 95,74 %
22.08.2016 01:14 14,0 C 88 % 1022,6 hPa 0,0 l/m 4,1 km/h (1 Bft) W 268 0 min 0,000 mm 0,0 UV-I 0 W/m 12,0 C 14,0 C 4,8 km/h (1 Bft) 93,62 %
22.08.2016 01:16 14,0 C 88 % 1022,6 hPa 0,0 l/m 3,9 km/h (1 Bft) W 280 0 min 0,000 mm 0,0 UV-I 0 W/m 12,0 C 14,0 C 6,4 km/h (2 Bft) 96,00 %
22.08.2016 01:18 14,0 C 88 % 1022,6 hPa 0,0 l/m 3,0 km/h (1 Bft) W 275 0 min 0,000 mm 0,0 UV-I 0 W/m 12,0 C 14,0 C 4,8 km/h (1 Bft) 98,00 %
22.08.2016 01:20 14,1 C 88 % 1022,5 hPa 0,0 l/m 2,8 km/h (1 Bft) W 279 0 min 0,000 mm 0,0 UV-I 0 W/m 12,1 C 14,1 C 4,8 km/h (1 Bft) 97,14 %
22.08.2016 01:22 14,1 C 88 % 1022,6 hPa 0,0 l/m 4,2 km/h (1 Bft) W 263 0 min 0,000 mm 0,0 UV-I 0 W/m 12,1 C 14,1 C 6,4 km/h (2 Bft) 96,00 %
22.08.2016 01:24 14,1 C 88 % 1022,6 hPa 0,0 l/m 4,1 km/h (1 Bft) W 269 0 min 0,000 mm 0,0 UV-I 0 W/m 12,1 C 14,1 C 6,4 km/h (2 Bft) 93,75 %
22.08.2016 01:26 14,1 C 87 % 1022,6 hPa 0,0 l/m 4,7 km/h (1 Bft) W 262 0 min 0,000 mm 0,0 UV-I 0 W/m 12,0 C 14,1 C 9,7 km/h (2 Bft) 97,87 %
22.08.2016 01:28 14,1 C 88 % 1022,7 hPa 0,0 l/m 4,0 km/h (1 Bft) W-SW 254 0 min 0,000 mm 0,0 UV-I 0 W/m 12,1 C 14,1 C 6,4 km/h (2 Bft) 96,15 %
22.08.2016 01:30 14,1 C 87 % 1022,7 hPa 0,0 l/m 3,9 km/h (1 Bft) W-SW 254 0 min 0,000 mm 0,0 UV-I 0 W/m 12,0 C 14,1 C 6,4 km/h (2 Bft) 97,44 %
22.08.2016 01:32 14,1 C 88 % 1022,7 hPa 0,0 l/m 3,9 km/h (1 Bft) W-SW 254 0 min 0,000 mm 0,0 UV-I 0 W/m 12,1 C 14,1 C 6,4 km/h (2 Bft) 98,11 %
22.08.2016 01:34 14,1 C 88 % 1022,6 hPa 0,0 l/m 3,8 km/h (1 Bft) W-SW 254 0 min 0,000 mm 0,0 UV-I 0 W/m 12,1 C 14,1 C 6,4 km/h (2 Bft) 95,74 %
22.08.2016 01:36 14,0 C 89 % 1022,6 hPa 0,0 l/m 3,4 km/h (1 Bft) W-SW 254 0 min 0,000 mm 0,0 UV-I 0 W/m 12,2 C 14,0 C 6,4 km/h (2 Bft) 97,87 %
22.08.2016 01:38 14,0 C 89 % 1022,6 hPa 0,0 l/m 4,6 km/h (1 Bft) W-SW 254 0 min 0,000 mm 0,0 UV-I 0 W/m 12,2 C 14,0 C 6,4 km/h (2 Bft) 98,00 %
22.08.2016 01:40 14,0 C 89 % 1022,6 hPa 0,0 l/m 4,8 km/h (1 Bft) W-SW 250 0 min 0,000 mm 0,0 UV-I 0 W/m 12,2 C 14,0 C 8,0 km/h (2 Bft) 97,87 %
22.08.2016 01:42 14,0 C 89 % 1022,6 hPa 0,0 l/m 5,5 km/h (1 Bft) W-SW 242 0 min 0,000 mm 0,0 UV-I 0 W/m 12,2 C 14,0 C 9,7 km/h (2 Bft) 95,74 %
22.08.2016 01:44 14,0 C 88 % 1022,6 hPa 0,0 l/m 5,8 km/h (2 Bft) W-SW 257 0 min 0,000 mm 0,0 UV-I 0 W/m 12,0 C 14,0 C 8,0 km/h (2 Bft) 100,00 %
22.08.2016 01:46 14,1 C 88 % 1022,6 hPa 0,0 l/m 6,8 km/h (2 Bft) W-SW 246 0 min 0,000 mm 0,0 UV-I 0 W/m 12,1 C 13,9 C 11,3 km/h (2 Bft) 100,00 %
22.08.2016 01:48 14,1 C 88 % 1022,7 hPa 0,0 l/m 5,6 km/h (1 Bft) W-SW 248 0 min 0,000 mm 0,0 UV-I 0 W/m 12,1 C 14,1 C 9,7 km/h (2 Bft) 100,00 %
22.08.2016 01:50 14,1 C 88 % 1022,7 hPa 0,0 l/m 5,1 km/h (1 Bft) W-SW 242 0 min 0,000 mm 0,0 UV-I 0 W/m 12,1 C 14,1 C 6,4 km/h (2 Bft) 97,14 %
22.08.2016 01:52 14,2 C 87 % 1022,7 hPa 0,0 l/m 6,5 km/h (2 Bft) SW 236 0 min 0,000 mm 0,0 UV-I 0 W/m 12,1 C 14,2 C 11,3 km/h (2 Bft) 97,87 %
22.08.2016 01:54 14,2 C 87 % 1022,7 hPa 0,0 l/m 6,6 km/h (2 Bft) SW 236 0 min 0,000 mm 0,0 UV-I 0 W/m 12,1 C 14,1 C 8,0 km/h (2 Bft) 100,00 %
22.08.2016 01:56 14,2 C 87 % 1022,7 hPa 0,0 l/m 8,5 km/h (2 Bft) SW 226 0 min 0,000 mm 0,0 UV-I 0 W/m 12,1 C 13,0 C 11,3 km/h (2 Bft) 100,00 %
22.08.2016 01:58 14,2 C 86 % 1022,7 hPa 0,0 l/m 6,9 km/h (2 Bft) W 259 0 min 0,000 mm 0,0 UV-I 0 W/m 11,9 C 13,9 C 9,7 km/h (2 Bft) 97,56 %
22.08.2016 02:00 14,2 C 86 % 1022,7 hPa 0,0 l/m 8,2 km/h (2 Bft) SW 225 0 min 0,000 mm 0,0 UV-I 0 W/m 11,9 C 13,2 C 12,9 km/h (3 Bft) 100,00 %
22.08.2016 02:02 14,3 C 85 % 1022,8 hPa 0,0 l/m 7,1 km/h (2 Bft) SW 217 0 min 0,000 mm 0,0 UV-I 0 W/m 11,8 C 13,9 C 11,3 km/h (2 Bft) 100,00 %
22.08.2016 02:04 14,3 C 85 % 1022,7 hPa 0,0 l/m 6,9 km/h (2 Bft) W-SW 248 0 min 0,000 mm 0,0 UV-I 0 W/m 11,8 C 14,0 C 11,3 km/h (2 Bft) 98,00 %
22.08.2016 02:06 14,3 C 85 % 1022,7 hPa 0,0 l/m 8,9 km/h (2 Bft) SW 227 0 min 0,000 mm 0,0 UV-I 0 W/m 11,8 C 12,9 C 12,9 km/h (3 Bft) 100,00 %
22.08.2016 02:08 14,3 C 85 % 1022,7 hPa 0,0 l/m 9,9 km/h (2 Bft) SW 215 0 min 0,000 mm 0,0 UV-I 0 W/m 11,8 C 12,4 C 14,5 km/h (3 Bft) 100,00 %
22.08.2016 02:10 14,3 C 85 % 1022,7 hPa 0,0 l/m 8,6 km/h (2 Bft) W 261 0 min 0,000 mm 0,0 UV-I 0 W/m 11,8 C 13,0 C 16,1 km/h (3 Bft) 100,00 %
22.08.2016 02:12 14,2 C 84 % 1022,8 hPa 0,0 l/m 9,1 km/h (2 Bft) W-SW 252 0 min 0,000 mm 0,0 UV-I 0 W/m 11,5 C 12,7 C 16,1 km/h (3 Bft) 96,23 %
22.08.2016 02:14 14,2 C 84 % 1022,7 hPa 0,0 l/m 12,1 km/h (2 Bft) SW 222 0 min 0,000 mm 0,0 UV-I 0 W/m 11,5 C 11,3 C 20,9 km/h (4 Bft) 100,00 %
22.08.2016 02:16 14,2 C 84 % 1022,8 hPa 0,0 l/m 9,6 km/h (2 Bft) SW 216 0 min 0,000 mm 0,0 UV-I 0 W/m 11,5 C 12,4 C 17,7 km/h (3 Bft) 100,00 %
22.08.2016 02:18 14,2 C 84 % 1022,8 hPa 0,0 l/m 12,7 km/h (3 Bft) W-SW 243 0 min 0,000 mm 0,0 UV-I 0 W/m 11,5 C 11,1 C 17,7 km/h (3 Bft) 95,12 %
22.08.2016 02:20 14,2 C 85 % 1022,7 hPa 0,0 l/m 13,9 km/h (3 Bft) SW 232 0 min 0,000 mm 0,0 UV-I 0 W/m 11,7 C 10,6 C 19,3 km/h (3 Bft) 100,00 %
22.08.2016 02:22 14,1 C 85 % 1022,8 hPa 0,0 l/m 13,8 km/h (3 Bft) S-SW 209 0 min 0,000 mm 0,0 UV-I 0 W/m 11,6 C 10,5 C 19,3 km/h (3 Bft) 100,00 %
22.08.2016 02:24 14,1 C 85 % 1022,9 hPa 0,0 l/m 13,8 km/h (3 Bft) S-SW 211 0 min 0,000 mm 0,0 UV-I 0 W/m 11,6 C 10,5 C 19,3 km/h (3 Bft) 100,00 %
22.08.2016 02:26 14,0 C 85 % 1022,8 hPa 0,0 l/m 13,5 km/h (3 Bft) W-SW 244 0 min 0,000 mm 0,0 UV-I 0 W/m 11,5 C 10,5 C 19,3 km/h (3 Bft) 100,00 %
22.08.2016 02:28 13,9 C 85 % 1022,9 hPa 0,0 l/m 12,6 km/h (3 Bft) SW 224 0 min 0,000 mm 0,0 UV-I 0 W/m 11,4 C 10,8 C 17,7 km/h (3 Bft) 100,00 %
22.08.2016 02:30 13,9 C 85 % 1022,9 hPa 0,0 l/m 11,8 km/h (2 Bft) W-SW 239 0 min 0,000 mm 0,0 UV-I 0 W/m 11,4 C 11,1 C 17,7 km/h (3 Bft) 100,00 %
22.08.2016 02:32 13,8 C 85 % 1023,0 hPa 0,0 l/m 9,7 km/h (2 Bft) SW 223 0 min 0,000 mm 0,0 UV-I 0 W/m 11,3 C 11,9 C 12,9 km/h (3 Bft) 100,00 %
22.08.2016 02:34 13,8 C 86 % 1023,0 hPa 0,0 l/m 11,6 km/h (2 Bft) SW 227 0 min 0,000 mm 0,0 UV-I 0 W/m 11,5 C 11,1 C 19,3 km/h (3 Bft) 100,00 %
22.08.2016 02:36 13,8 C 86 % 1023,0 hPa 0,0 l/m 10,2 km/h (2 Bft) SW 229 0 min 0,000 mm 0,0 UV-I 0 W/m 11,5 C 11,7 C 14,5 km/h (3 Bft) 100,00 %
22.08.2016 02:38 13,7 C 86 % 1023,0 hPa 0,0 l/m 10,6 km/h (2 Bft) SW 226 0 min 0,000 mm 0,0 UV-I 0 W/m 11,4 C 11,4 C 14,5 km/h (3 Bft) 100,00 %
22.08.2016 02:40 13,6 C 86 % 1023,0 hPa 0,0 l/m 10,1 km/h (2 Bft) SW 235 0 min 0,000 mm 0,0 UV-I 0 W/m 11,3 C 11,5 C 16,1 km/h (3 Bft) 100,00 %
22.08.2016 02:42 13,6 C 86 % 1023,1 hPa 0,0 l/m 11,9 km/h (2 Bft) SW 227 0 min 0,000 mm 0,0 UV-I 0 W/m 11,3 C 10,7 C 16,1 km/h (3 Bft) 100,00 %
22.08.2016 02:44 13,6 C 86 % 1023,1 hPa 0,0 l/m 12,8 km/h (3 Bft) SW 223 0 min 0,000 mm 0,0 UV-I 0 W/m 11,3 C 10,3 C 17,7 km/h (3 Bft) 100,00 %
22.08.2016 02:46 13,6 C 86 % 1023,1 hPa 0,0 l/m 10,3 km/h (2 Bft) W-SW 240 0 min 0,000 mm 0,0 UV-I 0 W/m 11,3 C 11,4 C 16,1 km/h (3 Bft) 100,00 %
22.08.2016 02:48 13,5 C 87 % 1023,1 hPa 0,0 l/m 10,1 km/h (2 Bft) S-SW 210 0 min 0,000 mm 0,0 UV-I 0 W/m 11,4 C 11,4 C 19,3 km/h (3 Bft) 98,00 %
22.08.2016 02:50 13,4 C 87 % 1023,2 hPa 0,0 l/m 10,7 km/h (2 Bft) S-SW 211 0 min 0,000 mm 0,0 UV-I 0 W/m 11,3 C 11,0 C 14,5 km/h (3 Bft) 100,00 %
22.08.2016 02:52 13,4 C 87 % 1023,2 hPa 0,0 l/m 14,3 km/h (3 Bft) SW 228 0 min 0,000 mm 0,0 UV-I 0 W/m 11,3 C 9,5 C 20,9 km/h (4 Bft) 100,00 %
22.08.2016 02:54 13,4 C 87 % 1023,2 hPa 0,0 l/m 11,0 km/h (2 Bft) SW 224 0 min 0,000 mm 0,0 UV-I 0 W/m 11,3 C 10,9 C 17,7 km/h (3 Bft) 100,00 %
22.08.2016 02:56 13,4 C 87 % 1023,2 hPa 0,0 l/m 8,6 km/h (2 Bft) W 262 0 min 0,000 mm 0,0 UV-I 0 W/m 11,3 C 12,1 C 12,9 km/h (3 Bft) 100,00 %
22.08.2016 02:58 13,3 C 87 % 1023,3 hPa 0,0 l/m 12,5 km/h (3 Bft) W-SW 246 0 min 0,000 mm 0,0 UV-I 0 W/m 11,2 C 10,1 C 20,9 km/h (4 Bft) 100,00 %
22.08.2016 03:00 13,3 C 87 % 1023,2 hPa 0,0 l/m 12,4 km/h (3 Bft) W-SW 253 0 min 0,025 mm 0,0 UV-I 0 W/m 11,2 C 10,1 C 19,3 km/h (3 Bft) 97,56 %
22.08.2016 03:02 13,3 C 87 % 1023,3 hPa 0,0 l/m 9,5 km/h (2 Bft) W-SW 242 0 min 0,000 mm 0,0 UV-I 0 W/m 11,2 C 11,5 C 14,5 km/h (3 Bft) 100,00 %
22.08.2016 03:04 13,3 C 87 % 1023,3 hPa 0,0 l/m 12,0 km/h (2 Bft) S-SW 211 0 min 0,000 mm 0,0 UV-I 0 W/m 11,2 C 10,3 C 16,1 km/h (3 Bft) 100,00 %
22.08.2016 03:06 13,3 C 87 % 1023,4 hPa 0,0 l/m 11,0 km/h (2 Bft) W-SW 251 0 min 0,000 mm 0,0 UV-I 0 W/m 11,2 C 10,8 C 17,7 km/h (3 Bft) 97,87 %
22.08.2016 03:08 13,3 C 87 % 1023,4 hPa 0,0 l/m 10,9 km/h (2 Bft) SW 221 0 min 0,000 mm 0,0 UV-I 0 W/m 11,2 C 10,8 C 17,7 km/h (3 Bft) 97,73 %
22.08.2016 03:10 13,3 C 87 % 1023,5 hPa 0,0 l/m 9,3 km/h (2 Bft) W-SW 240 0 min 0,000 mm 0,0 UV-I 0 W/m 11,2 C 11,6 C 17,7 km/h (3 Bft) 98,21 %
22.08.2016 03:12 13,3 C 87 % 1023,5 hPa 0,0 l/m 10,6 km/h (2 Bft) W-SW 254 0 min 0,000 mm 0,0 UV-I 0 W/m 11,2 C 10,9 C 16,1 km/h (3 Bft) 97,56 %
22.08.2016 03:14 13,3 C 87 % 1023,5 hPa 0,0 l/m 9,3 km/h (2 Bft) W-SW 248 0 min 0,000 mm 0,0 UV-I 0 W/m 11,2 C 11,6 C 19,3 km/h (3 Bft) 96,00 %
22.08.2016 03:16 13,3 C 87 % 1023,5 hPa 0,0 l/m 8,0 km/h (2 Bft) W-SW 250 0 min 0,000 mm 0,0 UV-I 0 W/m 11,2 C 12,3 C 12,9 km/h (3 Bft) 98,00 %
22.08.2016 03:18 13,3 C 87 % 1023,5 hPa 0,0 l/m 7,3 km/h (2 Bft) W-SW 246 0 min 0,000 mm 0,0 UV-I 0 W/m 11,2 C 12,7 C 14,5 km/h (3 Bft) 98,00 %
22.08.2016 03:20 13,2 C 87 % 1023,6 hPa 0,0 l/m 10,3 km/h (2 Bft) W-SW 242 0 min 0,000 mm 0,0 UV-I 0 W/m 11,1 C 11,0 C 14,5 km/h (3 Bft) 97,22 %
22.08.2016 03:22 13,2 C 87 % 1023,6 hPa 0,0 l/m 7,2 km/h (2 Bft) W-SW 248 0 min 0,000 mm 0,0 UV-I 0 W/m 11,1 C 12,7 C 11,3 km/h (2 Bft) 98,28 %
22.08.2016 03:24 13,2 C 87 % 1023,6 hPa 0,0 l/m 7,2 km/h (2 Bft) S 174 0 min 0,000 mm 0,0 UV-I 0 W/m 11,1 C 12,7 C 12,9 km/h (3 Bft) 97,44 %
22.08.2016 03:26 13,2 C 88 % 1023,6 hPa 0,0 l/m 8,7 km/h (2 Bft) W 261 0 min 0,000 mm 0,0 UV-I 0 W/m 11,3 C 11,8 C 14,5 km/h (3 Bft) 97,56 %
22.08.2016 03:28 13,2 C 88 % 1023,6 hPa 0,0 l/m 8,9 km/h (2 Bft) W-SW 243 0 min 0,000 mm 0,0 UV-I 0 W/m 11,3 C 11,7 C 12,9 km/h (3 Bft) 98,18 %
22.08.2016 03:30 13,2 C 88 % 1023,6 hPa 0,0 l/m 7,2 km/h (2 Bft) W-SW 255 0 min 0,000 mm 0,0 UV-I 0 W/m 11,3 C 12,7 C 12,9 km/h (3 Bft) 96,23 %
22.08.2016 03:32 13,2 C 88 % 1023,8 hPa 0,0 l/m 7,1 km/h (2 Bft) S-SW 212 0 min 0,000 mm 0,0 UV-I 0 W/m 11,3 C 12,8 C 9,7 km/h (2 Bft) 97,87 %
22.08.2016 03:34 13,3 C 88 % 1023,7 hPa 0,0 l/m 9,2 km/h (2 Bft) S-SW 204 0 min 0,000 mm 0,0 UV-I 0 W/m 11,4 C 11,7 C 14,5 km/h (3 Bft) 97,14 %
22.08.2016 03:36 13,3 C 87 % 1023,7 hPa 0,0 l/m 7,1 km/h (2 Bft) W-SW 249 0 min 0,000 mm 0,0 UV-I 0 W/m 11,2 C 12,9 C 12,9 km/h (3 Bft) 97,73 %
22.08.2016 03:38 13,3 C 88 % 1023,7 hPa 0,0 l/m 7,8 km/h (2 Bft) S-SW 213 0 min 0,000 mm 0,0 UV-I 0 W/m 11,4 C 12,4 C 11,3 km/h (2 Bft) 98,11 %
22.08.2016 03:40 13,3 C 88 % 1023,7 hPa 0,0 l/m 9,2 km/h (2 Bft) SW 229 0 min 0,000 mm 0,0 UV-I 0 W/m 11,4 C 11,7 C 17,7 km/h (3 Bft) 98,11 %
22.08.2016 03:42 13,3 C 87 % 1023,8 hPa 0,0 l/m 9,1 km/h (2 Bft) S-SW 209 0 min 0,000 mm 0,0 UV-I 0 W/m 11,2 C 11,7 C 17,7 km/h (3 Bft) 100,00 %
22.08.2016 03:44 13,3 C 87 % 1023,7 hPa 0,0 l/m 9,2 km/h (2 Bft) W-SW 251 0 min 0,000 mm 0,0 UV-I 0 W/m 11,2 C 11,7 C 14,5 km/h (3 Bft) 100,00 %
22.08.2016 03:46 13,3 C 87 % 1023,7 hPa 0,0 l/m 8,7 km/h (2 Bft) SW 232 0 min 0,000 mm 0,0 UV-I 0 W/m 11,2 C 11,9 C 12,9 km/h (3 Bft) 100,00 %
22.08.2016 03:48 13,3 C 88 % 1023,7 hPa 0,0 l/m 8,3 km/h (2 Bft) SW 223 0 min 0,000 mm 0,0 UV-I 0 W/m 11,4 C 12,1 C 11,3 km/h (2 Bft) 98,11 %
22.08.2016 03:50 13,3 C 88 % 1023,7 hPa 0,0 l/m 11,4 km/h (2 Bft) W-SW 257 0 min 0,000 mm 0,0 UV-I 0 W/m 11,4 C 10,6 C 16,1 km/h (3 Bft) 100,00 %
22.08.2016 03:52 13,3 C 88 % 1023,7 hPa 0,0 l/m 10,7 km/h (2 Bft) SW 218 0 min 0,000 mm 0,0 UV-I 0 W/m 11,4 C 10,9 C 14,5 km/h (3 Bft) 100,00 %
22.08.2016 03:54 13,2 C 87 % 1023,7 hPa 0,0 l/m 10,0 km/h (2 Bft) W-SW 238 0 min 0,000 mm 0,0 UV-I 0 W/m 11,1 C 11,1 C 12,9 km/h (3 Bft) 100,00 %
22.08.2016 03:56 13,2 C 87 % 1023,7 hPa 0,0 l/m 11,0 km/h (2 Bft) SW 233 0 min 0,000 mm 0,0 UV-I 0 W/m 11,1 C 10,6 C 14,5 km/h (3 Bft) 100,00 %
22.08.2016 03:58 13,2 C 88 % 1023,7 hPa 0,0 l/m 8,7 km/h (2 Bft) W 270 0 min 0,000 mm 0,0 UV-I 0 W/m 11,3 C 11,8 C 12,9 km/h (3 Bft) 100,00 %
22.08.2016 04:00 13,2 C 88 % 1023,7 hPa 0,0 l/m 9,8 km/h (2 Bft) W-SW 243 0 min 0,026 mm 0,0 UV-I 0 W/m 11,3 C 11,2 C 14,5 km/h (3 Bft) 100,00 %
22.08.2016 04:02 13,2 C 88 % 1023,7 hPa 0,0 l/m 10,6 km/h (2 Bft) W-SW 250 0 min 0,000 mm 0,0 UV-I 0 W/m 11,3 C 10,8 C 16,1 km/h (3 Bft) 100,00 %
22.08.2016 04:04 13,2 C 88 % 1023,8 hPa 0,0 l/m 9,4 km/h (2 Bft) S-SW 212 0 min 0,000 mm 0,0 UV-I 0 W/m 11,3 C 11,4 C 12,9 km/h (3 Bft) 100,00 %
22.08.2016 04:06 13,1 C 88 % 1023,7 hPa 0,0 l/m 9,7 km/h (2 Bft) W-SW 238 0 min 0,000 mm 0,0 UV-I 0 W/m 11,2 C 11,2 C 14,5 km/h (3 Bft) 97,87 %
22.08.2016 04:08 13,1 C 88 % 1023,7 hPa 0,0 l/m 7,0 km/h (2 Bft) W 263 0 min 0,000 mm 0,0 UV-I 0 W/m 11,2 C 12,7 C 11,3 km/h (2 Bft) 100,00 %
22.08.2016 04:10 13,1 C 88 % 1023,8 hPa 0,0 l/m 8,2 km/h (2 Bft) SW 216 0 min 0,000 mm 0,0 UV-I 0 W/m 11,2 C 12,0 C 14,5 km/h (3 Bft) 100,00 %
22.08.2016 04:12 13,1 C 88 % 1023,8 hPa 0,0 l/m 9,1 km/h (2 Bft) SW 230 0 min 0,000 mm 0,0 UV-I 0 W/m 11,2 C 11,5 C 12,9 km/h (3 Bft) 96,23 %
22.08.2016 04:14 13,1 C 88 % 1023,8 hPa 0,0 l/m 8,1 km/h (2 Bft) SW 232 0 min 0,000 mm 0,0 UV-I 0 W/m 11,2 C 12,0 C 12,9 km/h (3 Bft) 100,00 %
22.08.2016 04:16 13,1 C 88 % 1023,8 hPa 0,0 l/m 10,1 km/h (2 Bft) SW 226 0 min 0,000 mm 0,0 UV-I 0 W/m 11,2 C 11,0 C 14,5 km/h (3 Bft) 100,00 %
22.08.2016 04:18 13,1 C 88 % 1023,8 hPa 0,0 l/m 11,0 km/h (2 Bft) SW 232 0 min 0,000 mm 0,0 UV-I 0 W/m 11,2 C 10,5 C 17,7 km/h (3 Bft) 98,11 %
22.08.2016 04:20 13,1 C 88 % 1023,8 hPa 0,0 l/m 9,7 km/h (2 Bft) SW 223 0 min 0,000 mm 0,0 UV-I 0 W/m 11,2 C 11,2 C 16,1 km/h (3 Bft) 100,00 %
22.08.2016 04:22 13,1 C 88 % 1023,8 hPa 0,0 l/m 8,7 km/h (2 Bft) SW 225 0 min 0,000 mm 0,0 UV-I 0 W/m 11,2 C 11,7 C 16,1 km/h (3 Bft) 100,00 %
22.08.2016 04:24 13,1 C 88 % 1023,8 hPa 0,0 l/m 7,3 km/h (2 Bft) W-SW 244 0 min 0,000 mm 0,0 UV-I 0 W/m 11,2 C 12,5 C 11,3 km/h (2 Bft) 100,00 %
22.08.2016 04:26 13,1 C 88 % 1023,9 hPa 0,0 l/m 10,4 km/h (2 Bft) SW 222 0 min 0,000 mm 0,0 UV-I 0 W/m 11,2 C 10,8 C 16,1 km/h (3 Bft) 100,00 %
22.08.2016 04:28 13,1 C 88 % 1023,9 hPa 0,0 l/m 9,5 km/h (2 Bft) W-SW 238 0 min 0,000 mm 0,0 UV-I 0 W/m 11,2 C 11,3 C 14,5 km/h (3 Bft) 100,00 %
22.08.2016 04:30 13,0 C 88 % 1023,9 hPa 0,0 l/m 12,3 km/h (3 Bft) W-SW 242 0 min 0,000 mm 0,0 UV-I 0 W/m 11,1 C 9,8 C 19,3 km/h (3 Bft) 100,00 %
22.08.2016 04:32 13,1 C 88 % 1023,9 hPa 0,0 l/m 10,6 km/h (2 Bft) SW 219 0 min 0,000 mm 0,0 UV-I 0 W/m 11,2 C 10,7 C 16,1 km/h (3 Bft) 100,00 %
22.08.2016 04:34 13,1 C 88 % 1024,0 hPa 0,0 l/m 11,7 km/h (2 Bft) W-SW 255 0 min 0,000 mm 0,0 UV-I 0 W/m 11,2 C 10,2 C 17,7 km/h (3 Bft) 100,00 %
22.08.2016 04:36 13,0 C 88 % 1024,0 hPa 0,0 l/m 11,1 km/h (2 Bft) W-SW 241 0 min 0,000 mm 0,0 UV-I 0 W/m 11,1 C 10,4 C 19,3 km/h (3 Bft) 100,00 %
22.08.2016 04:38 13,0 C 88 % 1024,1 hPa 0,0 l/m 11,8 km/h (2 Bft) W 260 0 min 0,000 mm 0,0 UV-I 0 W/m 11,1 C 10,1 C 17,7 km/h (3 Bft) 100,00 %
22.08.2016 04:40 13,1 C 88 % 1024,1 hPa 0,0 l/m 10,9 km/h (2 Bft) W-SW 244 0 min 0,000 mm 0,0 UV-I 0 W/m 11,2 C 10,6 C 16,1 km/h (3 Bft) 100,00 %
22.08.2016 04:42 13,0 C 88 % 1024,0 hPa 0,0 l/m 11,8 km/h (2 Bft) W-NW 288 0 min 0,000 mm 0,0 UV-I 0 W/m 11,1 C 10,1 C 19,3 km/h (3 Bft) 100,00 %
22.08.2016 04:44 13,0 C 88 % 1024,0 hPa 0,0 l/m 9,7 km/h (2 Bft) W-SW 252 0 min 0,000 mm 0,0 UV-I 0 W/m 11,1 C 11,1 C 14,5 km/h (3 Bft) 100,00 %
22.08.2016 04:46 13,0 C 88 % 1024,0 hPa 0,0 l/m 9,9 km/h (2 Bft) W-SW 240 0 min 0,000 mm 0,0 UV-I 0 W/m 11,1 C 11,0 C 17,7 km/h (3 Bft) 97,44 %
22.08.2016 04:48 12,9 C 89 % 1024,0 hPa 0,0 l/m 10,5 km/h (2 Bft) S-SW 213 0 min 0,000 mm 0,0 UV-I 0 W/m 11,1 C 10,5 C 19,3 km/h (3 Bft) 100,00 %
22.08.2016 04:50 12,9 C 89 % 1024,0 hPa 0,0 l/m 12,3 km/h (3 Bft) W-SW 257 0 min 0,000 mm 0,0 UV-I 0 W/m 11,1 C 9,7 C 17,7 km/h (3 Bft) 100,00 %
22.08.2016 04:52 12,9 C 89 % 1024,1 hPa 0,0 l/m 10,5 km/h (2 Bft) W-SW 248 0 min 0,000 mm 0,0 UV-I 0 W/m 11,1 C 10,5 C 14,5 km/h (3 Bft) 100,00 %
22.08.2016 04:54 12,9 C 89 % 1024,1 hPa 0,0 l/m 12,1 km/h (2 Bft) W 263 0 min 0,000 mm 0,0 UV-I 0 W/m 11,1 C 9,8 C 16,1 km/h (3 Bft) 98,11 %
22.08.2016 04:56 12,9 C 89 % 1024,1 hPa 0,0 l/m 9,8 km/h (2 Bft) W-SW 249 0 min 0,000 mm 0,0 UV-I 0 W/m 11,1 C 10,9 C 14,5 km/h (3 Bft) 100,00 %
22.08.2016 04:58 12,9 C 89 % 1024,1 hPa 0,0 l/m 10,7 km/h (2 Bft) W-SW 256 0 min 0,000 mm 0,0 UV-I 0 W/m 11,1 C 10,5 C 19,3 km/h (3 Bft) 100,00 %
22.08.2016 05:00 12,9 C 89 % 1024,1 hPa 0,0 l/m 13,1 km/h (3 Bft) W 269 0 min 0,025 mm 0,0 UV-I 0 W/m 11,1 C 9,4 C 20,9 km/h (4 Bft) 100,00 %
22.08.2016 05:02 12,9 C 89 % 1024,1 hPa 0,0 l/m 11,3 km/h (2 Bft) W-SW 239 0 min 0,000 mm 0,0 UV-I 0 W/m 11,1 C 10,2 C 17,7 km/h (3 Bft) 100,00 %
22.08.2016 05:04 12,9 C 89 % 1024,1 hPa 0,0 l/m 10,9 km/h (2 Bft) W-SW 252 0 min 0,000 mm 0,0 UV-I 0 W/m 11,1 C 10,4 C 14,5 km/h (3 Bft) 100,00 %
22.08.2016 05:06 12,8 C 89 % 1024,1 hPa 0,0 l/m 11,2 km/h (2 Bft) W-SW 250 0 min 0,000 mm 0,0 UV-I 0 W/m 11,0 C 10,1 C 17,7 km/h (3 Bft) 96,00 %
22.08.2016 05:08 12,8 C 89 % 1024,1 hPa 0,0 l/m 10,3 km/h (2 Bft) SW 217 0 min 0,000 mm 0,0 UV-I 0 W/m 11,0 C 10,5 C 16,1 km/h (3 Bft) 100,00 %
22.08.2016 05:10 12,8 C 89 % 1024,0 hPa 0,0 l/m 9,7 km/h (2 Bft) SW 221 0 min 0,000 mm 0,0 UV-I 0 W/m 11,0 C 10,8 C 17,7 km/h (3 Bft) 98,21 %
22.08.2016 05:12 12,8 C 89 % 1024,0 hPa 0,0 l/m 11,0 km/h (2 Bft) W-SW 238 0 min 0,000 mm 0,0 UV-I 0 W/m 11,0 C 10,2 C 16,1 km/h (3 Bft) 95,12 %
22.08.2016 05:14 12,8 C 89 % 1024,0 hPa 0,0 l/m 8,9 km/h (2 Bft) W-SW 258 0 min 0,000 mm 0,0 UV-I 0 W/m 11,0 C 11,3 C 16,1 km/h (3 Bft) 97,44 %
22.08.2016 05:16 12,8 C 89 % 1024,1 hPa 0,0 l/m 8,8 km/h (2 Bft) W-SW 248 0 min 0,000 mm 0,0 UV-I 0 W/m 11,0 C 11,3 C 16,1 km/h (3 Bft) 94,55 %
22.08.2016 05:18 12,7 C 89 % 1024,1 hPa 0,0 l/m 9,8 km/h (2 Bft) SW 216 0 min 0,000 mm 0,0 UV-I 0 W/m 10,9 C 10,7 C 16,1 km/h (3 Bft) 95,74 %
22.08.2016 05:20 12,7 C 89 % 1024,2 hPa 0,0 l/m 10,4 km/h (2 Bft) W-SW 242 0 min 0,000 mm 0,0 UV-I 0 W/m 10,9 C 10,4 C 16,1 km/h (3 Bft) 98,00 %
22.08.2016 05:22 12,7 C 90 % 1024,2 hPa 0,0 l/m 10,1 km/h (2 Bft) W-SW 248 0 min 0,000 mm 0,0 UV-I 0 W/m 11,1 C 10,5 C 16,1 km/h (3 Bft) 98,00 %
22.08.2016 05:24 12,7 C 90 % 1024,2 hPa 0,0 l/m 11,7 km/h (2 Bft) W-SW 245 0 min 0,000 mm 0,0 UV-I 0 W/m 11,1 C 9,8 C 16,1 km/h (3 Bft) 97,62 %
22.08.2016 05:26 12,7 C 89 % 1024,2 hPa 0,0 l/m 11,5 km/h (2 Bft) W 259 0 min 0,000 mm 0,0 UV-I 0 W/m 10,9 C 9,8 C 16,1 km/h (3 Bft) 97,73 %
22.08.2016 05:28 12,7 C 90 % 1024,2 hPa 0,0 l/m 8,7 km/h (2 Bft) W 261 0 min 0,000 mm 0,0 UV-I 0 W/m 11,1 C 11,3 C 12,9 km/h (3 Bft) 97,87 %
22.08.2016 05:30 12,7 C 90 % 1024,2 hPa 0,0 l/m 9,0 km/h (2 Bft) SW 220 0 min 0,000 mm 0,0 UV-I 0 W/m 11,1 C 11,1 C 16,1 km/h (3 Bft) 96,00 %
22.08.2016 05:32 12,7 C 90 % 1024,2 hPa 0,0 l/m 7,8 km/h (2 Bft) W-SW 240 0 min 0,000 mm 0,0 UV-I 0 W/m 11,1 C 11,8 C 11,3 km/h (2 Bft) 95,12 %
22.08.2016 05:34 12,6 C 90 % 1024,2 hPa 0,0 l/m 10,2 km/h (2 Bft) W-SW 242 0 min 0,000 mm 0,0 UV-I 0 W/m 11,0 C 10,4 C 16,1 km/h (3 Bft) 98,00 %
22.08.2016 05:36 12,6 C 90 % 1024,3 hPa 0,0 l/m 8,5 km/h (2 Bft) W-SW 240 0 min 0,000 mm 0,0 UV-I 0 W/m 11,0 C 11,3 C 14,5 km/h (3 Bft) 97,56 %
22.08.2016 05:38 12,6 C 90 % 1024,3 hPa 0,0 l/m 7,6 km/h (2 Bft) W 271 0 min 0,000 mm 0,0 UV-I 0 W/m 11,0 C 11,8 C 14,5 km/h (3 Bft) 98,11 %
22.08.2016 05:40 12,6 C 90 % 1024,4 hPa 0,0 l/m 9,2 km/h (2 Bft) S-SW 196 0 min 0,000 mm 0,0 UV-I 0 W/m 11,0 C 10,9 C 16,1 km/h (3 Bft) 97,87 %
22.08.2016 05:42 12,6 C 90 % 1024,4 hPa 0,0 l/m 9,1 km/h (2 Bft) SW 217 0 min 0,000 mm 0,0 UV-I 0 W/m 11,0 C 10,9 C 14,5 km/h (3 Bft) 100,00 %
22.08.2016 05:44 12,6 C 90 % 1024,4 hPa 0,0 l/m 10,8 km/h (2 Bft) SW 232 0 min 0,000 mm 0,0 UV-I 0 W/m 11,0 C 10,1 C 16,1 km/h (3 Bft) 95,74 %
22.08.2016 05:46 12,6 C 90 % 1024,5 hPa 0,0 l/m 10,2 km/h (2 Bft) SW 224 0 min 0,000 mm 0,0 UV-I 0 W/m 11,0 C 10,4 C 14,5 km/h (3 Bft) 100,00 %
22.08.2016 05:48 12,6 C 90 % 1024,4 hPa 0,0 l/m 11,0 km/h (2 Bft) W-SW 248 0 min 0,000 mm 0,0 UV-I 0 W/m 11,0 C 10,0 C 16,1 km/h (3 Bft) 100,00 %
22.08.2016 05:50 12,6 C 89 % 1024,4 hPa 0,0 l/m 9,4 km/h (2 Bft) SW 229 0 min 0,000 mm 0,0 UV-I 0 W/m 10,8 C 10,8 C 14,5 km/h (3 Bft) 100,00 %
22.08.2016 05:52 12,6 C 89 % 1024,4 hPa 0,0 l/m 9,6 km/h (2 Bft) W-SW 244 0 min 0,000 mm 0,0 UV-I 0 W/m 10,8 C 10,7 C 14,5 km/h (3 Bft) 96,00 %
22.08.2016 05:54 12,6 C 89 % 1024,4 hPa 0,0 l/m 9,4 km/h (2 Bft) W-SW 257 0 min 0,000 mm 0,0 UV-I 0 W/m 10,8 C 10,8 C 16,1 km/h (3 Bft) 100,00 %
22.08.2016 05:56 12,5 C 89 % 1024,4 hPa 0,0 l/m 10,0 km/h (2 Bft) W-SW 249 0 min 0,000 mm 0,0 UV-I 0 W/m 10,7 C 10,4 C 12,9 km/h (3 Bft) 98,11 %
22.08.2016 05:58 12,5 C 89 % 1024,4 hPa 0,0 l/m 8,2 km/h (2 Bft) SW 217 0 min 0,000 mm 0,0 UV-I 0 W/m 10,7 C 11,4 C 12,9 km/h (3 Bft) 100,00 %
22.08.2016 06:00 12,5 C 89 % 1024,4 hPa 0,0 l/m 9,2 km/h (2 Bft) W-SW 254 0 min 0,026 mm 0,0 UV-I 0 W/m 10,7 C 10,8 C 14,5 km/h (3 Bft) 100,00 %
22.08.2016 06:02 12,5 C 89 % 1024,4 hPa 0,0 l/m 9,2 km/h (2 Bft) SW 223 0 min 0,000 mm 0,0 UV-I 0 W/m 10,7 C 10,8 C 12,9 km/h (3 Bft) 100,00 %
22.08.2016 06:04 12,5 C 89 % 1024,5 hPa 0,0 l/m 10,9 km/h (2 Bft) W-SW 252 0 min 0,000 mm 0,0 UV-I 0 W/m 10,7 C 9,9 C 16,1 km/h (3 Bft) 100,00 %
22.08.2016 06:06 12,6 C 89 % 1024,5 hPa 0,0 l/m 10,7 km/h (2 Bft) W-SW 242 0 min 0,000 mm 0,0 UV-I 0 W/m 10,8 C 10,1 C 16,1 km/h (3 Bft) 100,00 %
22.08.2016 06:08 12,6 C 89 % 1024,5 hPa 0,0 l/m 9,9 km/h (2 Bft) W-SW 255 0 min 0,000 mm 0,0 UV-I 0 W/m 10,8 C 10,5 C 14,5 km/h (3 Bft) 98,00 %
22.08.2016 06:10 12,6 C 89 % 1024,6 hPa 0,0 l/m 10,9 km/h (2 Bft) SW 223 0 min 0,000 mm 0,0 UV-I 0 W/m 10,8 C 10,0 C 16,1 km/h (3 Bft) 100,00 %
22.08.2016 06:12 12,6 C 89 % 1024,5 hPa 0,0 l/m 11,2 km/h (2 Bft) SW 226 0 min 0,000 mm 0,0 UV-I 0 W/m 10,8 C 9,9 C 16,1 km/h (3 Bft) 100,00 %
22.08.2016 06:14 12,6 C 89 % 1024,6 hPa 0,0 l/m 10,0 km/h (2 Bft) W-SW 244 0 min 0,000 mm 0,0 UV-I 0 W/m 10,8 C 10,5 C 14,5 km/h (3 Bft) 100,00 %
22.08.2016 06:16 12,6 C 89 % 1024,7 hPa 0,0 l/m 9,8 km/h (2 Bft) SW 229 0 min 0,000 mm 0,0 UV-I 0 W/m 10,8 C 10,6 C 14,5 km/h (3 Bft) 98,00 %
22.08.2016 06:18 12,6 C 89 % 1024,6 hPa 0,0 l/m 8,6 km/h (2 Bft) W-SW 244 0 min 0,000 mm 0,0 UV-I 4 W/m 10,8 C 11,2 C 12,9 km/h (3 Bft) 100,00 %
22.08.2016 06:20 12,6 C 89 % 1024,7 hPa 0,0 l/m 7,3 km/h (2 Bft) SW 234 0 min 0,000 mm 0,0 UV-I 5 W/m 10,8 C 12,0 C 11,3 km/h (2 Bft) 98,11 %
22.08.2016 06:22 12,6 C 89 % 1024,7 hPa 0,0 l/m 6,8 km/h (2 Bft) W-SW 250 0 min 0,000 mm 0,0 UV-I 5 W/m 10,8 C 12,4 C 11,3 km/h (2 Bft) 100,00 %
22.08.2016 06:24 12,6 C 89 % 1024,8 hPa 0,0 l/m 8,2 km/h (2 Bft) S-SW 213 0 min 0,000 mm 0,0 UV-I 5 W/m 10,8 C 11,5 C 11,3 km/h (2 Bft) 100,00 %
22.08.2016 06:26 12,5 C 89 % 1024,9 hPa 0,0 l/m 7,2 km/h (2 Bft) W-NW 293 0 min 0,000 mm 0,0 UV-I 5 W/m 10,7 C 12,0 C 11,3 km/h (2 Bft) 100,00 %
22.08.2016 06:28 12,5 C 89 % 1025,0 hPa 0,0 l/m 6,6 km/h (2 Bft) W-SW 241 0 min 0,000 mm 0,0 UV-I 5 W/m 10,7 C 12,4 C 14,5 km/h (3 Bft) 100,00 %
22.08.2016 06:30 12,6 C 89 % 1025,0 hPa 0,0 l/m 5,6 km/h (1 Bft) W-SW 244 0 min 0,000 mm 0,0 UV-I 6 W/m 10,8 C 12,6 C 11,3 km/h (2 Bft) 100,00 %
22.08.2016 06:32 12,6 C 89 % 1025,0 hPa 0,0 l/m 5,2 km/h (1 Bft) S-SW 213 0 min 0,000 mm 0,0 UV-I 7 W/m 10,8 C 12,6 C 8,0 km/h (2 Bft) 100,00 %
22.08.2016 06:34 12,6 C 89 % 1025,0 hPa 0,0 l/m 5,2 km/h (1 Bft) W-SW 252 0 min 0,000 mm 0,0 UV-I 7 W/m 10,8 C 12,6 C 11,3 km/h (2 Bft) 98,00 %
22.08.2016 06:36 12,6 C 89 % 1025,0 hPa 0,0 l/m 5,5 km/h (1 Bft) W-SW 242 0 min 0,000 mm 0,0 UV-I 7 W/m 10,8 C 12,6 C 11,3 km/h (2 Bft) 97,44 %
22.08.2016 06:38 12,6 C 89 % 1025,0 hPa 0,0 l/m 4,9 km/h (1 Bft) W-SW 257 0 min 0,000 mm 0,0 UV-I 9 W/m 10,8 C 12,6 C 6,4 km/h (2 Bft) 100,00 %
22.08.2016 06:40 12,6 C 89 % 1025,0 hPa 0,0 l/m 6,2 km/h (2 Bft) W-SW 244 0 min 0,000 mm 0,0 UV-I 9 W/m 10,8 C 12,6 C 9,7 km/h (2 Bft) 100,00 %
22.08.2016 06:42 12,6 C 89 % 1025,0 hPa 0,0 l/m 5,5 km/h (1 Bft) W-SW 254 0 min 0,000 mm 0,0 UV-I 9 W/m 10,8 C 12,6 C 9,7 km/h (2 Bft) 100,00 %
22.08.2016 06:44 12,6 C 89 % 1025,0 hPa 0,0 l/m 6,1 km/h (2 Bft) W-SW 252 0 min 0,000 mm 0,0 UV-I 9 W/m 10,8 C 12,6 C 12,9 km/h (3 Bft) 100,00 %
22.08.2016 06:46 12,6 C 89 % 1025,1 hPa 0,0 l/m 10,5 km/h (2 Bft) W-SW 254 0 min 0,000 mm 0,0 UV-I 9 W/m 10,8 C 10,2 C 16,1 km/h (3 Bft) 97,87 %
22.08.2016 06:48 12,7 C 89 % 1025,1 hPa 0,0 l/m 7,1 km/h (2 Bft) W-SW 242 0 min 0,000 mm 0,0 UV-I 10 W/m 10,9 C 12,3 C 12,9 km/h (3 Bft) 100,00 %
22.08.2016 06:50 12,7 C 89 % 1025,1 hPa 0,0 l/m 8,9 km/h (2 Bft) W-SW 246 0 min 0,000 mm 0,0 UV-I 11 W/m 10,9 C 11,2 C 12,9 km/h (3 Bft) 98,00 %
22.08.2016 06:52 12,7 C 89 % 1025,1 hPa 0,0 l/m 9,8 km/h (2 Bft) W-SW 238 0 min 0,000 mm 0,0 UV-I 11 W/m 10,9 C 10,7 C 14,5 km/h (3 Bft) 100,00 %
22.08.2016 06:54 12,7 C 88 % 1025,1 hPa 0,0 l/m 10,5 km/h (2 Bft) W-SW 254 0 min 0,000 mm 0,0 UV-I 9 W/m 10,8 C 10,3 C 16,1 km/h (3 Bft) 100,00 %
22.08.2016 06:56 12,7 C 88 % 1025,2 hPa 0,0 l/m 9,1 km/h (2 Bft) SW 233 0 min 0,000 mm 0,0 UV-I 10 W/m 10,8 C 11,1 C 12,9 km/h (3 Bft) 97,37 %
22.08.2016 06:58 12,7 C 88 % 1025,2 hPa 0,0 l/m 7,3 km/h (2 Bft) W-SW 246 0 min 0,000 mm 0,0 UV-I 11 W/m 10,8 C 12,1 C 14,5 km/h (3 Bft) 100,00 %
22.08.2016 07:00 12,7 C 88 % 1025,2 hPa 0,0 l/m 6,7 km/h (2 Bft) W-SW 246 0 min 0,025 mm 0,0 UV-I 11 W/m 10,8 C 12,5 C 9,7 km/h (2 Bft) 97,87 %
22.08.2016 07:02 12,8 C 88 % 1025,2 hPa 0,0 l/m 7,0 km/h (2 Bft) W-SW 242 0 min 0,000 mm 0,0 UV-I 11 W/m 10,9 C 12,4 C 11,3 km/h (2 Bft) 100,00 %
22.08.2016 07:04 12,7 C 88 % 1025,3 hPa 0,0 l/m 7,5 km/h (2 Bft) W-SW 250 0 min 0,000 mm 0,0 UV-I 12 W/m 10,8 C 12,0 C 12,9 km/h (3 Bft) 100,00 %
22.08.2016 07:06 12,7 C 88 % 1025,3 hPa 0,0 l/m 7,2 km/h (2 Bft) S-SW 199 0 min 0,000 mm 0,0 UV-I 12 W/m 10,8 C 12,2 C 12,9 km/h (3 Bft) 100,00 %
22.08.2016 07:08 12,7 C 88 % 1025,3 hPa 0,0 l/m 6,5 km/h (2 Bft) W-SW 240 0 min 0,000 mm 0,0 UV-I 12 W/m 10,8 C 12,7 C 8,0 km/h (2 Bft) 100,00 %
22.08.2016 07:10 12,7 C 88 % 1025,3 hPa 0,0 l/m 7,1 km/h (2 Bft) W-SW 242 0 min 0,000 mm 0,0 UV-I 14 W/m 10,8 C 12,3 C 11,3 km/h (2 Bft) 98,11 %
22.08.2016 07:12 12,7 C 89 % 1025,3 hPa 0,0 l/m 9,8 km/h (2 Bft) W-SW 238 0 min 0,000 mm 0,0 UV-I 15 W/m 10,9 C 10,7 C 12,9 km/h (3 Bft) 97,87 %
22.08.2016 07:14 12,6 C 89 % 1025,3 hPa 0,0 l/m 6,5 km/h (2 Bft) W-SW 249 0 min 0,000 mm 0,0 UV-I 16 W/m 10,8 C 12,6 C 11,3 km/h (2 Bft) 95,74 %
22.08.2016 07:16 12,6 C 89 % 1025,4 hPa 0,0 l/m 6,3 km/h (2 Bft) W-SW 250 0 min 0,000 mm 0,0 UV-I 19 W/m 10,8 C 12,6 C 11,3 km/h (2 Bft) 97,62 %
22.08.2016 07:18 12,6 C 89 % 1025,4 hPa 0,0 l/m 7,5 km/h (2 Bft) W 273 0 min 0,000 mm 0,0 UV-I 21 W/m 10,8 C 11,9 C 16,1 km/h (3 Bft) 96,00 %
22.08.2016 07:20 12,6 C 89 % 1025,4 hPa 0,0 l/m 5,5 km/h (1 Bft) W-SW 242 0 min 0,000 mm 0,0 UV-I 23 W/m 10,8 C 12,6 C 9,7 km/h (2 Bft) 98,00 %
22.08.2016 07:22 12,6 C 89 % 1025,5 hPa 0,0 l/m 6,3 km/h (2 Bft) W-SW 250 0 min 0,000 mm 0,0 UV-I 25 W/m 10,8 C 12,6 C 9,7 km/h (2 Bft) 98,00 %
22.08.2016 07:24 12,7 C 89 % 1025,4 hPa 0,0 l/m 6,5 km/h (2 Bft) W-SW 257 0 min 0,000 mm 0,0 UV-I 29 W/m 10,9 C 12,7 C 9,7 km/h (2 Bft) 97,37 %
22.08.2016 07:26 12,7 C 89 % 1025,4 hPa 0,0 l/m 6,4 km/h (2 Bft) W-SW 250 0 min 0,000 mm 0,0 UV-I 36 W/m 10,9 C 12,7 C 9,7 km/h (2 Bft) 95,74 %
22.08.2016 07:28 12,7 C 89 % 1025,5 hPa 0,0 l/m 6,2 km/h (2 Bft) W-SW 254 0 min 0,000 mm 0,0 UV-I 42 W/m 10,9 C 12,7 C 11,3 km/h (2 Bft) 96,00 %
22.08.2016 07:30 12,7 C 89 % 1025,5 hPa 0,0 l/m 7,1 km/h (2 Bft) W 267 0 min 0,000 mm 0,0 UV-I 46 W/m 10,9 C 12,3 C 11,3 km/h (2 Bft) 98,00 %
22.08.2016 07:32 12,7 C 89 % 1025,7 hPa 0,0 l/m 5,2 km/h (1 Bft) W 263 0 min 0,000 mm 0,0 UV-I 50 W/m 10,9 C 12,7 C 9,7 km/h (2 Bft) 97,50 %
22.08.2016 07:34 12,8 C 89 % 1025,7 hPa 0,0 l/m 5,9 km/h (2 Bft) W-SW 258 0 min 0,000 mm 0,0 UV-I 55 W/m 11,0 C 12,8 C 9,7 km/h (2 Bft) 95,74 %
22.08.2016 07:36 12,8 C 89 % 1025,7 hPa 0,0 l/m 4,9 km/h (1 Bft) W-SW 256 0 min 0,000 mm 0,0 UV-I 58 W/m 11,0 C 12,8 C 6,4 km/h (2 Bft) 97,87 %
22.08.2016 07:38 12,8 C 89 % 1025,7 hPa 0,0 l/m 6,6 km/h (2 Bft) W-SW 248 0 min 0,000 mm 0,0 UV-I 57 W/m 11,0 C 12,7 C 11,3 km/h (2 Bft) 97,56 %
22.08.2016 07:40 12,9 C 88 % 1025,8 hPa 0,0 l/m 6,1 km/h (2 Bft) W 276 0 min 0,000 mm 0,0 UV-I 58 W/m 11,0 C 12,9 C 11,3 km/h (2 Bft) 98,21 %
22.08.2016 07:42 12,9 C 89 % 1025,8 hPa 0,0 l/m 6,2 km/h (2 Bft) W-SW 240 0 min 0,000 mm 0,0 UV-I 66 W/m 11,1 C 12,9 C 9,7 km/h (2 Bft) 94,29 %
22.08.2016 07:44 13,0 C 88 % 1025,8 hPa 0,0 l/m 6,9 km/h (2 Bft) SW 236 0 min 0,000 mm 0,0 UV-I 78 W/m 11,1 C 12,7 C 9,7 km/h (2 Bft) 98,21 %
22.08.2016 07:46 13,1 C 88 % 1025,8 hPa 0,0 l/m 6,5 km/h (2 Bft) W-SW 257 0 min 0,000 mm 0,0 UV-I 82 W/m 11,2 C 13,1 C 9,7 km/h (2 Bft) 100,00 %
22.08.2016 07:48 13,1 C 88 % 1025,8 hPa 0,0 l/m 7,5 km/h (2 Bft) W-SW 254 0 min 0,000 mm 0,0 UV-I 85 W/m 11,2 C 12,4 C 11,3 km/h (2 Bft) 100,00 %
22.08.2016 07:50 13,2 C 88 % 1025,8 hPa 0,0 l/m 6,2 km/h (2 Bft) W 277 0 min 0,000 mm 0,0 UV-I 90 W/m 11,3 C 13,2 C 11,3 km/h (2 Bft) 97,56 %
22.08.2016 07:52 13,2 C 88 % 1025,8 hPa 0,0 l/m 8,2 km/h (2 Bft) W 263 0 min 0,000 mm 0,0 UV-I 97 W/m 11,3 C 12,1 C 14,5 km/h (3 Bft) 100,00 %
22.08.2016 07:54 13,2 C 88 % 1025,8 hPa 0,0 l/m 7,2 km/h (2 Bft) SW 236 0 min 0,000 mm 0,0 UV-I 97 W/m 11,3 C 12,7 C 12,9 km/h (3 Bft) 100,00 %
22.08.2016 07:56 13,2 C 87 % 1025,9 hPa 0,0 l/m 10,0 km/h (2 Bft) SW 233 0 min 0,000 mm 0,0 UV-I 99 W/m 11,1 C 11,1 C 16,1 km/h (3 Bft) 100,00 %
22.08.2016 07:58 13,3 C 87 % 1025,9 hPa 0,0 l/m 11,9 km/h (2 Bft) W 269 0 min 0,000 mm 0,0 UV-I 96 W/m 11,2 C 10,4 C 19,3 km/h (3 Bft) 100,00 %
22.08.2016 08:00 13,3 C 87 % 1025,9 hPa 0,0 l/m 8,5 km/h (2 Bft) W-SW 252 0 min 0,025 mm 0,0 UV-I 86 W/m 11,2 C 12,0 C 14,5 km/h (3 Bft) 100,00 %
22.08.2016 08:02 13,4 C 86 % 1025,9 hPa 0,0 l/m 6,7 km/h (2 Bft) W-SW 250 0 min 0,000 mm 0,0 UV-I 80 W/m 11,1 C 13,2 C 12,9 km/h (3 Bft) 100,00 %
22.08.2016 08:04 13,4 C 86 % 1025,9 hPa 0,0 l/m 8,2 km/h (2 Bft) W-SW 247 0 min 0,000 mm 0,0 UV-I 77 W/m 11,1 C 12,3 C 12,9 km/h (3 Bft) 100,00 %
22.08.2016 08:06 13,4 C 86 % 1025,9 hPa 0,0 l/m 9,7 km/h (2 Bft) W-SW 242 0 min 0,000 mm 0,0 UV-I 76 W/m 11,1 C 11,5 C 16,1 km/h (3 Bft) 100,00 %
22.08.2016 08:08 13,5 C 86 % 1025,9 hPa 0,0 l/m 13,8 km/h (3 Bft) W-SW 246 0 min 0,000 mm 0,0 UV-I 75 W/m 11,2 C 9,8 C 22,5 km/h (4 Bft) 100,00 %
22.08.2016 08:10 13,6 C 86 % 1025,9 hPa 0,0 l/m 8,5 km/h (2 Bft) W-SW 250 0 min 0,000 mm 0,0 UV-I 74 W/m 11,3 C 12,4 C 14,5 km/h (3 Bft) 100,00 %
22.08.2016 08:12 13,6 C 85 % 1025,9 hPa 0,0 l/m 10,6 km/h (2 Bft) W 273 0 min 0,000 mm 0,0 UV-I 77 W/m 11,1 C 11,3 C 16,1 km/h (3 Bft) 100,00 %
22.08.2016 08:14 13,6 C 86 % 1025,9 hPa 0,0 l/m 5,0 km/h (1 Bft) W 262 0 min 0,000 mm 0,0 UV-I 81 W/m 11,3 C 13,6 C 9,7 km/h (2 Bft) 100,00 %
22.08.2016 08:16 13,6 C 85 % 1026,0 hPa 0,0 l/m 6,3 km/h (2 Bft) W-SW 251 0 min 0,000 mm 0,0 UV-I 86 W/m 11,1 C 13,6 C 12,9 km/h (3 Bft) 97,14 %
22.08.2016 08:18 13,7 C 85 % 1026,0 hPa 0,0 l/m 6,7 km/h (2 Bft) W 269 0 min 0,000 mm 0,0 UV-I 96 W/m 11,2 C 13,5 C 11,3 km/h (2 Bft) 100,00 %
22.08.2016 08:20 13,7 C 86 % 1026,0 hPa 0,0 l/m 8,4 km/h (2 Bft) W 275 0 min 0,000 mm 0,0 UV-I 102 W/m 11,4 C 12,5 C 14,5 km/h (3 Bft) 100,00 %
22.08.2016 08:22 13,7 C 85 % 1026,0 hPa 0,0 l/m 7,5 km/h (2 Bft) SW 234 0 min 0,000 mm 0,0 UV-I 106 W/m 11,2 C 13,0 C 12,9 km/h (3 Bft) 100,00 %
22.08.2016 08:24 13,8 C 85 % 1026,0 hPa 0,0 l/m 7,6 km/h (2 Bft) SW 236 0 min 0,000 mm 0,0 UV-I 112 W/m 11,3 C 13,1 C 14,5 km/h (3 Bft) 98,00 %
22.08.2016 08:26 13,8 C 85 % 1026,0 hPa 0,0 l/m 8,9 km/h (2 Bft) W 269 0 min 0,000 mm 0,0 UV-I 114 W/m 11,3 C 12,3 C 14,5 km/h (3 Bft) 100,00 %
22.08.2016 08:28 13,9 C 85 % 1026,0 hPa 0,0 l/m 9,5 km/h (2 Bft) W-SW 251 0 min 0,000 mm 0,0 UV-I 114 W/m 11,4 C 12,1 C 14,5 km/h (3 Bft) 98,00 %
22.08.2016 08:30 13,9 C 85 % 1026,0 hPa 0,0 l/m 9,3 km/h (2 Bft) W-SW 252 0 min 0,000 mm 0,2 UV-I 119 W/m 11,4 C 12,2 C 17,7 km/h (3 Bft) 98,11 %
22.08.2016 08:32 14,0 C 85 % 1026,0 hPa 0,0 l/m 11,2 km/h (2 Bft) SW 234 0 min 0,000 mm 0,5 UV-I 139 W/m 11,5 C 11,5 C 16,1 km/h (3 Bft) 100,00 %
22.08.2016 08:34 14,1 C 85 % 1026,0 hPa 0,0 l/m 9,2 km/h (2 Bft) W 270 0 min 0,000 mm 0,6 UV-I 157 W/m 11,6 C 12,5 C 14,5 km/h (3 Bft) 100,00 %
22.08.2016 08:36 14,2 C 84 % 1026,0 hPa 0,0 l/m 10,7 km/h (2 Bft) W-NW 283 0 min 0,000 mm 0,6 UV-I 174 W/m 11,5 C 11,9 C 17,7 km/h (3 Bft) 100,00 %
22.08.2016 08:38 14,2 C 84 % 1026,0 hPa 0,0 l/m 9,9 km/h (2 Bft) W-SW 252 0 min 0,000 mm 0,6 UV-I 182 W/m 11,5 C 12,3 C 14,5 km/h (3 Bft) 98,21 %
22.08.2016 08:40 14,3 C 84 % 1026,0 hPa 0,0 l/m 10,6 km/h (2 Bft) W-SW 254 0 min 0,000 mm 0,6 UV-I 179 W/m 11,6 C 12,1 C 16,1 km/h (3 Bft) 100,00 %
22.08.2016 08:42 14,3 C 83 % 1026,0 hPa 0,0 l/m 10,9 km/h (2 Bft) W 265 0 min 0,000 mm 0,6 UV-I 173 W/m 11,5 C 11,9 C 17,7 km/h (3 Bft) 100,00 %
22.08.2016 08:44 14,4 C 84 % 1026,0 hPa 0,0 l/m 8,9 km/h (2 Bft) W-SW 237 0 min 0,000 mm 0,6 UV-I 165 W/m 11,7 C 13,0 C 14,5 km/h (3 Bft) 95,45 %
22.08.2016 08:46 14,4 C 83 % 1026,1 hPa 0,0 l/m 8,6 km/h (2 Bft) W 273 0 min 0,000 mm 0,6 UV-I 160 W/m 11,5 C 13,1 C 12,9 km/h (3 Bft) 100,00 %
22.08.2016 08:48 14,5 C 83 % 1026,1 hPa 0,0 l/m 9,4 km/h (2 Bft) W-SW 256 0 min 0,000 mm 0,6 UV-I 166 W/m 11,6 C 12,9 C 22,5 km/h (4 Bft) 98,11 %
22.08.2016 08:50 14,5 C 83 % 1026,2 hPa 0,0 l/m 11,0 km/h (2 Bft) W 265 0 min 0,000 mm 0,7 UV-I 191 W/m 11,6 C 12,1 C 17,7 km/h (3 Bft) 100,00 %
22.08.2016 08:52 14,6 C 82 % 1026,1 hPa 0,0 l/m 8,9 km/h (2 Bft) W-SW 248 0 min 0,000 mm 0,8 UV-I 198 W/m 11,6 C 13,2 C 16,1 km/h (3 Bft) 100,00 %
22.08.2016 08:54 14,7 C 83 % 1026,1 hPa 0,0 l/m 8,6 km/h (2 Bft) SW 236 0 min 0,000 mm 0,8 UV-I 234 W/m 11,8 C 13,5 C 12,9 km/h (3 Bft) 100,00 %
22.08.2016 08:56 14,8 C 83 % 1026,1 hPa 0,0 l/m 9,4 km/h (2 Bft) W-SW 244 0 min 0,000 mm 0,8 UV-I 223 W/m 11,9 C 13,2 C 19,3 km/h (3 Bft) 100,00 %
22.08.2016 08:58 14,8 C 82 % 1026,1 hPa 0,0 l/m 13,4 km/h (3 Bft) W-SW 242 0 min 0,000 mm 0,8 UV-I 218 W/m 11,8 C 11,5 C 20,9 km/h (4 Bft) 100,00 %
22.08.2016 09:00 14,8 C 81 % 1026,1 hPa 0,0 l/m 13,6 km/h (3 Bft) W 259 0 min 0,102 mm 0,8 UV-I 215 W/m 11,6 C 11,4 C 17,7 km/h (3 Bft) 100,00 %
22.08.2016 09:02 14,8 C 82 % 1026,1 hPa 0,0 l/m 10,3 km/h (2 Bft) W-SW 244 0 min 0,000 mm 0,9 UV-I 221 W/m 11,8 C 12,8 C 16,1 km/h (3 Bft) 97,56 %
22.08.2016 09:04 14,9 C 81 % 1026,1 hPa 0,0 l/m 10,5 km/h (2 Bft) W 267 0 min 0,000 mm 0,9 UV-I 250 W/m 11,7 C 12,8 C 16,1 km/h (3 Bft) 98,00 %
22.08.2016 09:06 15,0 C 81 % 1026,2 hPa 0,0 l/m 10,1 km/h (2 Bft) SW 228 0 min 0,000 mm 0,9 UV-I 249 W/m 11,8 C 13,1 C 16,1 km/h (3 Bft) 97,56 %
22.08.2016 09:08 15,1 C 81 % 1026,1 hPa 0,0 l/m 9,2 km/h (2 Bft) SW 234 2 min 0,000 mm 1,0 UV-I 299 W/m 11,9 C 13,6 C 17,7 km/h (3 Bft) 95,74 %
22.08.2016 09:10 15,2 C 80 % 1026,1 hPa 0,0 l/m 12,5 km/h (3 Bft) SW 236 2 min 0,000 mm 1,0 UV-I 290 W/m 11,8 C 12,3 C 19,3 km/h (3 Bft) 98,00 %
22.08.2016 09:12 15,2 C 80 % 1026,1 hPa 0,0 l/m 13,0 km/h (3 Bft) W-SW 251 2 min 0,000 mm 1,1 UV-I 325 W/m 11,8 C 12,1 C 20,9 km/h (4 Bft) 98,00 %
22.08.2016 09:14 15,2 C 80 % 1026,0 hPa 0,0 l/m 10,0 km/h (2 Bft) W-SW 257 2 min 0,000 mm 1,1 UV-I 283 W/m 11,8 C 13,3 C 16,1 km/h (3 Bft) 93,62 %
22.08.2016 09:16 15,3 C 80 % 1026,1 hPa 0,0 l/m 12,4 km/h (3 Bft) W-SW 254 2 min 0,000 mm 1,1 UV-I 306 W/m 11,9 C 12,5 C 17,7 km/h (3 Bft) 100,00 %
22.08.2016 09:18 15,3 C 80 % 1026,1 hPa 0,0 l/m 9,8 km/h (2 Bft) W-SW 250 2 min 0,000 mm 1,1 UV-I 290 W/m 11,9 C 13,5 C 16,1 km/h (3 Bft) 97,56 %
22.08.2016 09:20 15,4 C 79 % 1026,1 hPa 0,0 l/m 15,4 km/h (3 Bft) W-SW 246 0 min 0,000 mm 1,1 UV-I 274 W/m 11,8 C 11,5 C 20,9 km/h (4 Bft) 94,92 %
22.08.2016 09:22 15,4 C 79 % 1026,1 hPa 0,0 l/m 11,9 km/h (2 Bft) W-SW 250 2 min 0,000 mm 1,1 UV-I 293 W/m 11,8 C 12,8 C 19,3 km/h (3 Bft) 97,56 %
22.08.2016 09:24 15,4 C 79 % 1026,2 hPa 0,0 l/m 7,8 km/h (2 Bft) W 275 2 min 0,000 mm 1,2 UV-I 306 W/m 11,8 C 14,6 C 16,1 km/h (3 Bft) 98,00 %
22.08.2016 09:26 15,4 C 80 % 1026,3 hPa 0,0 l/m 7,4 km/h (2 Bft) W-SW 250 0 min 0,000 mm 1,1 UV-I 273 W/m 12,0 C 14,8 C 11,3 km/h (2 Bft) 96,00 %
22.08.2016 09:28 15,5 C 79 % 1026,2 hPa 0,0 l/m 9,7 km/h (2 Bft) W 261 0 min 0,000 mm 1,1 UV-I 250 W/m 11,9 C 13,8 C 16,1 km/h (3 Bft) 97,87 %
22.08.2016 09:30 15,6 C 80 % 1026,4 hPa 0,0 l/m 6,9 km/h (2 Bft) SW 231 0 min 0,000 mm 1,1 UV-I 243 W/m 12,2 C 15,3 C 11,3 km/h (2 Bft) 97,56 %
22.08.2016 09:32 15,6 C 79 % 1026,2 hPa 0,0 l/m 7,5 km/h (2 Bft) NW 321 0 min 0,000 mm 1,1 UV-I 242 W/m 12,0 C 15,0 C 12,9 km/h (3 Bft) 96,43 %
22.08.2016 09:34 15,6 C 79 % 1026,3 hPa 0,0 l/m 8,1 km/h (2 Bft) W 260 0 min 0,000 mm 1,1 UV-I 243 W/m 12,0 C 14,7 C 16,1 km/h (3 Bft) 97,37 %
22.08.2016 09:36 15,5 C 79 % 1026,3 hPa 0,0 l/m 8,8 km/h (2 Bft) W-NW 302 0 min 0,000 mm 1,1 UV-I 241 W/m 11,9 C 14,2 C 16,1 km/h (3 Bft) 98,11 %
22.08.2016 09:38 15,5 C 79 % 1026,3 hPa 0,0 l/m 5,6 km/h (1 Bft) W 272 0 min 0,000 mm 1,1 UV-I 235 W/m 11,9 C 15,5 C 11,3 km/h (2 Bft) 97,37 %
22.08.2016 09:40 15,6 C 81 % 1026,3 hPa 0,0 l/m 6,9 km/h (2 Bft) W-SW 252 0 min 0,000 mm 1,1 UV-I 233 W/m 12,3 C 15,3 C 12,9 km/h (3 Bft) 97,87 %
22.08.2016 09:42 15,6 C 80 % 1026,2 hPa 0,0 l/m 6,5 km/h (2 Bft) SW 234 0 min 0,000 mm 1,1 UV-I 237 W/m 12,2 C 15,6 C 12,9 km/h (3 Bft) 100,00 %
22.08.2016 09:44 15,7 C 79 % 1026,3 hPa 0,0 l/m 11,2 km/h (2 Bft) W-SW 248 0 min 0,000 mm 1,2 UV-I 237 W/m 12,1 C 13,4 C 19,3 km/h (3 Bft) 97,56 %
22.08.2016 09:46 15,7 C 79 % 1026,3 hPa 0,0 l/m 8,2 km/h (2 Bft) W-SW 253 0 min 0,000 mm 1,2 UV-I 240 W/m 12,1 C 14,7 C 14,5 km/h (3 Bft) 98,11 %
22.08.2016 09:48 15,7 C 79 % 1026,3 hPa 0,0 l/m 6,6 km/h (2 Bft) W-SW 238 0 min 0,000 mm 1,3 UV-I 244 W/m 12,1 C 15,6 C 14,5 km/h (3 Bft) 100,00 %
22.08.2016 09:50 15,6 C 79 % 1026,3 hPa 0,0 l/m 8,6 km/h (2 Bft) W-SW 242 0 min 0,000 mm 1,3 UV-I 248 W/m 12,0 C 14,4 C 17,7 km/h (3 Bft) 100,00 %
22.08.2016 09:52 15,6 C 79 % 1026,3 hPa 0,0 l/m 6,7 km/h (2 Bft) W-SW 239 0 min 0,000 mm 1,3 UV-I 256 W/m 12,0 C 15,4 C 16,1 km/h (3 Bft) 97,87 %
22.08.2016 09:54 15,7 C 80 % 1026,3 hPa 0,0 l/m 6,0 km/h (2 Bft) W-SW 258 0 min 0,000 mm 1,4 UV-I 263 W/m 12,3 C 15,7 C 9,7 km/h (2 Bft) 100,00 %
22.08.2016 09:56 15,7 C 79 % 1026,3 hPa 0,0 l/m 3,5 km/h (1 Bft) W-NW 286 0 min 0,000 mm 1,6 UV-I 262 W/m 12,1 C 15,7 C 9,7 km/h (2 Bft) 100,00 %
22.08.2016 09:58 15,7 C 79 % 1026,3 hPa 0,0 l/m 5,4 km/h (1 Bft) W-SW 244 0 min 0,000 mm 1,5 UV-I 284 W/m 12,1 C 15,7 C 12,9 km/h (3 Bft) 100,00 %
22.08.2016 10:00 15,7 C 78 % 1026,3 hPa 0,0 l/m 6,9 km/h (2 Bft) W 266 0 min 0,000 mm 1,5 UV-I 297 W/m 11,9 C 15,4 C 14,5 km/h (3 Bft) 100,00 %
22.08.2016 10:02 15,8 C 80 % 1026,3 hPa 0,0 l/m 6,0 km/h (2 Bft) W-SW 258 0 min 0,152 mm 1,5 UV-I 290 W/m 12,4 C 15,8 C 16,1 km/h (3 Bft) 100,00 %
22.08.2016 10:04 15,8 C 79 % 1026,3 hPa 0,0 l/m 6,2 km/h (2 Bft) NW 304 0 min 0,000 mm 1,5 UV-I 291 W/m 12,2 C 15,8 C 11,3 km/h (2 Bft) 98,11 %
22.08.2016 10:06 15,8 C 80 % 1026,3 hPa 0,0 l/m 6,9 km/h (2 Bft) W 275 0 min 0,000 mm 1,3 UV-I 277 W/m 12,4 C 15,5 C 14,5 km/h (3 Bft) 97,56 %
22.08.2016 10:08 15,8 C 79 % 1026,4 hPa 0,0 l/m 5,4 km/h (1 Bft) W 259 0 min 0,000 mm 1,2 UV-I 240 W/m 12,2 C 15,8 C 11,3 km/h (2 Bft) 97,87 %
22.08.2016 10:10 15,9 C 79 % 1026,4 hPa 0,0 l/m 4,5 km/h (1 Bft) W-SW 237 0 min 0,000 mm 1,0 UV-I 191 W/m 12,3 C 15,9 C 6,4 km/h (2 Bft) 100,00 %
22.08.2016 10:12 15,8 C 79 % 1026,4 hPa 0,0 l/m 4,1 km/h (1 Bft) W-SW 258 0 min 0,000 mm 1,1 UV-I 193 W/m 12,2 C 15,8 C 6,4 km/h (2 Bft) 100,00 %
22.08.2016 10:14 15,7 C 79 % 1026,4 hPa 0,0 l/m 4,7 km/h (1 Bft) W-NW 303 0 min 0,000 mm 1,0 UV-I 181 W/m 12,1 C 15,7 C 11,3 km/h (2 Bft) 100,00 %
22.08.2016 10:16 15,7 C 80 % 1026,4 hPa 0,0 l/m 3,8 km/h (1 Bft) W 265 0 min 0,000 mm 0,7 UV-I 135 W/m 12,3 C 15,7 C 8,0 km/h (2 Bft) 100,00 %
22.08.2016 10:18 15,7 C 80 % 1026,4 hPa 0,0 l/m 5,0 km/h (1 Bft) W 262 0 min 0,000 mm 0,7 UV-I 124 W/m 12,3 C 15,7 C 12,9 km/h (3 Bft) 96,23 %
22.08.2016 10:20 15,6 C 81 % 1026,5 hPa 0,0 l/m 5,1 km/h (1 Bft) SW 226 0 min 0,000 mm 0,5 UV-I 93 W/m 12,3 C 15,6 C 9,7 km/h (2 Bft) 97,37 %
22.08.2016 10:22 15,6 C 81 % 1026,5 hPa 0,0 l/m 4,1 km/h (1 Bft) NW 317 0 min 0,000 mm 0,5 UV-I 86 W/m 12,3 C 15,6 C 6,4 km/h (2 Bft) 100,00 %
22.08.2016 10:24 15,6 C 81 % 1026,5 hPa 0,0 l/m 2,8 km/h (1 Bft) W 265 0 min 0,000 mm 0,6 UV-I 97 W/m 12,3 C 15,6 C 6,4 km/h (2 Bft) 97,87 %
22.08.2016 10:26 15,5 C 81 % 1026,5 hPa 0,0 l/m 4,3 km/h (1 Bft) W 279 0 min 0,000 mm 0,6 UV-I 100 W/m 12,3 C 15,5 C 9,7 km/h (2 Bft) 97,87 %
22.08.2016 10:28 15,4 C 80 % 1026,5 hPa 0,0 l/m 8,0 km/h (2 Bft) W 261 0 min 0,000 mm 0,6 UV-I 97 W/m 12,0 C 14,5 C 12,9 km/h (3 Bft) 100,00 %
22.08.2016 10:30 15,4 C 81 % 1026,6 hPa 0,0 l/m 6,5 km/h (2 Bft) W-NW 299 0 min 0,000 mm 0,6 UV-I 108 W/m 12,2 C 15,4 C 11,3 km/h (2 Bft) 97,62 %
22.08.2016 10:32 15,4 C 82 % 1026,6 hPa 0,0 l/m 5,0 km/h (1 Bft) W-SW 248 0 min 0,000 mm 0,6 UV-I 113 W/m 12,3 C 15,4 C 9,7 km/h (2 Bft) 98,08 %
22.08.2016 10:34 15,4 C 82 % 1026,6 hPa 0,0 l/m 5,0 km/h (1 Bft) W 277 0 min 0,000 mm 0,7 UV-I 121 W/m 12,3 C 15,4 C 11,3 km/h (2 Bft) 100,00 %
22.08.2016 10:36 15,5 C 82 % 1026,6 hPa 0,0 l/m 5,3 km/h (1 Bft) SW 234 0 min 0,000 mm 0,8 UV-I 134 W/m 12,4 C 15,5 C 6,4 km/h (2 Bft) 97,87 %
22.08.2016 10:38 15,5 C 81 % 1026,7 hPa 0,0 l/m 3,9 km/h (1 Bft) W-SW 250 0 min 0,000 mm 0,7 UV-I 131 W/m 12,3 C 15,5 C 6,4 km/h (2 Bft) 98,00 %
22.08.2016 10:40 15,5 C 81 % 1026,6 hPa 0,0 l/m 4,7 km/h (1 Bft) W 259 0 min 0,000 mm 1,0 UV-I 174 W/m 12,3 C 15,5 C 11,3 km/h (2 Bft) 100,00 %
22.08.2016 10:42 15,5 C 81 % 1026,7 hPa 0,0 l/m 5,8 km/h (2 Bft) W 261 0 min 0,000 mm 1,1 UV-I 191 W/m 12,3 C 15,5 C 11,3 km/h (2 Bft) 100,00 %
22.08.2016 10:44 15,6 C 81 % 1026,7 hPa 0,0 l/m 4,8 km/h (1 Bft) W 261 0 min 0,000 mm 0,9 UV-I 153 W/m 12,3 C 15,6 C 8,0 km/h (2 Bft) 100,00 %
22.08.2016 10:46 15,6 C 81 % 1026,7 hPa 0,0 l/m 3,4 km/h (1 Bft) W-NW 291 0 min 0,000 mm 0,9 UV-I 145 W/m 12,3 C 15,6 C 11,3 km/h (2 Bft) 100,00 %
22.08.2016 10:48 15,6 C 81 % 1026,7 hPa 0,0 l/m 3,2 km/h (1 Bft) W 281 0 min 0,000 mm 0,7 UV-I 120 W/m 12,3 C 15,6 C 9,7 km/h (2 Bft) 100,00 %
22.08.2016 10:50 15,6 C 80 % 1026,7 hPa 0,0 l/m 5,1 km/h (1 Bft) W-SW 242 0 min 0,000 mm 0,6 UV-I 99 W/m 12,2 C 15,6 C 11,3 km/h (2 Bft) 100,00 %
22.08.2016 10:52 15,6 C 81 % 1026,7 hPa 0,0 l/m 5,4 km/h (1 Bft) SW 225 0 min 0,000 mm 0,7 UV-I 124 W/m 12,3 C 15,6 C 12,9 km/h (3 Bft) 100,00 %
22.08.2016 10:54 15,6 C 81 % 1026,7 hPa 0,0 l/m 5,3 km/h (1 Bft) W-SW 239 0 min 0,000 mm 1,2 UV-I 196 W/m 12,3 C 15,6 C 9,7 km/h (2 Bft) 100,00 %
22.08.2016 10:56 15,6 C 81 % 1026,7 hPa 0,0 l/m 4,0 km/h (1 Bft) W-SW 240 0 min 0,000 mm 1,3 UV-I 217 W/m 12,3 C 15,6 C 6,4 km/h (2 Bft) 100,00 %
22.08.2016 10:58 15,7 C 83 % 1026,7 hPa 0,0 l/m 2,5 km/h (1 Bft) W-SW 242 0 min 0,000 mm 0,9 UV-I 160 W/m 12,8 C 15,7 C 4,8 km/h (1 Bft) 100,00 %
22.08.2016 11:00 15,8 C 82 % 1026,7 hPa 0,0 l/m 3,3 km/h (1 Bft) W 262 0 min 0,102 mm 0,9 UV-I 149 W/m 12,7 C 15,8 C 4,8 km/h (1 Bft) 100,00 %
22.08.2016 11:02 15,8 C 81 % 1026,7 hPa 0,0 l/m 5,9 km/h (2 Bft) W-SW 257 0 min 0,000 mm 1,1 UV-I 189 W/m 12,5 C 15,8 C 9,7 km/h (2 Bft) 100,00 %
22.08.2016 11:04 15,8 C 81 % 1026,7 hPa 0,0 l/m 4,7 km/h (1 Bft) W-SW 256 0 min 0,000 mm 1,2 UV-I 195 W/m 12,5 C 15,8 C 12,9 km/h (3 Bft) 97,87 %
22.08.2016 11:06 15,9 C 81 % 1026,7 hPa 0,0 l/m 8,1 km/h (2 Bft) W-SW 254 0 min 0,000 mm 1,1 UV-I 185 W/m 12,6 C 15,0 C 12,9 km/h (3 Bft) 97,87 %
22.08.2016 11:08 15,9 C 80 % 1026,7 hPa 0,0 l/m 5,4 km/h (1 Bft) W-SW 257 0 min 0,000 mm 1,4 UV-I 222 W/m 12,5 C 15,9 C 9,7 km/h (2 Bft) 97,22 %
22.08.2016 11:10 16,0 C 81 % 1026,7 hPa 0,0 l/m 5,5 km/h (1 Bft) W 271 0 min 0,000 mm 1,6 UV-I 256 W/m 12,7 C 16,0 C 12,9 km/h (3 Bft) 98,28 %
22.08.2016 11:12 16,1 C 81 % 1026,6 hPa 0,0 l/m 5,8 km/h (2 Bft) W-SW 246 0 min 0,000 mm 1,5 UV-I 250 W/m 12,8 C 16,1 C 9,7 km/h (2 Bft) 98,00 %
22.08.2016 11:14 16,2 C 81 % 1026,7 hPa 0,0 l/m 5,3 km/h (1 Bft) SW 222 0 min 0,000 mm 1,5 UV-I 243 W/m 12,9 C 16,2 C 11,3 km/h (2 Bft) 97,44 %
22.08.2016 11:16 16,3 C 81 % 1026,7 hPa 0,0 l/m 5,5 km/h (1 Bft) W-NW 286 0 min 0,000 mm 1,4 UV-I 225 W/m 13,0 C 16,3 C 9,7 km/h (2 Bft) 96,23 %
22.08.2016 11:18 16,3 C 79 % 1026,7 hPa 0,0 l/m 8,8 km/h (2 Bft) S-SW 212 0 min 0,000 mm 1,4 UV-I 212 W/m 12,6 C 15,1 C 12,9 km/h (3 Bft) 100,00 %
22.08.2016 11:20 16,3 C 80 % 1026,7 hPa 0,0 l/m 5,4 km/h (1 Bft) W-SW 250 0 min 0,000 mm 1,3 UV-I 201 W/m 12,8 C 16,3 C 9,7 km/h (2 Bft) 95,74 %
22.08.2016 11:22 16,3 C 81 % 1026,7 hPa 0,0 l/m 6,6 km/h (2 Bft) W-SW 254 0 min 0,000 mm 1,5 UV-I 224 W/m 13,0 C 16,2 C 16,1 km/h (3 Bft) 97,37 %
22.08.2016 11:24 16,3 C 79 % 1026,7 hPa 0,0 l/m 5,6 km/h (1 Bft) NW 305 0 min 0,000 mm 1,8 UV-I 264 W/m 12,6 C 16,3 C 11,3 km/h (2 Bft) 96,23 %
22.08.2016 11:26 16,3 C 80 % 1026,6 hPa 0,0 l/m 6,3 km/h (2 Bft) W-SW 252 0 min 0,000 mm 2,0 UV-I 300 W/m 12,8 C 16,3 C 14,5 km/h (3 Bft) 98,31 %
22.08.2016 11:28 16,3 C 81 % 1026,6 hPa 0,0 l/m 6,1 km/h (2 Bft) W 273 0 min 0,000 mm 2,0 UV-I 298 W/m 13,0 C 16,3 C 14,5 km/h (3 Bft) 97,14 %
22.08.2016 11:30 16,4 C 80 % 1026,6 hPa 0,0 l/m 3,7 km/h (1 Bft) W 259 0 min 0,000 mm 1,6 UV-I 260 W/m 12,9 C 16,4 C 12,9 km/h (3 Bft) 98,21 %
22.08.2016 11:32 16,4 C 79 % 1026,6 hPa 0,0 l/m 7,8 km/h (2 Bft) W 273 0 min 0,000 mm 2,0 UV-I 293 W/m 12,7 C 15,7 C 16,1 km/h (3 Bft) 96,00 %
22.08.2016 11:34 16,5 C 80 % 1026,6 hPa 0,0 l/m 5,8 km/h (2 Bft) W 263 2 min 0,000 mm 2,6 UV-I 426 W/m 13,0 C 16,5 C 12,9 km/h (3 Bft) 100,00 %
22.08.2016 11:36 16,7 C 80 % 1026,5 hPa 0,0 l/m 3,5 km/h (1 Bft) S-SW 194 2 min 0,000 mm 3,0 UV-I 454 W/m 13,2 C 16,7 C 6,4 km/h (2 Bft) 97,87 %
22.08.2016 11:38 16,9 C 81 % 1026,5 hPa 0,0 l/m 6,3 km/h (2 Bft) S 188 2 min 0,000 mm 3,2 UV-I 499 W/m 13,6 C 16,9 C 12,9 km/h (3 Bft) 100,00 %
22.08.2016 11:40 16,9 C 77 % 1026,5 hPa 0,0 l/m 7,8 km/h (2 Bft) N-NW 333 2 min 0,000 mm 3,2 UV-I 520 W/m 12,8 C 16,2 C 22,5 km/h (4 Bft) 100,00 %
22.08.2016 11:42 16,9 C 78 % 1026,6 hPa 0,0 l/m 6,1 km/h (2 Bft) W-SW 250 2 min 0,000 mm 3,4 UV-I 593 W/m 13,0 C 16,9 C 12,9 km/h (3 Bft) 98,00 %
22.08.2016 11:44 17,1 C 78 % 1026,5 hPa 0,0 l/m 8,8 km/h (2 Bft) W 261 2 min 0,000 mm 3,4 UV-I 564 W/m 13,2 C 15,9 C 14,5 km/h (3 Bft) 100,00 %
22.08.2016 11:46 17,2 C 78 % 1026,5 hPa 0,0 l/m 4,4 km/h (1 Bft) NW 306 2 min 0,000 mm 3,1 UV-I 500 W/m 13,3 C 17,2 C 12,9 km/h (3 Bft) 100,00 %
22.08.2016 11:48 17,3 C 77 % 1026,5 hPa 0,0 l/m 3,5 km/h (1 Bft) SW 219 0 min 0,000 mm 2,5 UV-I 380 W/m 13,2 C 17,3 C 6,4 km/h (2 Bft) 98,11 %
22.08.2016 11:50 17,3 C 79 % 1026,5 hPa 0,0 l/m 9,5 km/h (2 Bft) SW 232 0 min 0,000 mm 2,6 UV-I 381 W/m 13,6 C 15,9 C 17,7 km/h (3 Bft) 100,00 %
22.08.2016 11:52 17,3 C 77 % 1026,5 hPa 0,0 l/m 11,0 km/h (2 Bft) W-SW 237 0 min 0,000 mm 2,8 UV-I 400 W/m 13,2 C 15,3 C 16,1 km/h (3 Bft) 100,00 %
22.08.2016 11:54 17,2 C 76 % 1026,5 hPa 0,0 l/m 9,2 km/h (2 Bft) W 265 0 min 0,000 mm 2,8 UV-I 395 W/m 12,9 C 15,9 C 19,3 km/h (3 Bft) 100,00 %
22.08.2016 11:56 17,1 C 76 % 1026,5 hPa 0,0 l/m 14,6 km/h (3 Bft) W-SW 254 0 min 0,000 mm 2,7 UV-I 382 W/m 12,8 C 13,9 C 27,4 km/h (4 Bft) 96,30 %
22.08.2016 11:58 16,9 C 76 % 1026,5 hPa 0,0 l/m 10,8 km/h (2 Bft) W-SW 258 0 min 0,000 mm 2,7 UV-I 372 W/m 12,6 C 14,9 C 19,3 km/h (3 Bft) 100,00 %
22.08.2016 12:00 16,9 C 76 % 1026,5 hPa 0,0 l/m 13,5 km/h (3 Bft) W-SW 245 0 min 0,203 mm 3,0 UV-I 413 W/m 12,6 C 14,0 C 19,3 km/h (3 Bft) 100,00 %
22.08.2016 12:02 16,9 C 77 % 1026,4 hPa 0,0 l/m 8,8 km/h (2 Bft) NO 36 2 min 0,000 mm 3,3 UV-I 445 W/m 12,8 C 15,7 C 20,9 km/h (4 Bft) 97,56 %
22.08.2016 12:04 17,2 C 78 % 1026,5 hPa 0,0 l/m 5,6 km/h (1 Bft) SW 223 2 min 0,000 mm 3,5 UV-I 498 W/m 13,3 C 17,2 C 12,9 km/h (3 Bft) 100,00 %
22.08.2016 12:06 17,3 C 77 % 1026,5 hPa 0,0 l/m 7,7 km/h (2 Bft) W 263 2 min 0,000 mm 3,6 UV-I 533 W/m 13,2 C 16,7 C 11,3 km/h (2 Bft) 100,00 %
22.08.2016 12:08 17,5 C 77 % 1026,5 hPa 0,0 l/m 9,3 km/h (2 Bft) W-SW 252 2 min 0,000 mm 3,6 UV-I 541 W/m 13,4 C 16,2 C 19,3 km/h (3 Bft) 100,00 %
22.08.2016 12:10 17,5 C 76 % 1026,5 hPa 0,0 l/m 12,8 km/h (3 Bft) W 262 2 min 0,000 mm 3,2 UV-I 428 W/m 13,2 C 14,9 C 19,3 km/h (3 Bft) 100,00 %
22.08.2016 12:12 17,4 C 75 % 1026,5 hPa 0,0 l/m 11,7 km/h (2 Bft) W-SW 248 0 min 0,000 mm 2,8 UV-I 375 W/m 12,9 C 15,1 C 19,3 km/h (3 Bft) 100,00 %
22.08.2016 12:14 17,2 C 75 % 1026,5 hPa 0,0 l/m 13,8 km/h (3 Bft) SW 226 0 min 0,000 mm 2,8 UV-I 366 W/m 12,7 C 14,2 C 22,5 km/h (4 Bft) 98,11 %
22.08.2016 12:16 17,1 C 77 % 1026,4 hPa 0,0 l/m 11,0 km/h (2 Bft) W 263 0 min 0,000 mm 3,3 UV-I 416 W/m 13,0 C 15,1 C 19,3 km/h (3 Bft) 100,00 %
22.08.2016 12:18 17,2 C 79 % 1026,5 hPa 0,0 l/m 9,8 km/h (2 Bft) W-SW 256 2 min 0,000 mm 4,4 UV-I 474 W/m 13,5 C 15,6 C 17,7 km/h (3 Bft) 100,00 %
22.08.2016 12:20 17,5 C 78 % 1026,4 hPa 0,0 l/m 14,2 km/h (3 Bft) W-SW 243 2 min 0,000 mm 4,7 UV-I 784 W/m 13,6 C 14,5 C 19,3 km/h (3 Bft) 100,00 %
22.08.2016 12:22 17,6 C 76 % 1026,4 hPa 0,0 l/m 12,1 km/h (2 Bft) W-SW 244 2 min 0,000 mm 4,7 UV-I 669 W/m 13,3 C 15,2 C 19,3 km/h (3 Bft) 100,00 %
22.08.2016 12:24 17,5 C 75 % 1026,4 hPa 0,0 l/m 13,9 km/h (3 Bft) W-SW 256 2 min 0,000 mm 4,8 UV-I 726 W/m 13,0 C 14,5 C 24,1 km/h (4 Bft) 100,00 %
22.08.2016 12:26 17,6 C 75 % 1026,3 hPa 0,0 l/m 11,1 km/h (2 Bft) SW 235 2 min 0,000 mm 5,5 UV-I 834 W/m 13,1 C 15,6 C 19,3 km/h (3 Bft) 100,00 %
22.08.2016 12:28 17,7 C 76 % 1026,4 hPa 0,0 l/m 8,6 km/h (2 Bft) W 259 2 min 0,000 mm 5,4 UV-I 995 W/m 13,4 C 16,7 C 14,5 km/h (3 Bft) 100,00 %
22.08.2016 12:30 17,9 C 75 % 1026,4 hPa 0,0 l/m 15,3 km/h (3 Bft) W-SW 250 2 min 0,000 mm 4,3 UV-I 984 W/m 13,4 C 14,6 C 22,5 km/h (4 Bft) 100,00 %
22.08.2016 12:32 17,9 C 75 % 1026,4 hPa 0,0 l/m 14,2 km/h (3 Bft) SW 231 2 min 0,000 mm 5,7 UV-I 989 W/m 13,4 C 14,9 C 22,5 km/h (4 Bft) 100,00 %
22.08.2016 12:34 18,1 C 76 % 1026,4 hPa 0,0 l/m 12,2 km/h (2 Bft) SW 220 2 min 0,000 mm 5,6 UV-I 971 W/m 13,8 C 15,8 C 22,5 km/h (4 Bft) 98,08 %
22.08.2016 12:36 18,3 C 73 % 1026,3 hPa 0,0 l/m 18,5 km/h (3 Bft) W 261 2 min 0,000 mm 5,5 UV-I 922 W/m 13,4 C 14,3 C 27,4 km/h (4 Bft) 97,62 %
22.08.2016 12:38 18,4 C 73 % 1026,3 hPa 0,0 l/m 19,7 km/h (3 Bft) W-SW 248 2 min 0,000 mm 5,5 UV-I 894 W/m 13,5 C 14,2 C 25,7 km/h (4 Bft) 100,00 %
22.08.2016 12:40 18,5 C 74 % 1026,3 hPa 0,0 l/m 12,5 km/h (3 Bft) W 270 2 min 0,000 mm 5,3 UV-I 930 W/m 13,8 C 16,1 C 22,5 km/h (4 Bft) 97,87 %
22.08.2016 12:42 18,4 C 72 % 1026,4 hPa 0,0 l/m 13,9 km/h (3 Bft) W 270 2 min 0,000 mm 4,8 UV-I 930 W/m 13,3 C 15,6 C 19,3 km/h (3 Bft) 100,00 %
22.08.2016 12:44 18,3 C 73 % 1026,3 hPa 0,0 l/m 12,3 km/h (3 Bft) W 280 2 min 0,000 mm 5,1 UV-I 930 W/m 13,4 C 16,0 C 20,9 km/h (4 Bft) 100,00 %
22.08.2016 12:46 18,1 C 74 % 1026,3 hPa 0,0 l/m 11,2 km/h (2 Bft) S-SW 194 2 min 0,000 mm 3,9 UV-I 930 W/m 13,4 C 16,1 C 22,5 km/h (4 Bft) 100,00 %
22.08.2016 12:48 18,2 C 75 % 1026,3 hPa 0,0 l/m 10,5 km/h (2 Bft) SW 229 2 min 0,000 mm 5,5 UV-I 923 W/m 13,7 C 16,5 C 16,1 km/h (3 Bft) 100,00 %
22.08.2016 12:50 18,3 C 74 % 1026,3 hPa 0,0 l/m 18,8 km/h (3 Bft) W-SW 253 2 min 0,000 mm 5,6 UV-I 858 W/m 13,6 C 14,3 C 30,6 km/h (5 Bft) 100,00 %
22.08.2016 12:52 18,3 C 73 % 1026,2 hPa 0,0 l/m 16,1 km/h (3 Bft) W-SW 244 2 min 0,000 mm 5,5 UV-I 825 W/m 13,4 C 14,9 C 22,5 km/h (4 Bft) 95,74 %
22.08.2016 12:54 18,2 C 73 % 1026,2 hPa 0,0 l/m 17,1 km/h (3 Bft) W 266 2 min 0,000 mm 5,5 UV-I 828 W/m 13,3 C 14,5 C 27,4 km/h (4 Bft) 100,00 %
22.08.2016 12:56 18,3 C 73 % 1026,2 hPa 0,0 l/m 7,8 km/h (2 Bft) W-NW 289 2 min 0,000 mm 5,5 UV-I 831 W/m 13,4 C 17,7 C 16,1 km/h (3 Bft) 96,43 %
22.08.2016 12:58 18,5 C 74 % 1026,2 hPa 0,0 l/m 9,5 km/h (2 Bft) S 175 2 min 0,000 mm 5,5 UV-I 836 W/m 13,8 C 17,2 C 14,5 km/h (3 Bft) 100,00 %
22.08.2016 13:00 18,7 C 75 % 1026,2 hPa 0,0 l/m 12,1 km/h (2 Bft) SW 225 2 min 0,432 mm 5,4 UV-I 866 W/m 14,2 C 16,5 C 20,9 km/h (4 Bft) 96,97 %
22.08.2016 13:02 18,8 C 71 % 1026,2 hPa 0,0 l/m 15,3 km/h (3 Bft) W 259 2 min 0,000 mm 5,4 UV-I 877 W/m 13,4 C 15,7 C 25,7 km/h (4 Bft) 97,01 %
22.08.2016 13:04 18,6 C 71 % 1026,3 hPa 0,0 l/m 18,2 km/h (3 Bft) N 360 2 min 0,000 mm 5,7 UV-I 888 W/m 13,2 C 14,8 C 29,0 km/h (5 Bft) 97,87 %
22.08.2016 13:06 18,6 C 71 % 1026,3 hPa 0,0 l/m 16,6 km/h (3 Bft) W 276 2 min 0,000 mm 5,7 UV-I 892 W/m 13,2 C 15,2 C 22,5 km/h (4 Bft) 97,44 %
22.08.2016 13:08 18,4 C 72 % 1026,3 hPa 0,0 l/m 18,5 km/h (3 Bft) W-SW 250 2 min 0,000 mm 5,8 UV-I 897 W/m 13,3 C 14,5 C 27,4 km/h (4 Bft) 96,15 %
22.08.2016 13:10 18,4 C 72 % 1026,2 hPa 0,0 l/m 12,5 km/h (3 Bft) S-SW 205 2 min 0,000 mm 5,7 UV-I 943 W/m 13,3 C 16,0 C 20,9 km/h (4 Bft) 96,23 %
22.08.2016 13:12 18,6 C 72 % 1026,3 hPa 0,0 l/m 11,1 km/h (2 Bft) W-SW 245 2 min 0,000 mm 5,6 UV-I 729 W/m 13,4 C 16,7 C 22,5 km/h (4 Bft) 97,44 %
22.08.2016 13:14 18,8 C 72 % 1026,3 hPa 0,0 l/m 14,1 km/h (3 Bft) NW 305 2 min 0,000 mm 5,7 UV-I 818 W/m 13,6 C 16,0 C 22,5 km/h (4 Bft) 98,00 %
22.08.2016 13:16 18,9 C 70 % 1026,3 hPa 0,0 l/m 7,4 km/h (2 Bft) S-SW 205 2 min 0,000 mm 4,8 UV-I 1035 W/m 13,3 C 18,5 C 17,7 km/h (3 Bft) 96,23 %
22.08.2016 13:18 19,1 C 73 % 1026,2 hPa 0,0 l/m 8,8 km/h (2 Bft) W-NW 283 2 min 0,000 mm 5,6 UV-I 894 W/m 14,1 C 18,1 C 16,1 km/h (3 Bft) 97,87 %
22.08.2016 13:20 19,3 C 75 % 1026,2 hPa 0,0 l/m 6,0 km/h (2 Bft) W-SW 246 2 min 0,000 mm 4,9 UV-I 981 W/m 14,8 C 19,3 C 12,9 km/h (3 Bft) 100,00 %
22.08.2016 13:22 19,2 C 70 % 1026,2 hPa 0,0 l/m 15,2 km/h (3 Bft) W-SW 238 2 min 0,000 mm 3,5 UV-I 511 W/m 13,6 C 16,2 C 20,9 km/h (4 Bft) 94,64 %
22.08.2016 13:24 18,8 C 71 % 1026,2 hPa 0,0 l/m 14,3 km/h (3 Bft) W-SW 248 0 min 0,000 mm 2,9 UV-I 376 W/m 13,4 C 16,0 C 27,4 km/h (4 Bft) 97,37 %
22.08.2016 13:26 18,4 C 72 % 1026,3 hPa 0,0 l/m 12,2 km/h (2 Bft) W 261 0 min 0,000 mm 2,6 UV-I 316 W/m 13,3 C 16,1 C 19,3 km/h (3 Bft) 98,11 %
22.08.2016 13:28 18,2 C 73 % 1026,2 hPa 0,0 l/m 12,8 km/h (3 Bft) W 261 0 min 0,000 mm 2,5 UV-I 312 W/m 13,3 C 15,7 C 22,5 km/h (4 Bft) 98,00 %
22.08.2016 13:30 18,1 C 73 % 1026,2 hPa 0,0 l/m 10,6 km/h (2 Bft) NW 311 0 min 0,000 mm 2,5 UV-I 316 W/m 13,2 C 16,3 C 19,3 km/h (3 Bft) 98,00 %
22.08.2016 13:32 18,0 C 73 % 1026,3 hPa 0,0 l/m 10,1 km/h (2 Bft) W-SW 245 0 min 0,000 mm 2,4 UV-I 293 W/m 13,1 C 16,4 C 16,1 km/h (3 Bft) 100,00 %
22.08.2016 13:34 18,0 C 74 % 1026,3 hPa 0,0 l/m 11,7 km/h (2 Bft) SW 235 0 min 0,000 mm 2,3 UV-I 287 W/m 13,3 C 15,8 C 22,5 km/h (4 Bft) 100,00 %
22.08.2016 13:36 17,9 C 72 % 1026,3 hPa 0,0 l/m 10,0 km/h (2 Bft) N-NW 331 0 min 0,000 mm 2,6 UV-I 353 W/m 12,8 C 16,3 C 20,9 km/h (4 Bft) 100,00 %
22.08.2016 13:38 17,9 C 74 % 1026,2 hPa 0,0 l/m 9,2 km/h (2 Bft) W 263 0 min 0,000 mm 2,5 UV-I 355 W/m 13,2 C 16,6 C 16,1 km/h (3 Bft) 97,87 %
22.08.2016 13:40 17,9 C 74 % 1026,2 hPa 0,0 l/m 11,1 km/h (2 Bft) W-SW 237 0 min 0,000 mm 2,3 UV-I 312 W/m 13,2 C 15,9 C 17,7 km/h (3 Bft) 100,00 %
22.08.2016 13:42 17,9 C 72 % 1026,2 hPa 0,0 l/m 11,4 km/h (2 Bft) W 263 0 min 0,000 mm 2,5 UV-I 329 W/m 12,8 C 15,8 C 19,3 km/h (3 Bft) 100,00 %
22.08.2016 13:44 18,0 C 73 % 1026,2 hPa 0,0 l/m 10,5 km/h (2 Bft) W-SW 253 0 min 0,000 mm 3,0 UV-I 344 W/m 13,1 C 16,2 C 16,1 km/h (3 Bft) 100,00 %
22.08.2016 13:46 18,2 C 73 % 1026,2 hPa 0,0 l/m 7,6 km/h (2 Bft) W-SW 253 0 min 0,000 mm 3,3 UV-I 383 W/m 13,3 C 17,6 C 14,5 km/h (3 Bft) 100,00 %
22.08.2016 13:48 18,4 C 74 % 1026,1 hPa 0,0 l/m 9,7 km/h (2 Bft) W-SW 257 2 min 0,000 mm 5,6 UV-I 792 W/m 13,7 C 17,0 C 17,7 km/h (3 Bft) 96,00 %
22.08.2016 13:50 18,8 C 73 % 1026,1 hPa 0,0 l/m 10,9 km/h (2 Bft) W-SW 256 2 min 0,000 mm 5,6 UV-I 979 W/m 13,9 C 17,0 C 16,1 km/h (3 Bft) 98,00 %
22.08.2016 13:52 18,9 C 72 % 1026,1 hPa 0,0 l/m 5,8 km/h (2 Bft) SW 227 2 min 0,000 mm 4,5 UV-I 983 W/m 13,7 C 18,9 C 12,9 km/h (3 Bft) 100,00 %
22.08.2016 13:54 19,1 C 71 % 1026,1 hPa 0,0 l/m 8,6 km/h (2 Bft) W-SW 256 2 min 0,000 mm 5,3 UV-I 918 W/m 13,7 C 18,2 C 16,1 km/h (3 Bft) 100,00 %
22.08.2016 13:56 19,3 C 71 % 1026,0 hPa 0,0 l/m 10,3 km/h (2 Bft) SW 227 2 min 0,000 mm 5,3 UV-I 860 W/m 13,9 C 17,8 C 17,7 km/h (3 Bft) 100,00 %
22.08.2016 13:58 19,4 C 68 % 1026,0 hPa 0,0 l/m 14,4 km/h (3 Bft) W 274 2 min 0,000 mm 5,3 UV-I 875 W/m 13,3 C 16,7 C 20,9 km/h (4 Bft) 100,00 %
22.08.2016 14:00 19,5 C 70 % 1026,0 hPa 0,0 l/m 3,8 km/h (1 Bft) W 273 2 min 0,406 mm 5,2 UV-I 881 W/m 13,9 C 19,5 C 11,3 km/h (2 Bft) 97,37 %
22.08.2016 14:02 19,6 C 67 % 1025,9 hPa 0,0 l/m 11,1 km/h (2 Bft) W-SW 248 2 min 0,000 mm 4,7 UV-I 888 W/m 13,3 C 17,8 C 19,3 km/h (3 Bft) 100,00 %
22.08.2016 14:04 19,2 C 67 % 1025,8 hPa 0,0 l/m 14,9 km/h (3 Bft) W 276 2 min 0,000 mm 3,2 UV-I 463 W/m 12,9 C 16,3 C 20,9 km/h (4 Bft) 100,00 %
22.08.2016 14:06 18,8 C 68 % 1025,8 hPa 0,0 l/m 8,4 km/h (2 Bft) SW 216 0 min 0,000 mm 3,1 UV-I 324 W/m 12,8 C 17,9 C 16,1 km/h (3 Bft) 100,00 %
22.08.2016 14:08 18,9 C 72 % 1025,8 hPa 0,0 l/m 10,7 km/h (2 Bft) W-SW 238 0 min 0,000 mm 4,8 UV-I 373 W/m 13,7 C 17,2 C 17,7 km/h (3 Bft) 100,00 %
22.08.2016 14:10 19,3 C 72 % 1025,9 hPa 0,0 l/m 12,4 km/h (3 Bft) W-SW 258 2 min 0,000 mm 4,9 UV-I 999 W/m 14,1 C 17,1 C 19,3 km/h (3 Bft) 100,00 %
22.08.2016 14:12 19,3 C 69 % 1025,8 hPa 0,0 l/m 11,9 km/h (2 Bft) W-SW 254 2 min 0,000 mm 4,4 UV-I 568 W/m 13,5 C 17,3 C 20,9 km/h (4 Bft) 100,00 %
22.08.2016 14:14 19,4 C 69 % 1025,8 hPa 0,0 l/m 10,6 km/h (2 Bft) SW 236 2 min 0,000 mm 3,8 UV-I 568 W/m 13,6 C 17,8 C 14,5 km/h (3 Bft) 100,00 %
22.08.2016 14:16 19,4 C 71 % 1025,9 hPa 0,0 l/m 7,7 km/h (2 Bft) SW 235 2 min 0,000 mm 3,4 UV-I 458 W/m 14,0 C 18,8 C 12,9 km/h (3 Bft) 100,00 %
22.08.2016 14:18 19,4 C 69 % 1025,9 hPa 0,0 l/m 14,8 km/h (3 Bft) NW 323 0 min 0,000 mm 5,0 UV-I 373 W/m 13,6 C 16,6 C 25,7 km/h (4 Bft) 100,00 %
22.08.2016 14:20 19,5 C 68 % 1025,8 hPa 0,0 l/m 9,6 km/h (2 Bft) SW 225 0 min 0,000 mm 4,8 UV-I 404 W/m 13,4 C 18,2 C 16,1 km/h (3 Bft) 100,00 %
22.08.2016 14:22 19,5 C 69 % 1025,9 hPa 0,0 l/m 9,3 km/h (2 Bft) W-SW 257 2 min 0,000 mm 3,6 UV-I 419 W/m 13,7 C 18,3 C 14,5 km/h (3 Bft) 100,00 %
22.08.2016 14:24 19,4 C 69 % 1025,9 hPa 0,0 l/m 7,0 km/h (2 Bft) W-SW 245 0 min 0,000 mm 3,2 UV-I 403 W/m 13,6 C 19,1 C 16,1 km/h (3 Bft) 97,73 %
22.08.2016 14:26 19,3 C 70 % 1025,9 hPa 0,0 l/m 7,7 km/h (2 Bft) W-NW 286 0 min 0,000 mm 3,1 UV-I 370 W/m 13,7 C 18,7 C 12,9 km/h (3 Bft) 100,00 %
22.08.2016 14:28 19,3 C 70 % 1025,8 hPa 0,0 l/m 8,4 km/h (2 Bft) SW 229 0 min 0,000 mm 3,0 UV-I 379 W/m 13,7 C 18,5 C 19,3 km/h (3 Bft) 100,00 %
22.08.2016 14:30 19,3 C 69 % 1025,9 hPa 0,0 l/m 8,5 km/h (2 Bft) SW 223 0 min 0,000 mm 2,8 UV-I 357 W/m 13,5 C 18,4 C 16,1 km/h (3 Bft) 100,00 %
22.08.2016 14:32 19,3 C 68 % 1025,9 hPa 0,0 l/m 10,7 km/h (2 Bft) W 272 0 min 0,000 mm 2,4 UV-I 316 W/m 13,2 C 17,6 C 22,5 km/h (4 Bft) 100,00 %
22.08.2016 14:34 19,3 C 68 % 1025,8 hPa 0,0 l/m 3,6 km/h (1 Bft) SW 226 0 min 0,000 mm 1,7 UV-I 220 W/m 13,2 C 19,3 C 9,7 km/h (2 Bft) 100,00 %
22.08.2016 14:36 19,1 C 68 % 1025,8 hPa 0,0 l/m 9,9 km/h (2 Bft) W-SW 246 0 min 0,000 mm 1,7 UV-I 206 W/m 13,1 C 17,7 C 16,1 km/h (3 Bft) 100,00 %
22.08.2016 14:38 19,0 C 69 % 1025,9 hPa 0,0 l/m 10,1 km/h (2 Bft) W-SW 242 0 min 0,000 mm 2,2 UV-I 214 W/m 13,2 C 17,5 C 16,1 km/h (3 Bft) 100,00 %
22.08.2016 14:40 19,0 C 68 % 1026,0 hPa 0,0 l/m 9,7 km/h (2 Bft) W 263 0 min 0,000 mm 2,9 UV-I 216 W/m 13,0 C 17,6 C 16,1 km/h (3 Bft) 100,00 %
22.08.2016 14:42 19,2 C 69 % 1026,0 hPa 0,0 l/m 8,7 km/h (2 Bft) W 276 2 min 0,000 mm 4,4 UV-I 682 W/m 13,4 C 18,2 C 16,1 km/h (3 Bft) 98,21 %
22.08.2016 14:44 19,5 C 70 % 1025,9 hPa 0,0 l/m 9,3 km/h (2 Bft) W 266 2 min 0,000 mm 4,4 UV-I 820 W/m 13,9 C 18,3 C 16,1 km/h (3 Bft) 100,00 %
22.08.2016 14:46 19,7 C 69 % 1025,9 hPa 0,0 l/m 10,0 km/h (2 Bft) W 265 2 min 0,000 mm 3,9 UV-I 810 W/m 13,8 C 18,3 C 19,3 km/h (3 Bft) 96,23 %
22.08.2016 14:48 19,8 C 70 % 1026,0 hPa 0,0 l/m 7,0 km/h (2 Bft) W-NW 290 2 min 0,000 mm 4,0 UV-I 810 W/m 14,2 C 19,6 C 17,7 km/h (3 Bft) 97,56 %
22.08.2016 14:50 20,1 C 66 % 1026,0 hPa 0,0 l/m 11,4 km/h (2 Bft) SW 234 2 min 0,000 mm 4,6 UV-I 839 W/m 13,5 C 18,3 C 19,3 km/h (3 Bft) 96,23 %
22.08.2016 14:52 20,2 C 67 % 1025,9 hPa 0,0 l/m 13,9 km/h (3 Bft) W 267 2 min 0,000 mm 4,5 UV-I 855 W/m 13,9 C 17,8 C 24,1 km/h (4 Bft) 97,92 %
22.08.2016 14:54 20,3 C 66 % 1026,0 hPa 0,0 l/m 11,5 km/h (2 Bft) W-SW 244 2 min 0,000 mm 4,6 UV-I 892 W/m 13,7 C 18,5 C 20,9 km/h (4 Bft) 97,56 %
22.08.2016 14:56 20,3 C 64 % 1025,9 hPa 0,0 l/m 22,8 km/h (4 Bft) S-SW 204 2 min 0,000 mm 4,7 UV-I 949 W/m 13,3 C 16,1 C 29,0 km/h (5 Bft) 97,73 %
22.08.2016 14:58 20,3 C 66 % 1025,9 hPa 0,0 l/m 15,1 km/h (3 Bft) NW 309 2 min 0,000 mm 4,5 UV-I 957 W/m 13,7 C 17,6 C 24,1 km/h (4 Bft) 98,00 %
22.08.2016 15:00 20,3 C 67 % 1026,0 hPa 0,0 l/m 14,2 km/h (3 Bft) W-NW 284 2 min 0,381 mm 4,4 UV-I 855 W/m 14,0 C 17,8 C 25,7 km/h (4 Bft) 98,00 %
22.08.2016 15:02 20,3 C 65 % 1026,0 hPa 0,0 l/m 18,4 km/h (3 Bft) SW 235 2 min 0,000 mm 4,4 UV-I 864 W/m 13,5 C 16,9 C 32,2 km/h (5 Bft) 96,08 %
22.08.2016 15:04 20,3 C 65 % 1026,0 hPa 0,0 l/m 15,2 km/h (3 Bft) W-NW 283 2 min 0,000 mm 3,7 UV-I 872 W/m 13,5 C 17,6 C 22,5 km/h (4 Bft) 97,87 %
22.08.2016 15:06 20,0 C 65 % 1025,9 hPa 0,0 l/m 15,8 km/h (3 Bft) W-SW 246 2 min 0,000 mm 2,9 UV-I 585 W/m 13,2 C 17,1 C 30,6 km/h (5 Bft) 100,00 %
22.08.2016 15:08 19,7 C 66 % 1025,9 hPa 0,0 l/m 16,1 km/h (3 Bft) W-SW 254 0 min 0,000 mm 2,7 UV-I 353 W/m 13,2 C 16,6 C 20,9 km/h (4 Bft) 96,61 %
22.08.2016 15:10 19,5 C 68 % 1025,9 hPa 0,0 l/m 10,8 km/h (2 Bft) W 270 0 min 0,000 mm 2,7 UV-I 377 W/m 13,4 C 17,8 C 19,3 km/h (3 Bft) 96,36 %
22.08.2016 15:12 19,4 C 66 % 1025,9 hPa 0,0 l/m 16,6 km/h (3 Bft) SW 225 2 min 0,000 mm 2,9 UV-I 392 W/m 12,9 C 16,1 C 25,7 km/h (4 Bft) 97,50 %
22.08.2016 15:14 19,2 C 65 % 1025,8 hPa 0,0 l/m 17,5 km/h (3 Bft) W-SW 255 0 min 0,000 mm 2,6 UV-I 332 W/m 12,5 C 15,7 C 29,0 km/h (5 Bft) 98,11 %
22.08.2016 15:16 19,1 C 65 % 1025,8 hPa 0,0 l/m 15,3 km/h (3 Bft) N-NW 327 0 min 0,000 mm 2,5 UV-I 321 W/m 12,4 C 16,1 C 22,5 km/h (4 Bft) 97,87 %
22.08.2016 15:18 19,0 C 65 % 1025,8 hPa 0,0 l/m 18,3 km/h (3 Bft) W-SW 253 0 min 0,000 mm 2,5 UV-I 344 W/m 12,3 C 15,3 C 29,0 km/h (5 Bft) 97,87 %
22.08.2016 15:20 18,9 C 65 % 1025,7 hPa 0,0 l/m 18,9 km/h (3 Bft) W-SW 240 0 min 0,000 mm 2,4 UV-I 342 W/m 12,2 C 15,0 C 25,7 km/h (4 Bft) 100,00 %
22.08.2016 15:22 18,8 C 65 % 1025,7 hPa 0,0 l/m 13,7 km/h (3 Bft) W 270 0 min 0,000 mm 2,5 UV-I 352 W/m 12,1 C 16,1 C 20,9 km/h (4 Bft) 100,00 %
22.08.2016 15:24 18,8 C 68 % 1025,7 hPa 0,0 l/m 11,4 km/h (2 Bft) W-SW 244 0 min 0,000 mm 2,5 UV-I 371 W/m 12,8 C 16,8 C 16,1 km/h (3 Bft) 98,11 %
22.08.2016 15:26 18,8 C 66 % 1025,7 hPa 0,0 l/m 16,3 km/h (3 Bft) W-SW 250 0 min 0,000 mm 2,5 UV-I 369 W/m 12,3 C 15,5 C 24,1 km/h (4 Bft) 97,87 %
22.08.2016 15:28 18,9 C 66 % 1025,7 hPa 0,0 l/m 13,6 km/h (3 Bft) W-SW 244 0 min 0,000 mm 2,5 UV-I 358 W/m 12,4 C 16,3 C 20,9 km/h (4 Bft) 97,87 %
22.08.2016 15:30 18,9 C 67 % 1025,6 hPa 0,0 l/m 9,6 km/h (2 Bft) W-SW 238 0 min 0,000 mm 2,5 UV-I 355 W/m 12,6 C 17,6 C 14,5 km/h (3 Bft) 97,87 %
22.08.2016 15:32 18,9 C 65 % 1025,6 hPa 0,0 l/m 16,5 km/h (3 Bft) SW 235 0 min 0,000 mm 2,3 UV-I 314 W/m 12,2 C 15,5 C 27,4 km/h (4 Bft) 100,00 %
22.08.2016 15:34 18,8 C 66 % 1025,7 hPa 0,0 l/m 13,6 km/h (3 Bft) W-NW 286 0 min 0,000 mm 2,4 UV-I 310 W/m 12,3 C 16,2 C 24,1 km/h (4 Bft) 98,11 %
22.08.2016 15:36 18,9 C 66 % 1025,7 hPa 0,0 l/m 17,5 km/h (3 Bft) W-SW 258 0 min 0,000 mm 3,1 UV-I 338 W/m 12,4 C 15,3 C 24,1 km/h (4 Bft) 100,00 %
22.08.2016 15:38 19,1 C 67 % 1025,7 hPa 0,0 l/m 12,7 km/h (3 Bft) W 278 0 min 0,000 mm 2,4 UV-I 338 W/m 12,8 C 16,8 C 22,5 km/h (4 Bft) 100,00 %
22.08.2016 15:40 19,2 C 67 % 1025,6 hPa 0,0 l/m 12,4 km/h (3 Bft) SW 230 0 min 0,000 mm 2,2 UV-I 293 W/m 12,9 C 17,0 C 17,7 km/h (3 Bft) 100,00 %
22.08.2016 15:42 19,1 C 67 % 1025,7 hPa 0,0 l/m 13,1 km/h (3 Bft) W-SW 246 0 min 0,000 mm 2,1 UV-I 291 W/m 12,8 C 16,7 C 22,5 km/h (4 Bft) 100,00 %
22.08.2016 15:44 19,1 C 67 % 1025,7 hPa 0,0 l/m 17,5 km/h (3 Bft) SW 233 0 min 0,000 mm 2,0 UV-I 298 W/m 12,8 C 15,6 C 25,7 km/h (4 Bft) 100,00 %
22.08.2016 15:46 19,1 C 67 % 1025,7 hPa 0,0 l/m 8,8 km/h (2 Bft) W-SW 255 0 min 0,000 mm 1,9 UV-I 296 W/m 12,8 C 18,1 C 16,1 km/h (3 Bft) 100,00 %
22.08.2016 15:48 19,1 C 67 % 1025,6 hPa 0,0 l/m 12,4 km/h (3 Bft) W 263 0 min 0,000 mm 1,9 UV-I 295 W/m 12,8 C 16,9 C 22,5 km/h (4 Bft) 100,00 %
22.08.2016 15:50 19,1 C 68 % 1025,7 hPa 0,0 l/m 12,2 km/h (2 Bft) W 266 0 min 0,000 mm 1,8 UV-I 294 W/m 13,1 C 16,9 C 19,3 km/h (3 Bft) 100,00 %
22.08.2016 15:52 19,0 C 67 % 1025,7 hPa 0,0 l/m 13,4 km/h (3 Bft) W-SW 237 0 min 0,000 mm 1,8 UV-I 293 W/m 12,7 C 16,5 C 20,9 km/h (4 Bft) 100,00 %
22.08.2016 15:54 19,0 C 68 % 1025,8 hPa 0,0 l/m 10,6 km/h (2 Bft) W 273 0 min 0,000 mm 1,8 UV-I 299 W/m 13,0 C 17,3 C 19,3 km/h (3 Bft) 100,00 %
22.08.2016 15:56 19,1 C 68 % 1025,8 hPa 0,0 l/m 10,4 km/h (2 Bft) W-SW 242 0 min 0,000 mm 1,9 UV-I 305 W/m 13,1 C 17,5 C 20,9 km/h (4 Bft) 100,00 %
22.08.2016 15:58 19,1 C 69 % 1025,8 hPa 0,0 l/m 8,0 km/h (2 Bft) W 259 0 min 0,000 mm 1,9 UV-I 331 W/m 13,3 C 18,4 C 14,5 km/h (3 Bft) 100,00 %
22.08.2016 16:00 19,2 C 68 % 1025,8 hPa 0,0 l/m 9,8 km/h (2 Bft) W-SW 254 2 min 0,280 mm 2,3 UV-I 353 W/m 13,1 C 17,8 C 12,9 km/h (3 Bft) 100,00 %
22.08.2016 16:02 19,4 C 68 % 1025,8 hPa 0,0 l/m 7,8 km/h (2 Bft) W-NW 291 2 min 0,000 mm 2,1 UV-I 390 W/m 13,3 C 18,8 C 16,1 km/h (3 Bft) 98,00 %
22.08.2016 16:04 19,5 C 69 % 1025,8 hPa 0,0 l/m 7,7 km/h (2 Bft) SW 228 2 min 0,000 mm 2,0 UV-I 383 W/m 13,7 C 18,9 C 12,9 km/h (3 Bft) 100,00 %
22.08.2016 16:06 19,6 C 68 % 1025,8 hPa 0,0 l/m 7,8 km/h (2 Bft) W 271 2 min 0,000 mm 2,0 UV-I 402 W/m 13,5 C 19,0 C 14,5 km/h (3 Bft) 100,00 %
22.08.2016 16:08 19,6 C 66 % 1025,8 hPa 0,0 l/m 17,2 km/h (3 Bft) W-SW 242 2 min 0,000 mm 2,0 UV-I 370 W/m 13,1 C 16,3 C 25,7 km/h (4 Bft) 100,00 %
22.08.2016 16:10 19,6 C 66 % 1025,9 hPa 0,0 l/m 8,8 km/h (2 Bft) W-SW 253 2 min 0,000 mm 1,9 UV-I 369 W/m 13,1 C 18,6 C 12,9 km/h (3 Bft) 100,00 %
22.08.2016 16:12 19,5 C 66 % 1025,9 hPa 0,0 l/m 9,2 km/h (2 Bft) SW 230 2 min 0,000 mm 1,8 UV-I 351 W/m 13,0 C 18,4 C 14,5 km/h (3 Bft) 98,00 %
22.08.2016 16:14 19,4 C 67 % 1025,9 hPa 0,0 l/m 8,4 km/h (2 Bft) W-NW 287 0 min 0,000 mm 1,7 UV-I 319 W/m 13,1 C 18,6 C 16,1 km/h (3 Bft) 100,00 %
22.08.2016 16:16 19,4 C 69 % 1025,9 hPa 0,0 l/m 9,2 km/h (2 Bft) W 260 0 min 0,000 mm 1,6 UV-I 294 W/m 13,6 C 18,3 C 14,5 km/h (3 Bft) 94,00 %
22.08.2016 16:18 19,4 C 67 % 1025,9 hPa 0,0 l/m 9,9 km/h (2 Bft) W-SW 255 0 min 0,000 mm 1,5 UV-I 280 W/m 13,1 C 18,0 C 14,5 km/h (3 Bft) 97,37 %
22.08.2016 16:20 19,4 C 67 % 1025,9 hPa 0,0 l/m 11,6 km/h (2 Bft) W 263 0 min 0,000 mm 1,4 UV-I 276 W/m 13,1 C 17,5 C 20,9 km/h (4 Bft) 98,11 %
22.08.2016 16:22 19,3 C 67 % 1025,9 hPa 0,0 l/m 5,2 km/h (1 Bft) N-NW 340 0 min 0,000 mm 1,4 UV-I 268 W/m 13,0 C 19,3 C 12,9 km/h (3 Bft) 100,00 %
22.08.2016 16:24 19,4 C 69 % 1025,9 hPa 0,0 l/m 3,9 km/h (1 Bft) W-SW 239 0 min 0,000 mm 1,3 UV-I 254 W/m 13,6 C 19,4 C 6,4 km/h (2 Bft) 100,00 %
22.08.2016 16:26 19,4 C 68 % 1025,9 hPa 0,0 l/m 6,7 km/h (2 Bft) SW 225 0 min 0,000 mm 1,3 UV-I 254 W/m 13,3 C 19,3 C 12,9 km/h (3 Bft) 100,00 %
22.08.2016 16:28 19,4 C 69 % 1025,9 hPa 0,0 l/m 7,2 km/h (2 Bft) SW 233 0 min 0,000 mm 1,3 UV-I 270 W/m 13,6 C 19,1 C 11,3 km/h (2 Bft) 100,00 %
22.08.2016 16:30 19,5 C 68 % 1026,0 hPa 0,0 l/m 8,2 km/h (2 Bft) W 259 0 min 0,000 mm 1,3 UV-I 290 W/m 13,4 C 18,7 C 17,7 km/h (3 Bft) 100,00 %
22.08.2016 16:32 19,5 C 69 % 1025,9 hPa 0,0 l/m 11,1 km/h (2 Bft) W-NW 294 2 min 0,000 mm 1,4 UV-I 316 W/m 13,7 C 17,7 C 22,5 km/h (4 Bft) 97,56 %
22.08.2016 16:34 19,6 C 67 % 1026,0 hPa 0,0 l/m 9,7 km/h (2 Bft) W-SW 240 2 min 0,000 mm 1,4 UV-I 327 W/m 13,3 C 18,3 C 20,9 km/h (4 Bft) 100,00 %
22.08.2016 16:36 19,6 C 65 % 1026,0 hPa 0,0 l/m 13,9 km/h (3 Bft) W-NW 287 2 min 0,000 mm 1,4 UV-I 333 W/m 12,8 C 17,0 C 20,9 km/h (4 Bft) 100,00 %
22.08.2016 16:38 19,6 C 66 % 1026,0 hPa 0,0 l/m 6,8 km/h (2 Bft) W-NW 282 2 min 0,000 mm 1,4 UV-I 338 W/m 13,1 C 19,4 C 16,1 km/h (3 Bft) 100,00 %
22.08.2016 16:40 19,7 C 66 % 1025,9 hPa 0,0 l/m 10,1 km/h (2 Bft) SW 214 2 min 0,000 mm 1,4 UV-I 326 W/m 13,2 C 18,3 C 17,7 km/h (3 Bft) 98,11 %
22.08.2016 16:42 19,7 C 67 % 1026,0 hPa 0,0 l/m 9,3 km/h (2 Bft) W-NW 284 2 min 0,000 mm 1,4 UV-I 330 W/m 13,4 C 18,6 C 17,7 km/h (3 Bft) 97,87 %
22.08.2016 16:44 19,8 C 66 % 1026,0 hPa 0,0 l/m 5,2 km/h (1 Bft) W-SW 257 2 min 0,000 mm 1,7 UV-I 449 W/m 13,3 C 19,8 C 11,3 km/h (2 Bft) 98,00 %
22.08.2016 16:46 20,2 C 68 % 1025,9 hPa 0,0 l/m 11,7 km/h (2 Bft) SW 225 2 min 0,000 mm 2,0 UV-I 618 W/m 14,1 C 18,3 C 22,5 km/h (4 Bft) 95,45 %
22.08.2016 16:48 20,4 C 65 % 1025,9 hPa 0,0 l/m 13,4 km/h (3 Bft) W-SW 252 2 min 0,000 mm 1,6 UV-I 530 W/m 13,6 C 18,1 C 20,9 km/h (4 Bft) 97,56 %
22.08.2016 16:50 20,3 C 63 % 1025,9 hPa 0,0 l/m 13,5 km/h (3 Bft) W-SW 254 2 min 0,000 mm 1,6 UV-I 366 W/m 13,0 C 18,0 C 17,7 km/h (3 Bft) 96,00 %
22.08.2016 16:52 20,3 C 64 % 1025,9 hPa 0,0 l/m 14,1 km/h (3 Bft) SW 234 2 min 0,000 mm 1,8 UV-I 488 W/m 13,3 C 17,8 C 25,7 km/h (4 Bft) 96,23 %
22.08.2016 16:54 20,3 C 63 % 1025,9 hPa 0,0 l/m 13,8 km/h (3 Bft) W-SW 250 2 min 0,000 mm 1,9 UV-I 617 W/m 13,0 C 17,9 C 22,5 km/h (4 Bft) 97,73 %
22.08.2016 16:56 20,4 C 63 % 1025,8 hPa 0,0 l/m 6,9 km/h (2 Bft) W 273 2 min 0,000 mm 1,8 UV-I 580 W/m 13,1 C 20,2 C 12,9 km/h (3 Bft) 97,87 %
22.08.2016 16:58 20,5 C 67 % 1025,8 hPa 0,0 l/m 5,6 km/h (1 Bft) W-NW 285 2 min 0,000 mm 1,6 UV-I 564 W/m 14,2 C 20,5 C 11,3 km/h (2 Bft) 92,68 %
22.08.2016 17:00 20,6 C 63 % 1025,8 hPa 0,0 l/m 10,6 km/h (2 Bft) W 272 2 min 0,254 mm 1,5 UV-I 555 W/m 13,3 C 19,1 C 19,3 km/h (3 Bft) 98,21 %
22.08.2016 17:02 20,4 C 63 % 1025,9 hPa 0,0 l/m 8,7 km/h (2 Bft) W-SW 239 2 min 0,000 mm 1,4 UV-I 480 W/m 13,1 C 19,5 C 12,9 km/h (3 Bft) 97,44 %
22.08.2016 17:04 20,2 C 64 % 1025,8 hPa 0,0 l/m 10,9 km/h (2 Bft) W 265 0 min 0,000 mm 1,2 UV-I 212 W/m 13,2 C 18,6 C 19,3 km/h (3 Bft) 96,15 %
22.08.2016 17:06 20,0 C 63 % 1026,0 hPa 0,0 l/m 13,1 km/h (3 Bft) W-SW 258 0 min 0,000 mm 1,2 UV-I 181 W/m 12,7 C 17,7 C 19,3 km/h (3 Bft) 100,00 %
22.08.2016 17:08 19,7 C 64 % 1025,9 hPa 0,0 l/m 14,2 km/h (3 Bft) W-SW 251 0 min 0,000 mm 1,1 UV-I 173 W/m 12,7 C 17,1 C 22,5 km/h (4 Bft) 97,06 %
22.08.2016 17:10 19,6 C 65 % 1026,0 hPa 0,0 l/m 10,6 km/h (2 Bft) SW 234 0 min 0,000 mm 1,1 UV-I 176 W/m 12,8 C 18,0 C 20,9 km/h (4 Bft) 95,74 %
22.08.2016 17:12 19,4 C 66 % 1026,0 hPa 0,0 l/m 11,0 km/h (2 Bft) W 259 0 min 0,000 mm 1,1 UV-I 191 W/m 12,9 C 17,6 C 17,7 km/h (3 Bft) 100,00 %
22.08.2016 17:14 19,3 C 67 % 1026,0 hPa 0,0 l/m 5,9 km/h (2 Bft) W 259 0 min 0,000 mm 1,1 UV-I 200 W/m 13,0 C 19,3 C 11,3 km/h (2 Bft) 95,74 %
22.08.2016 17:16 19,3 C 65 % 1026,0 hPa 0,0 l/m 13,0 km/h (3 Bft) W-SW 247 0 min 0,000 mm 1,0 UV-I 196 W/m 12,6 C 16,9 C 19,3 km/h (3 Bft) 100,00 %
22.08.2016 17:18 19,3 C 66 % 1026,0 hPa 0,0 l/m 6,5 km/h (2 Bft) W-SW 239 0 min 0,000 mm 1,0 UV-I 234 W/m 12,8 C 19,3 C 11,3 km/h (2 Bft) 100,00 %
22.08.2016 17:20 19,4 C 67 % 1026,1 hPa 0,0 l/m 4,2 km/h (1 Bft) W-SW 254 0 min 0,000 mm 1,0 UV-I 232 W/m 13,1 C 19,4 C 17,7 km/h (3 Bft) 97,73 %
22.08.2016 17:22 19,4 C 67 % 1026,1 hPa 0,0 l/m 11,3 km/h (2 Bft) SW 230 0 min 0,000 mm 1,0 UV-I 220 W/m 13,1 C 17,6 C 19,3 km/h (3 Bft) 100,00 %
22.08.2016 17:24 19,4 C 67 % 1026,1 hPa 0,0 l/m 11,7 km/h (2 Bft) W-SW 248 0 min 0,000 mm 0,9 UV-I 208 W/m 13,1 C 17,4 C 19,3 km/h (3 Bft) 98,00 %
22.08.2016 17:26 19,3 C 66 % 1026,1 hPa 0,0 l/m 12,9 km/h (3 Bft) S-SW 204 0 min 0,000 mm 0,9 UV-I 214 W/m 12,8 C 17,0 C 19,3 km/h (3 Bft) 97,87 %
22.08.2016 17:28 19,3 C 66 % 1026,0 hPa 0,0 l/m 12,3 km/h (3 Bft) W 277 0 min 0,000 mm 0,9 UV-I 203 W/m 12,8 C 17,1 C 19,3 km/h (3 Bft) 100,00 %
22.08.2016 17:30 19,3 C 67 % 1026,0 hPa 0,0 l/m 7,0 km/h (2 Bft) W-SW 247 0 min 0,000 mm 0,8 UV-I 195 W/m 13,0 C 19,0 C 11,3 km/h (2 Bft) 100,00 %
22.08.2016 17:32 19,3 C 67 % 1026,1 hPa 0,0 l/m 8,2 km/h (2 Bft) W 263 0 min 0,000 mm 0,8 UV-I 201 W/m 13,0 C 18,5 C 16,1 km/h (3 Bft) 100,00 %
22.08.2016 17:34 19,3 C 67 % 1026,1 hPa 0,0 l/m 12,3 km/h (3 Bft) W-SW 247 0 min 0,000 mm 0,8 UV-I 205 W/m 13,0 C 17,1 C 17,7 km/h (3 Bft) 100,00 %
22.08.2016 17:36 19,3 C 67 % 1026,1 hPa 0,0 l/m 9,9 km/h (2 Bft) S-SW 209 0 min 0,000 mm 0,7 UV-I 200 W/m 13,0 C 17,9 C 14,5 km/h (3 Bft) 100,00 %
22.08.2016 17:38 19,3 C 66 % 1026,2 hPa 0,0 l/m 10,7 km/h (2 Bft) W-SW 254 0 min 0,000 mm 0,7 UV-I 195 W/m 12,8 C 17,6 C 17,7 km/h (3 Bft) 100,00 %
22.08.2016 17:40 19,2 C 67 % 1026,1 hPa 0,0 l/m 9,7 km/h (2 Bft) S-SW 211 0 min 0,000 mm 0,7 UV-I 187 W/m 12,9 C 17,9 C 16,1 km/h (3 Bft) 100,00 %
22.08.2016 17:42 19,2 C 67 % 1026,2 hPa 0,0 l/m 8,2 km/h (2 Bft) W-SW 246 0 min 0,000 mm 0,6 UV-I 178 W/m 12,9 C 18,4 C 14,5 km/h (3 Bft) 100,00 %
22.08.2016 17:44 19,2 C 67 % 1026,2 hPa 0,0 l/m 8,7 km/h (2 Bft) SW 234 0 min 0,000 mm 0,6 UV-I 171 W/m 12,9 C 18,2 C 14,5 km/h (3 Bft) 100,00 %
22.08.2016 17:46 19,2 C 67 % 1026,2 hPa 0,0 l/m 8,9 km/h (2 Bft) SW 229 0 min 0,000 mm 0,6 UV-I 166 W/m 12,9 C 18,2 C 12,9 km/h (3 Bft) 100,00 %
22.08.2016 17:48 19,2 C 66 % 1026,2 hPa 0,0 l/m 10,0 km/h (2 Bft) W-SW 251 0 min 0,000 mm 0,6 UV-I 159 W/m 12,7 C 17,8 C 17,7 km/h (3 Bft) 100,00 %
22.08.2016 17:50 19,3 C 67 % 1026,2 hPa 0,0 l/m 9,9 km/h (2 Bft) W 267 0 min 0,000 mm 0,6 UV-I 153 W/m 13,0 C 17,9 C 17,7 km/h (3 Bft) 100,00 %
22.08.2016 17:52 19,3 C 66 % 1026,3 hPa 0,0 l/m 10,6 km/h (2 Bft) W 273 0 min 0,000 mm 0,5 UV-I 154 W/m 12,8 C 17,7 C 17,7 km/h (3 Bft) 100,00 %
22.08.2016 17:54 19,2 C 66 % 1026,2 hPa 0,0 l/m 7,1 km/h (2 Bft) W-SW 245 2 min 0,000 mm 0,5 UV-I 192 W/m 12,7 C 18,9 C 12,9 km/h (3 Bft) 100,00 %
22.08.2016 17:56 19,2 C 67 % 1026,3 hPa 0,0 l/m 6,7 km/h (2 Bft) W-SW 256 0 min 0,000 mm 0,5 UV-I 157 W/m 12,9 C 19,1 C 12,9 km/h (3 Bft) 100,00 %
22.08.2016 17:58 19,2 C 66 % 1026,3 hPa 0,0 l/m 5,9 km/h (2 Bft) W-SW 253 0 min 0,000 mm 0,5 UV-I 159 W/m 12,7 C 19,2 C 12,9 km/h (3 Bft) 100,00 %
22.08.2016 18:00 19,2 C 66 % 1026,3 hPa 0,0 l/m 6,1 km/h (2 Bft) W 273 0 min 0,152 mm 0,5 UV-I 163 W/m 12,7 C 19,2 C 11,3 km/h (2 Bft) 100,00 %
22.08.2016 18:02 19,2 C 67 % 1026,3 hPa 0,0 l/m 5,2 km/h (1 Bft) W-SW 244 0 min 0,000 mm 0,5 UV-I 154 W/m 12,9 C 19,2 C 11,3 km/h (2 Bft) 97,37 %
22.08.2016 18:04 19,2 C 65 % 1026,3 hPa 0,0 l/m 7,5 km/h (2 Bft) SW 228 0 min 0,000 mm 0,5 UV-I 145 W/m 12,5 C 18,7 C 12,9 km/h (3 Bft) 100,00 %
22.08.2016 18:06 19,2 C 66 % 1026,3 hPa 0,0 l/m 8,9 km/h (2 Bft) W 272 0 min 0,000 mm 0,5 UV-I 130 W/m 12,7 C 18,2 C 16,1 km/h (3 Bft) 100,00 %
22.08.2016 18:08 19,1 C 66 % 1026,3 hPa 0,0 l/m 8,4 km/h (2 Bft) W-SW 243 0 min 0,000 mm 0,0 UV-I 124 W/m 12,6 C 18,2 C 17,7 km/h (3 Bft) 100,00 %
22.08.2016 18:10 19,1 C 65 % 1026,3 hPa 0,0 l/m 10,8 km/h (2 Bft) W-SW 244 0 min 0,000 mm 0,0 UV-I 132 W/m 12,4 C 17,4 C 17,7 km/h (3 Bft) 100,00 %
22.08.2016 18:12 19,1 C 65 % 1026,3 hPa 0,0 l/m 8,4 km/h (2 Bft) W 264 0 min 0,000 mm 0,0 UV-I 147 W/m 12,4 C 18,2 C 14,5 km/h (3 Bft) 100,00 %
22.08.2016 18:14 19,0 C 67 % 1026,3 hPa 0,0 l/m 7,8 km/h (2 Bft) SW 233 0 min 0,000 mm 0,0 UV-I 131 W/m 12,7 C 18,4 C 11,3 km/h (2 Bft) 98,44 %
22.08.2016 18:16 19,1 C 66 % 1026,4 hPa 0,0 l/m 6,3 km/h (2 Bft) W-SW 246 2 min 0,000 mm 0,0 UV-I 179 W/m 12,6 C 19,1 C 11,3 km/h (2 Bft) 96,00 %
22.08.2016 18:18 19,1 C 66 % 1026,4 hPa 0,0 l/m 9,2 km/h (2 Bft) W 271 2 min 0,000 mm 0,0 UV-I 181 W/m 12,6 C 17,9 C 14,5 km/h (3 Bft) 100,00 %
22.08.2016 18:20 19,1 C 67 % 1026,4 hPa 0,0 l/m 7,2 km/h (2 Bft) W-SW 248 0 min 0,000 mm 0,0 UV-I 123 W/m 12,8 C 18,7 C 12,9 km/h (3 Bft) 100,00 %
22.08.2016 18:22 19,1 C 67 % 1026,3 hPa 0,0 l/m 5,8 km/h (2 Bft) SW 235 0 min 0,000 mm 0,0 UV-I 116 W/m 12,8 C 19,1 C 11,3 km/h (2 Bft) 100,00 %
22.08.2016 18:24 19,1 C 67 % 1026,3 hPa 0,0 l/m 6,6 km/h (2 Bft) W-SW 241 0 min 0,000 mm 0,0 UV-I 109 W/m 12,8 C 19,0 C 9,7 km/h (2 Bft) 100,00 %
22.08.2016 18:26 19,1 C 67 % 1026,3 hPa 0,0 l/m 7,4 km/h (2 Bft) W-SW 257 0 min 0,000 mm 0,0 UV-I 105 W/m 12,8 C 18,7 C 12,9 km/h (3 Bft) 100,00 %
22.08.2016 18:28 19,0 C 67 % 1026,3 hPa 0,0 l/m 7,2 km/h (2 Bft) W-SW 248 0 min 0,000 mm 0,0 UV-I 105 W/m 12,7 C 18,6 C 11,3 km/h (2 Bft) 100,00 %
22.08.2016 18:30 18,9 C 68 % 1026,3 hPa 0,0 l/m 7,5 km/h (2 Bft) SW 235 0 min 0,000 mm 0,0 UV-I 101 W/m 12,9 C 18,4 C 11,3 km/h (2 Bft) 97,87 %
22.08.2016 18:32 18,9 C 68 % 1026,3 hPa 0,0 l/m 8,6 km/h (2 Bft) W-SW 253 0 min 0,000 mm 0,0 UV-I 95 W/m 12,9 C 18,0 C 12,9 km/h (3 Bft) 100,00 %
22.08.2016 18:34 18,9 C 67 % 1026,3 hPa 0,0 l/m 7,1 km/h (2 Bft) S-SW 213 0 min 0,000 mm 0,0 UV-I 92 W/m 12,6 C 18,6 C 12,9 km/h (3 Bft) 98,31 %
22.08.2016 18:36 18,9 C 68 % 1026,3 hPa 0,0 l/m 5,9 km/h (2 Bft) W 279 0 min 0,000 mm 0,0 UV-I 87 W/m 12,9 C 18,9 C 9,7 km/h (2 Bft) 97,30 %
22.08.2016 18:38 18,8 C 68 % 1026,3 hPa 0,0 l/m 8,1 km/h (2 Bft) SW 236 0 min 0,000 mm 0,0 UV-I 84 W/m 12,8 C 18,0 C 12,9 km/h (3 Bft) 98,11 %
22.08.2016 18:40 18,8 C 68 % 1026,3 hPa 0,0 l/m 6,3 km/h (2 Bft) SW 232 0 min 0,000 mm 0,0 UV-I 83 W/m 12,8 C 18,8 C 11,3 km/h (2 Bft) 95,74 %
22.08.2016 18:42 18,8 C 68 % 1026,3 hPa 0,0 l/m 5,5 km/h (1 Bft) SW 223 0 min 0,000 mm 0,0 UV-I 77 W/m 12,8 C 18,8 C 8,0 km/h (2 Bft) 97,87 %
22.08.2016 18:44 18,8 C 69 % 1026,4 hPa 0,0 l/m 6,3 km/h (2 Bft) SW 217 0 min 0,000 mm 0,0 UV-I 76 W/m 13,0 C 18,8 C 8,0 km/h (2 Bft) 97,87 %
22.08.2016 18:46 18,7 C 69 % 1026,4 hPa 0,0 l/m 5,3 km/h (1 Bft) S 184 0 min 0,000 mm 0,0 UV-I 76 W/m 12,9 C 18,7 C 11,3 km/h (2 Bft) 97,14 %
22.08.2016 18:48 18,7 C 70 % 1026,5 hPa 0,0 l/m 5,7 km/h (1 Bft) SW 234 0 min 0,000 mm 0,0 UV-I 73 W/m 13,1 C 18,7 C 9,7 km/h (2 Bft) 98,00 %
22.08.2016 18:50 18,7 C 70 % 1026,4 hPa 0,0 l/m 5,8 km/h (2 Bft) W-SW 257 0 min 0,000 mm 0,0 UV-I 70 W/m 13,1 C 18,7 C 9,7 km/h (2 Bft) 96,23 %
22.08.2016 18:52 18,6 C 70 % 1026,5 hPa 0,0 l/m 5,2 km/h (1 Bft) SW 228 0 min 0,000 mm 0,0 UV-I 70 W/m 13,0 C 18,6 C 8,0 km/h (2 Bft) 98,00 %
22.08.2016 18:54 18,6 C 70 % 1026,5 hPa 0,0 l/m 5,6 km/h (1 Bft) SW 225 0 min 0,000 mm 0,0 UV-I 70 W/m 13,0 C 18,6 C 11,3 km/h (2 Bft) 95,74 %
22.08.2016 18:56 18,6 C 70 % 1026,5 hPa 0,0 l/m 6,8 km/h (2 Bft) SW 224 0 min 0,000 mm 0,0 UV-I 71 W/m 13,0 C 18,4 C 9,7 km/h (2 Bft) 97,22 %
22.08.2016 18:58 18,6 C 71 % 1026,5 hPa 0,0 l/m 6,9 km/h (2 Bft) SW 234 0 min 0,000 mm 0,0 UV-I 70 W/m 13,2 C 18,4 C 12,9 km/h (3 Bft) 98,08 %
22.08.2016 19:00 18,5 C 71 % 1026,4 hPa 0,0 l/m 5,6 km/h (1 Bft) SW 230 0 min 0,000 mm 0,0 UV-I 69 W/m 13,1 C 18,5 C 8,0 km/h (2 Bft) 96,00 %
22.08.2016 19:02 18,4 C 71 % 1026,4 hPa 0,0 l/m 6,6 km/h (2 Bft) W-SW 240 0 min 0,102 mm 0,0 UV-I 69 W/m 13,0 C 18,3 C 11,3 km/h (2 Bft) 97,62 %
22.08.2016 19:04 18,4 C 71 % 1026,4 hPa 0,0 l/m 6,6 km/h (2 Bft) SW 235 0 min 0,000 mm 0,0 UV-I 71 W/m 13,0 C 18,3 C 9,7 km/h (2 Bft) 97,56 %
22.08.2016 19:06 18,4 C 71 % 1026,4 hPa 0,0 l/m 6,6 km/h (2 Bft) SW 216 0 min 0,000 mm 0,0 UV-I 79 W/m 13,0 C 18,3 C 12,9 km/h (3 Bft) 98,00 %
22.08.2016 19:08 18,4 C 70 % 1026,4 hPa 0,0 l/m 6,9 km/h (2 Bft) SW 223 2 min 0,000 mm 0,0 UV-I 98 W/m 12,8 C 18,2 C 11,3 km/h (2 Bft) 98,00 %
22.08.2016 19:10 18,4 C 71 % 1026,5 hPa 0,0 l/m 5,8 km/h (2 Bft) S 180 2 min 0,000 mm 0,0 UV-I 104 W/m 13,0 C 18,4 C 8,0 km/h (2 Bft) 98,11 %
22.08.2016 19:12 18,6 C 70 % 1026,5 hPa 0,0 l/m 6,7 km/h (2 Bft) S 182 2 min 0,000 mm 0,0 UV-I 100 W/m 13,0 C 18,5 C 9,7 km/h (2 Bft) 100,00 %
22.08.2016 19:14 18,6 C 70 % 1026,5 hPa 0,0 l/m 7,0 km/h (2 Bft) SW 217 2 min 0,000 mm 0,0 UV-I 96 W/m 13,0 C 18,3 C 11,3 km/h (2 Bft) 100,00 %
22.08.2016 19:16 18,7 C 70 % 1026,4 hPa 0,0 l/m 6,0 km/h (2 Bft) SW 224 2 min 0,000 mm 0,0 UV-I 86 W/m 13,1 C 18,7 C 8,0 km/h (2 Bft) 100,00 %
22.08.2016 19:18 18,7 C 69 % 1026,5 hPa 0,0 l/m 5,9 km/h (2 Bft) S 182 2 min 0,000 mm 0,0 UV-I 74 W/m 12,9 C 18,7 C 11,3 km/h (2 Bft) 97,73 %
22.08.2016 19:20 18,7 C 69 % 1026,5 hPa 0,0 l/m 5,7 km/h (1 Bft) SW 223 0 min 0,000 mm 0,0 UV-I 52 W/m 12,9 C 18,7 C 9,7 km/h (2 Bft) 100,00 %
22.08.2016 19:22 18,7 C 69 % 1026,5 hPa 0,0 l/m 6,2 km/h (2 Bft) SW 218 0 min 0,000 mm 0,0 UV-I 56 W/m 12,9 C 18,7 C 11,3 km/h (2 Bft) 100,00 %
22.08.2016 19:24 18,6 C 69 % 1026,6 hPa 0,0 l/m 5,7 km/h (1 Bft) W-SW 239 0 min 0,000 mm 0,0 UV-I 41 W/m 12,8 C 18,6 C 9,7 km/h (2 Bft) 100,00 %
22.08.2016 19:26 18,6 C 69 % 1026,6 hPa 0,0 l/m 6,0 km/h (2 Bft) S-SW 210 0 min 0,000 mm 0,0 UV-I 37 W/m 12,8 C 18,6 C 8,0 km/h (2 Bft) 100,00 %
22.08.2016 19:28 18,5 C 70 % 1026,6 hPa 0,0 l/m 6,6 km/h (2 Bft) SW 217 0 min 0,000 mm 0,0 UV-I 26 W/m 12,9 C 18,4 C 11,3 km/h (2 Bft) 100,00 %
22.08.2016 19:30 18,4 C 70 % 1026,5 hPa 0,0 l/m 5,1 km/h (1 Bft) S-SW 210 0 min 0,000 mm 0,0 UV-I 19 W/m 12,8 C 18,4 C 9,7 km/h (2 Bft) 100,00 %
22.08.2016 19:32 18,3 C 70 % 1026,7 hPa 0,0 l/m 4,6 km/h (1 Bft) SW 214 0 min 0,000 mm 0,0 UV-I 15 W/m 12,7 C 18,3 C 6,4 km/h (2 Bft) 100,00 %
22.08.2016 19:34 18,3 C 70 % 1026,7 hPa 0,0 l/m 4,0 km/h (1 Bft) SW 223 0 min 0,000 mm 0,0 UV-I 14 W/m 12,7 C 18,3 C 6,4 km/h (2 Bft) 97,37 %
22.08.2016 19:36 18,2 C 71 % 1026,7 hPa 0,0 l/m 5,2 km/h (1 Bft) S-SW 197 0 min 0,000 mm 0,0 UV-I 12 W/m 12,9 C 18,2 C 8,0 km/h (2 Bft) 100,00 %
22.08.2016 19:38 18,1 C 71 % 1026,7 hPa 0,0 l/m 6,0 km/h (2 Bft) S-SW 196 0 min 0,000 mm 0,0 UV-I 12 W/m 12,8 C 18,1 C 9,7 km/h (2 Bft) 100,00 %
22.08.2016 19:40 17,9 C 72 % 1026,7 hPa 0,0 l/m 5,2 km/h (1 Bft) S 173 0 min 0,000 mm 0,0 UV-I 12 W/m 12,8 C 17,9 C 9,7 km/h (2 Bft) 95,74 %
22.08.2016 19:42 17,9 C 73 % 1026,7 hPa 0,0 l/m 5,0 km/h (1 Bft) S-SW 208 0 min 0,000 mm 0,0 UV-I 12 W/m 13,0 C 17,9 C 8,0 km/h (2 Bft) 97,22 %
22.08.2016 19:44 17,8 C 73 % 1026,7 hPa 0,0 l/m 6,4 km/h (2 Bft) S-SW 202 0 min 0,000 mm 0,0 UV-I 12 W/m 12,9 C 17,8 C 8,0 km/h (2 Bft) 100,00 %
22.08.2016 19:46 17,7 C 73 % 1026,7 hPa 0,0 l/m 5,3 km/h (1 Bft) S-SW 196 0 min 0,000 mm 0,0 UV-I 12 W/m 12,8 C 17,7 C 8,0 km/h (2 Bft) 97,37 %
22.08.2016 19:48 17,7 C 74 % 1026,7 hPa 0,0 l/m 3,6 km/h (1 Bft) S-SW 204 0 min 0,000 mm 0,0 UV-I 12 W/m 13,0 C 17,7 C 6,4 km/h (2 Bft) 100,00 %
22.08.2016 19:50 17,7 C 74 % 1026,7 hPa 0,0 l/m 3,7 km/h (1 Bft) S 185 0 min 0,000 mm 0,0 UV-I 12 W/m 13,0 C 17,7 C 4,8 km/h (1 Bft) 100,00 %
22.08.2016 19:52 17,6 C 74 % 1026,7 hPa 0,0 l/m 4,3 km/h (1 Bft) S 183 2 min 0,000 mm 0,0 UV-I 11 W/m 12,9 C 17,6 C 6,4 km/h (2 Bft) 98,00 %
22.08.2016 19:54 17,6 C 74 % 1026,7 hPa 0,0 l/m 4,0 km/h (1 Bft) S 184 0 min 0,000 mm 0,0 UV-I 10 W/m 12,9 C 17,6 C 6,4 km/h (2 Bft) 100,00 %
22.08.2016 19:56 17,5 C 76 % 1026,7 hPa 0,0 l/m 2,4 km/h (1 Bft) S 184 0 min 0,000 mm 0,0 UV-I 9 W/m 13,2 C 17,5 C 6,4 km/h (2 Bft) 100,00 %
22.08.2016 19:58 17,3 C 77 % 1026,8 hPa 0,0 l/m 1,6 km/h (1 Bft) S 184 0 min 0,000 mm 0,0 UV-I 7 W/m 13,2 C 17,3 C 3,2 km/h (1 Bft) 100,00 %
22.08.2016 20:00 17,2 C 77 % 1026,8 hPa 0,0 l/m 1,2 km/h (1 Bft) S 184 0 min 0,051 mm 0,0 UV-I 7 W/m 13,1 C 17,2 C 3,2 km/h (1 Bft) 100,00 %
22.08.2016 20:02 16,9 C 78 % 1026,8 hPa 0,0 l/m 1,1 km/h (1 Bft) S 184 0 min 0,000 mm 0,0 UV-I 6 W/m 13,0 C 16,9 C 3,2 km/h (1 Bft) 100,00 %
22.08.2016 20:04 16,9 C 79 % 1026,9 hPa 0,0 l/m 3,2 km/h (1 Bft) S 184 0 min 0,000 mm 0,0 UV-I 5 W/m 13,2 C 16,9 C 4,8 km/h (1 Bft) 95,74 %
22.08.2016 20:06 16,8 C 78 % 1026,9 hPa 0,0 l/m 3,4 km/h (1 Bft) S 184 0 min 0,000 mm 0,0 UV-I 5 W/m 12,9 C 16,8 C 4,8 km/h (1 Bft) 100,00 %
22.08.2016 20:08 16,9 C 78 % 1026,9 hPa 0,0 l/m 2,5 km/h (1 Bft) S 184 0 min 0,000 mm 0,0 UV-I 0 W/m 13,0 C 16,9 C 4,8 km/h (1 Bft) 97,87 %
22.08.2016 20:10 16,9 C 78 % 1026,9 hPa 0,0 l/m 3,4 km/h (1 Bft) S 184 0 min 0,000 mm 0,0 UV-I 0 W/m 13,0 C 16,9 C 4,8 km/h (1 Bft) 100,00 %
22.08.2016 20:12 16,9 C 77 % 1026,9 hPa 0,0 l/m 4,4 km/h (1 Bft) S 187 0 min 0,000 mm 0,0 UV-I 0 W/m 12,8 C 16,9 C 6,4 km/h (2 Bft) 100,00 %
22.08.2016 20:14 16,9 C 78 % 1026,9 hPa 0,0 l/m 2,9 km/h (1 Bft) S 187 0 min 0,000 mm 0,0 UV-I 0 W/m 13,0 C 16,9 C 4,8 km/h (1 Bft) 98,00 %
22.08.2016 20:16 16,8 C 78 % 1026,9 hPa 0,0 l/m 4,1 km/h (1 Bft) S 183 0 min 0,000 mm 0,0 UV-I 0 W/m 12,9 C 16,8 C 4,8 km/h (1 Bft) 100,00 %
22.08.2016 20:18 16,8 C 78 % 1026,9 hPa 0,0 l/m 3,4 km/h (1 Bft) S 180 0 min 0,000 mm 0,0 UV-I 0 W/m 12,9 C 16,8 C 6,4 km/h (2 Bft) 100,00 %
22.08.2016 20:20 16,7 C 78 % 1027,0 hPa 0,0 l/m 3,2 km/h (1 Bft) S 180 0 min 0,000 mm 0,0 UV-I 0 W/m 12,8 C 16,7 C 4,8 km/h (1 Bft) 100,00 %
22.08.2016 20:22 16,6 C 78 % 1027,0 hPa 0,0 l/m 3,3 km/h (1 Bft) S 180 0 min 0,000 mm 0,0 UV-I 0 W/m 12,7 C 16,6 C 4,8 km/h (1 Bft) 100,00 %
22.08.2016 20:24 16,6 C 79 % 1027,0 hPa 0,0 l/m 3,4 km/h (1 Bft) S 175 0 min 0,000 mm 0,0 UV-I 0 W/m 12,9 C 16,6 C 6,4 km/h (2 Bft) 100,00 %
22.08.2016 20:26 16,6 C 79 % 1027,1 hPa 0,0 l/m 3,5 km/h (1 Bft) S-SO 166 0 min 0,000 mm 0,0 UV-I 0 W/m 12,9 C 16,6 C 6,4 km/h (2 Bft) 100,00 %
22.08.2016 20:28 16,6 C 79 % 1027,0 hPa 0,0 l/m 2,8 km/h (1 Bft) S-SW 195 0 min 0,000 mm 0,0 UV-I 0 W/m 12,9 C 16,6 C 6,4 km/h (2 Bft) 100,00 %
22.08.2016 20:30 16,5 C 79 % 1027,1 hPa 0,0 l/m 4,9 km/h (1 Bft) S-SW 197 0 min 0,000 mm 0,0 UV-I 0 W/m 12,8 C 16,5 C 6,4 km/h (2 Bft) 100,00 %
22.08.2016 20:32 16,4 C 79 % 1027,1 hPa 0,0 l/m 3,0 km/h (1 Bft) S-SW 192 0 min 0,000 mm 0,0 UV-I 0 W/m 12,7 C 16,4 C 4,8 km/h (1 Bft) 97,37 %
22.08.2016 20:34 16,4 C 79 % 1027,1 hPa 0,0 l/m 3,3 km/h (1 Bft) S 181 0 min 0,000 mm 0,0 UV-I 0 W/m 12,7 C 16,4 C 8,0 km/h (2 Bft) 96,00 %
22.08.2016 20:36 16,4 C 79 % 1027,1 hPa 0,0 l/m 4,0 km/h (1 Bft) S-SO 161 0 min 0,000 mm 0,0 UV-I 0 W/m 12,7 C 16,4 C 6,4 km/h (2 Bft) 95,74 %
22.08.2016 20:38 16,4 C 79 % 1027,2 hPa 0,0 l/m 2,9 km/h (1 Bft) S 178 0 min 0,000 mm 0,0 UV-I 0 W/m 12,7 C 16,4 C 6,4 km/h (2 Bft) 97,87 %
22.08.2016 20:40 16,4 C 79 % 1027,2 hPa 0,0 l/m 4,6 km/h (1 Bft) S 180 0 min 0,000 mm 0,0 UV-I 0 W/m 12,7 C 16,4 C 8,0 km/h (2 Bft) 97,87 %
22.08.2016 20:42 16,4 C 79 % 1027,2 hPa 0,0 l/m 5,2 km/h (1 Bft) S 171 0 min 0,000 mm 0,0 UV-I 0 W/m 12,7 C 16,4 C 9,7 km/h (2 Bft) 98,11 %
22.08.2016 20:44 16,5 C 79 % 1027,3 hPa 0,0 l/m 4,6 km/h (1 Bft) S-SO 160 0 min 0,000 mm 0,0 UV-I 0 W/m 12,8 C 16,5 C 8,0 km/h (2 Bft) 97,56 %
22.08.2016 20:46 16,6 C 79 % 1027,3 hPa 0,0 l/m 5,6 km/h (1 Bft) SW 230 0 min 0,000 mm 0,0 UV-I 0 W/m 12,9 C 16,6 C 8,0 km/h (2 Bft) 98,11 %
22.08.2016 20:48 16,6 C 79 % 1027,3 hPa 0,0 l/m 3,1 km/h (1 Bft) SW 234 0 min 0,000 mm 0,0 UV-I 0 W/m 12,9 C 16,6 C 4,8 km/h (1 Bft) 97,56 %
22.08.2016 20:50 16,4 C 79 % 1027,4 hPa 0,0 l/m 3,8 km/h (1 Bft) S 171 0 min 0,000 mm 0,0 UV-I 0 W/m 12,7 C 16,4 C 8,0 km/h (2 Bft) 95,74 %
22.08.2016 20:52 16,4 C 79 % 1027,4 hPa 0,0 l/m 5,2 km/h (1 Bft) S 189 0 min 0,000 mm 0,0 UV-I 0 W/m 12,7 C 16,4 C 8,0 km/h (2 Bft) 97,87 %
22.08.2016 20:54 16,3 C 80 % 1027,5 hPa 0,0 l/m 4,4 km/h (1 Bft) S 182 0 min 0,000 mm 0,0 UV-I 0 W/m 12,8 C 16,3 C 6,4 km/h (2 Bft) 98,00 %
22.08.2016 20:56 16,2 C 80 % 1027,5 hPa 0,0 l/m 3,3 km/h (1 Bft) S-SW 201 0 min 0,000 mm 0,0 UV-I 0 W/m 12,7 C 16,2 C 4,8 km/h (1 Bft) 97,44 %
22.08.2016 20:58 16,2 C 80 % 1027,5 hPa 0,0 l/m 3,9 km/h (1 Bft) S-SW 202 0 min 0,000 mm 0,0 UV-I 0 W/m 12,7 C 16,2 C 6,4 km/h (2 Bft) 98,00 %
22.08.2016 21:00 16,1 C 80 % 1027,5 hPa 0,0 l/m 4,7 km/h (1 Bft) S 169 0 min 0,025 mm 0,0 UV-I 0 W/m 12,6 C 16,1 C 6,4 km/h (2 Bft) 94,74 %
22.08.2016 21:02 16,1 C 80 % 1027,5 hPa 0,0 l/m 4,1 km/h (1 Bft) S 180 0 min 0,000 mm 0,0 UV-I 0 W/m 12,6 C 16,1 C 8,0 km/h (2 Bft) 98,39 %
22.08.2016 21:04 16,1 C 80 % 1027,6 hPa 0,0 l/m 4,8 km/h (1 Bft) S 169 0 min 0,000 mm 0,0 UV-I 0 W/m 12,6 C 16,1 C 8,0 km/h (2 Bft) 95,74 %
22.08.2016 21:06 16,1 C 80 % 1027,7 hPa 0,0 l/m 5,6 km/h (1 Bft) S 185 0 min 0,000 mm 0,0 UV-I 0 W/m 12,6 C 16,1 C 8,0 km/h (2 Bft) 97,37 %
22.08.2016 21:08 16,1 C 81 % 1027,7 hPa 0,0 l/m 4,0 km/h (1 Bft) S 173 0 min 0,000 mm 0,0 UV-I 0 W/m 12,8 C 16,1 C 6,4 km/h (2 Bft) 97,87 %
22.08.2016 21:10 16,0 C 81 % 1027,6 hPa 0,0 l/m 4,8 km/h (1 Bft) S 175 0 min 0,000 mm 0,0 UV-I 0 W/m 12,7 C 16,0 C 9,7 km/h (2 Bft) 98,00 %
22.08.2016 21:12 16,0 C 81 % 1027,6 hPa 0,0 l/m 4,5 km/h (1 Bft) S 171 0 min 0,000 mm 0,0 UV-I 0 W/m 12,7 C 16,0 C 6,4 km/h (2 Bft) 100,00 %
22.08.2016 21:14 16,0 C 80 % 1027,7 hPa 0,0 l/m 6,3 km/h (2 Bft) S-SO 164 0 min 0,000 mm 0,0 UV-I 0 W/m 12,5 C 16,0 C 11,3 km/h (2 Bft) 100,00 %
22.08.2016 21:16 16,1 C 80 % 1027,6 hPa 0,0 l/m 4,3 km/h (1 Bft) S 187 0 min 0,000 mm 0,0 UV-I 0 W/m 12,6 C 16,1 C 6,4 km/h (2 Bft) 97,37 %
22.08.2016 21:18 16,1 C 80 % 1027,7 hPa 0,0 l/m 3,9 km/h (1 Bft) S-SW 200 0 min 0,000 mm 0,0 UV-I 0 W/m 12,6 C 16,1 C 4,8 km/h (1 Bft) 100,00 %
22.08.2016 21:20 16,1 C 81 % 1027,7 hPa 0,0 l/m 4,9 km/h (1 Bft) S-SW 202 0 min 0,000 mm 0,0 UV-I 0 W/m 12,8 C 16,1 C 6,4 km/h (2 Bft) 100,00 %
22.08.2016 21:22 16,0 C 81 % 1027,7 hPa 0,0 l/m 5,1 km/h (1 Bft) S 174 0 min 0,000 mm 0,0 UV-I 0 W/m 12,7 C 16,0 C 6,4 km/h (2 Bft) 100,00 %
22.08.2016 21:24 15,9 C 81 % 1027,7 hPa 0,0 l/m 5,3 km/h (1 Bft) S 179 0 min 0,000 mm 0,0 UV-I 0 W/m 12,6 C 15,9 C 9,7 km/h (2 Bft) 100,00 %
22.08.2016 21:26 15,9 C 81 % 1027,7 hPa 0,0 l/m 6,4 km/h (2 Bft) S 184 0 min 0,000 mm 0,0 UV-I 0 W/m 12,6 C 15,9 C 8,0 km/h (2 Bft) 100,00 %
22.08.2016 21:28 15,9 C 80 % 1027,7 hPa 0,0 l/m 6,2 km/h (2 Bft) S 180 0 min 0,000 mm 0,0 UV-I 0 W/m 12,5 C 15,9 C 11,3 km/h (2 Bft) 100,00 %
22.08.2016 21:30 16,0 C 80 % 1027,8 hPa 0,0 l/m 6,2 km/h (2 Bft) S 188 0 min 0,000 mm 0,0 UV-I 0 W/m 12,5 C 16,0 C 8,0 km/h (2 Bft) 100,00 %
22.08.2016 21:32 16,1 C 80 % 1027,7 hPa 0,0 l/m 6,4 km/h (2 Bft) S-SW 194 0 min 0,000 mm 0,0 UV-I 0 W/m 12,6 C 16,1 C 9,7 km/h (2 Bft) 100,00 %
22.08.2016 21:34 16,1 C 80 % 1027,7 hPa 0,0 l/m 5,3 km/h (1 Bft) S-SW 201 0 min 0,000 mm 0,0 UV-I 0 W/m 12,6 C 16,1 C 9,7 km/h (2 Bft) 100,00 %
22.08.2016 21:36 16,0 C 80 % 1027,8 hPa 0,0 l/m 4,6 km/h (1 Bft) S-SW 198 0 min 0,000 mm 0,0 UV-I 0 W/m 12,5 C 16,0 C 8,0 km/h (2 Bft) 100,00 %
22.08.2016 21:38 16,0 C 80 % 1027,8 hPa 0,0 l/m 4,3 km/h (1 Bft) S 185 0 min 0,000 mm 0,0 UV-I 0 W/m 12,5 C 16,0 C 6,4 km/h (2 Bft) 100,00 %
22.08.2016 21:40 16,0 C 80 % 1027,8 hPa 0,0 l/m 6,3 km/h (2 Bft) SW 219 0 min 0,000 mm 0,0 UV-I 0 W/m 12,5 C 16,0 C 8,0 km/h (2 Bft) 100,00 %
22.08.2016 21:42 16,0 C 80 % 1027,7 hPa 0,0 l/m 5,8 km/h (2 Bft) S-SW 211 0 min 0,000 mm 0,0 UV-I 0 W/m 12,5 C 16,0 C 9,7 km/h (2 Bft) 100,00 %
22.08.2016 21:44 16,0 C 80 % 1027,7 hPa 0,0 l/m 6,3 km/h (2 Bft) S-SW 192 0 min 0,000 mm 0,0 UV-I 0 W/m 12,5 C 16,0 C 8,0 km/h (2 Bft) 98,11 %
22.08.2016 21:46 16,0 C 80 % 1027,7 hPa 0,0 l/m 6,7 km/h (2 Bft) S 191 0 min 0,000 mm 0,0 UV-I 0 W/m 12,5 C 15,8 C 9,7 km/h (2 Bft) 100,00 %
22.08.2016 21:48 15,9 C 80 % 1027,7 hPa 0,0 l/m 6,6 km/h (2 Bft) S-SW 212 0 min 0,000 mm 0,0 UV-I 0 W/m 12,5 C 15,8 C 9,7 km/h (2 Bft) 100,00 %
22.08.2016 21:50 15,9 C 80 % 1027,6 hPa 0,0 l/m 7,2 km/h (2 Bft) S 180 0 min 0,000 mm 0,0 UV-I 0 W/m 12,5 C 15,5 C 9,7 km/h (2 Bft) 100,00 %
22.08.2016 21:52 15,9 C 80 % 1027,7 hPa 0,0 l/m 7,8 km/h (2 Bft) S-SW 197 0 min 0,000 mm 0,0 UV-I 0 W/m 12,5 C 15,1 C 11,3 km/h (2 Bft) 100,00 %
22.08.2016 21:54 15,8 C 80 % 1027,6 hPa 0,0 l/m 7,4 km/h (2 Bft) S-SW 199 0 min 0,000 mm 0,0 UV-I 0 W/m 12,4 C 15,3 C 9,7 km/h (2 Bft) 100,00 %
22.08.2016 21:56 15,8 C 80 % 1027,6 hPa 0,0 l/m 7,2 km/h (2 Bft) SW 220 0 min 0,000 mm 0,0 UV-I 0 W/m 12,4 C 15,4 C 9,7 km/h (2 Bft) 98,11 %
22.08.2016 21:58 15,8 C 80 % 1027,7 hPa 0,0 l/m 6,3 km/h (2 Bft) S-SW 208 0 min 0,000 mm 0,0 UV-I 0 W/m 12,4 C 15,8 C 9,7 km/h (2 Bft) 100,00 %
22.08.2016 22:00 15,8 C 80 % 1027,7 hPa 0,0 l/m 6,3 km/h (2 Bft) S-SW 196 0 min 0,025 mm 0,0 UV-I 0 W/m 12,4 C 15,8 C 9,7 km/h (2 Bft) 98,21 %
22.08.2016 22:02 15,9 C 80 % 1027,7 hPa 0,0 l/m 7,6 km/h (2 Bft) S 176 0 min 0,000 mm 0,0 UV-I 0 W/m 12,5 C 15,3 C 11,3 km/h (2 Bft) 100,00 %
22.08.2016 22:04 15,9 C 80 % 1027,7 hPa 0,0 l/m 6,6 km/h (2 Bft) S 186 0 min 0,000 mm 0,0 UV-I 0 W/m 12,5 C 15,8 C 9,7 km/h (2 Bft) 98,00 %
22.08.2016 22:06 15,9 C 80 % 1027,7 hPa 0,0 l/m 6,5 km/h (2 Bft) SW 222 0 min 0,000 mm 0,0 UV-I 0 W/m 12,5 C 15,9 C 11,3 km/h (2 Bft) 100,00 %
22.08.2016 22:08 15,9 C 80 % 1027,7 hPa 0,0 l/m 6,0 km/h (2 Bft) S-SW 201 0 min 0,000 mm 0,0 UV-I 0 W/m 12,5 C 15,9 C 9,7 km/h (2 Bft) 100,00 %
22.08.2016 22:10 15,9 C 80 % 1027,7 hPa 0,0 l/m 6,7 km/h (2 Bft) S-SW 211 0 min 0,000 mm 0,0 UV-I 0 W/m 12,5 C 15,7 C 9,7 km/h (2 Bft) 100,00 %
22.08.2016 22:12 15,8 C 80 % 1027,7 hPa 0,0 l/m 6,1 km/h (2 Bft) S-SW 198 0 min 0,000 mm 0,0 UV-I 0 W/m 12,4 C 15,8 C 9,7 km/h (2 Bft) 100,00 %
22.08.2016 22:14 15,8 C 80 % 1027,8 hPa 0,0 l/m 6,5 km/h (2 Bft) S-SW 192 0 min 0,000 mm 0,0 UV-I 0 W/m 12,4 C 15,8 C 9,7 km/h (2 Bft) 100,00 %
22.08.2016 22:16 15,7 C 80 % 1027,8 hPa 0,0 l/m 6,5 km/h (2 Bft) S-SW 194 0 min 0,000 mm 0,0 UV-I 0 W/m 12,3 C 15,7 C 9,7 km/h (2 Bft) 100,00 %
22.08.2016 22:18 15,7 C 80 % 1027,7 hPa 0,0 l/m 7,0 km/h (2 Bft) S-SW 208 0 min 0,000 mm 0,0 UV-I 0 W/m 12,3 C 15,4 C 9,7 km/h (2 Bft) 100,00 %
22.08.2016 22:20 15,7 C 81 % 1027,7 hPa 0,0 l/m 6,9 km/h (2 Bft) S-SW 196 0 min 0,000 mm 0,0 UV-I 0 W/m 12,4 C 15,4 C 9,7 km/h (2 Bft) 100,00 %
22.08.2016 22:22 15,6 C 81 % 1027,7 hPa 0,0 l/m 5,8 km/h (2 Bft) S 184 0 min 0,000 mm 0,0 UV-I 0 W/m 12,3 C 15,6 C 9,7 km/h (2 Bft) 96,00 %
22.08.2016 22:24 15,6 C 81 % 1027,7 hPa 0,0 l/m 6,6 km/h (2 Bft) S 188 0 min 0,000 mm 0,0 UV-I 0 W/m 12,3 C 15,5 C 9,7 km/h (2 Bft) 100,00 %
22.08.2016 22:26 15,6 C 81 % 1027,6 hPa 0,0 l/m 6,8 km/h (2 Bft) S 190 0 min 0,000 mm 0,0 UV-I 0 W/m 12,3 C 15,4 C 11,3 km/h (2 Bft) 98,11 %
22.08.2016 22:28 15,5 C 81 % 1027,6 hPa 0,0 l/m 7,1 km/h (2 Bft) S-SW 196 0 min 0,000 mm 0,0 UV-I 0 W/m 12,3 C 15,1 C 9,7 km/h (2 Bft) 100,00 %
22.08.2016 22:30 15,4 C 81 % 1027,6 hPa 0,0 l/m 6,1 km/h (2 Bft) SW 229 0 min 0,000 mm 0,0 UV-I 0 W/m 12,2 C 15,4 C 9,7 km/h (2 Bft) 97,56 %
22.08.2016 22:32 15,4 C 82 % 1027,6 hPa 0,0 l/m 6,0 km/h (2 Bft) S-SW 207 0 min 0,000 mm 0,0 UV-I 0 W/m 12,3 C 15,4 C 9,7 km/h (2 Bft) 98,11 %
22.08.2016 22:34 15,3 C 82 % 1027,6 hPa 0,0 l/m 5,4 km/h (1 Bft) S-SW 210 0 min 0,000 mm 0,0 UV-I 0 W/m 12,2 C 15,3 C 9,7 km/h (2 Bft) 94,74 %
22.08.2016 22:36 15,3 C 82 % 1027,7 hPa 0,0 l/m 5,9 km/h (2 Bft) S-SW 196 0 min 0,000 mm 0,0 UV-I 0 W/m 12,2 C 15,3 C 8,0 km/h (2 Bft) 95,74 %
22.08.2016 22:38 15,3 C 82 % 1027,6 hPa 0,0 l/m 5,2 km/h (1 Bft) SW 219 0 min 0,000 mm 0,0 UV-I 0 W/m 12,2 C 15,3 C 9,7 km/h (2 Bft) 97,87 %
22.08.2016 22:40 15,3 C 82 % 1027,6 hPa 0,0 l/m 4,1 km/h (1 Bft) S-SW 205 0 min 0,000 mm 0,0 UV-I 0 W/m 12,2 C 15,3 C 8,0 km/h (2 Bft) 98,00 %
22.08.2016 22:42 15,2 C 82 % 1027,6 hPa 0,0 l/m 4,9 km/h (1 Bft) SW 219 0 min 0,000 mm 0,0 UV-I 0 W/m 12,1 C 15,2 C 6,4 km/h (2 Bft) 97,56 %
22.08.2016 22:44 15,2 C 82 % 1027,6 hPa 0,0 l/m 3,9 km/h (1 Bft) S-SW 198 0 min 0,000 mm 0,0 UV-I 0 W/m 12,1 C 15,2 C 6,4 km/h (2 Bft) 97,56 %
22.08.2016 22:46 15,1 C 82 % 1027,6 hPa 0,0 l/m 4,5 km/h (1 Bft) S-SW 195 0 min 0,000 mm 0,0 UV-I 0 W/m 12,0 C 15,1 C 6,4 km/h (2 Bft) 94,34 %
22.08.2016 22:48 15,1 C 83 % 1027,6 hPa 0,0 l/m 6,5 km/h (2 Bft) SW 220 0 min 0,000 mm 0,0 UV-I 0 W/m 12,2 C 15,1 C 9,7 km/h (2 Bft) 94,00 %
22.08.2016 22:50 15,0 C 83 % 1027,7 hPa 0,0 l/m 6,1 km/h (2 Bft) S-SW 202 0 min 0,000 mm 0,0 UV-I 0 W/m 12,1 C 15,0 C 8,0 km/h (2 Bft) 96,15 %
22.08.2016 22:52 14,9 C 83 % 1027,6 hPa 0,0 l/m 7,1 km/h (2 Bft) S-SW 196 0 min 0,000 mm 0,0 UV-I 0 W/m 12,0 C 14,5 C 9,7 km/h (2 Bft) 95,12 %
22.08.2016 22:54 14,9 C 83 % 1027,6 hPa 0,0 l/m 6,8 km/h (2 Bft) SW 217 0 min 0,000 mm 0,0 UV-I 0 W/m 12,0 C 14,7 C 9,7 km/h (2 Bft) 100,00 %
22.08.2016 22:56 14,9 C 83 % 1027,7 hPa 0,0 l/m 5,9 km/h (2 Bft) S-SW 193 0 min 0,000 mm 0,0 UV-I 0 W/m 12,0 C 14,9 C 8,0 km/h (2 Bft) 96,43 %
22.08.2016 22:58 14,9 C 83 % 1027,7 hPa 0,0 l/m 6,2 km/h (2 Bft) S 177 0 min 0,000 mm 0,0 UV-I 0 W/m 12,0 C 14,9 C 8,0 km/h (2 Bft) 97,73 %
22.08.2016 23:00 14,9 C 83 % 1027,7 hPa 0,0 l/m 5,8 km/h (2 Bft) S 180 0 min 0,000 mm 0,0 UV-I 0 W/m 12,0 C 14,9 C 11,3 km/h (2 Bft) 96,00 %
22.08.2016 23:02 14,9 C 83 % 1027,7 hPa 0,0 l/m 6,9 km/h (2 Bft) S-SO 167 0 min 0,026 mm 0,0 UV-I 0 W/m 12,0 C 14,6 C 9,7 km/h (2 Bft) 98,00 %
22.08.2016 23:04 14,9 C 83 % 1027,6 hPa 0,0 l/m 6,2 km/h (2 Bft) S-SW 201 0 min 0,000 mm 0,0 UV-I 0 W/m 12,0 C 14,9 C 8,0 km/h (2 Bft) 97,87 %
22.08.2016 23:06 14,9 C 83 % 1027,6 hPa 0,0 l/m 7,0 km/h (2 Bft) S 178 0 min 0,000 mm 0,0 UV-I 0 W/m 12,0 C 14,6 C 9,7 km/h (2 Bft) 97,87 %
22.08.2016 23:08 14,9 C 84 % 1027,6 hPa 0,0 l/m 6,0 km/h (2 Bft) S 190 0 min 0,000 mm 0,0 UV-I 0 W/m 12,2 C 14,9 C 9,7 km/h (2 Bft) 97,56 %
22.08.2016 23:10 14,8 C 84 % 1027,6 hPa 0,0 l/m 5,7 km/h (1 Bft) S 190 0 min 0,000 mm 0,0 UV-I 0 W/m 12,1 C 14,8 C 8,0 km/h (2 Bft) 100,00 %
22.08.2016 23:12 14,8 C 84 % 1027,6 hPa 0,0 l/m 6,0 km/h (2 Bft) S-SW 207 0 min 0,000 mm 0,0 UV-I 0 W/m 12,1 C 14,8 C 9,7 km/h (2 Bft) 97,73 %
22.08.2016 23:14 14,7 C 85 % 1027,6 hPa 0,0 l/m 5,3 km/h (1 Bft) S-SW 195 0 min 0,000 mm 0,0 UV-I 0 W/m 12,2 C 14,7 C 8,0 km/h (2 Bft) 100,00 %
22.08.2016 23:16 14,7 C 85 % 1027,6 hPa 0,0 l/m 5,2 km/h (1 Bft) S-SW 200 0 min 0,000 mm 0,0 UV-I 0 W/m 12,2 C 14,7 C 6,4 km/h (2 Bft) 97,37 %
22.08.2016 23:18 14,6 C 85 % 1027,6 hPa 0,0 l/m 4,5 km/h (1 Bft) S-SW 194 0 min 0,000 mm 0,0 UV-I 0 W/m 12,1 C 14,6 C 6,4 km/h (2 Bft) 100,00 %
22.08.2016 23:20 14,6 C 85 % 1027,6 hPa 0,0 l/m 4,4 km/h (1 Bft) SW 215 0 min 0,000 mm 0,0 UV-I 0 W/m 12,1 C 14,6 C 6,4 km/h (2 Bft) 97,87 %
22.08.2016 23:22 14,5 C 85 % 1027,6 hPa 0,0 l/m 4,1 km/h (1 Bft) S-SW 207 0 min 0,000 mm 0,0 UV-I 0 W/m 12,0 C 14,5 C 6,4 km/h (2 Bft) 100,00 %
22.08.2016 23:24 14,5 C 86 % 1027,6 hPa 0,0 l/m 5,2 km/h (1 Bft) S-SW 209 0 min 0,000 mm 0,0 UV-I 0 W/m 12,2 C 14,5 C 8,0 km/h (2 Bft) 98,11 %
22.08.2016 23:26 14,5 C 86 % 1027,6 hPa 0,0 l/m 4,3 km/h (1 Bft) S 186 0 min 0,000 mm 0,0 UV-I 0 W/m 12,2 C 14,5 C 6,4 km/h (2 Bft) 100,00 %
22.08.2016 23:28 14,4 C 86 % 1027,6 hPa 0,0 l/m 5,1 km/h (1 Bft) S-SW 211 0 min 0,000 mm 0,0 UV-I 0 W/m 12,1 C 14,4 C 6,4 km/h (2 Bft) 100,00 %
22.08.2016 23:30 14,4 C 86 % 1027,6 hPa 0,0 l/m 5,2 km/h (1 Bft) S-SW 205 0 min 0,000 mm 0,0 UV-I 0 W/m 12,1 C 14,4 C 8,0 km/h (2 Bft) 100,00 %
22.08.2016 23:32 14,4 C 86 % 1027,6 hPa 0,0 l/m 4,9 km/h (1 Bft) S 189 0 min 0,000 mm 0,0 UV-I 0 W/m 12,1 C 14,4 C 6,4 km/h (2 Bft) 100,00 %
22.08.2016 23:34 14,4 C 86 % 1027,6 hPa 0,0 l/m 4,0 km/h (1 Bft) S 189 0 min 0,000 mm 0,0 UV-I 0 W/m 12,1 C 14,4 C 6,4 km/h (2 Bft) 100,00 %
22.08.2016 23:36 14,4 C 86 % 1027,6 hPa 0,0 l/m 4,6 km/h (1 Bft) S 182 0 min 0,000 mm 0,0 UV-I 0 W/m 12,1 C 14,4 C 8,0 km/h (2 Bft) 100,00 %
22.08.2016 23:38 14,4 C 86 % 1027,7 hPa 0,0 l/m 4,7 km/h (1 Bft) S 178 0 min 0,000 mm 0,0 UV-I 0 W/m 12,1 C 14,4 C 6,4 km/h (2 Bft) 98,08 %
22.08.2016 23:40 14,4 C 86 % 1027,7 hPa 0,0 l/m 4,4 km/h (1 Bft) S 176 0 min 0,000 mm 0,0 UV-I 0 W/m 12,1 C 14,4 C 6,4 km/h (2 Bft) 100,00 %
22.08.2016 23:42 14,3 C 86 % 1027,7 hPa 0,0 l/m 5,4 km/h (1 Bft) S-SW 197 0 min 0,000 mm 0,0 UV-I 0 W/m 12,0 C 14,3 C 8,0 km/h (2 Bft) 100,00 %
22.08.2016 23:44 14,3 C 86 % 1027,6 hPa 0,0 l/m 5,8 km/h (2 Bft) S 190 0 min 0,000 mm 0,0 UV-I 0 W/m 12,0 C 14,3 C 8,0 km/h (2 Bft) 100,00 %
22.08.2016 23:46 14,3 C 86 % 1027,6 hPa 0,0 l/m 6,6 km/h (2 Bft) S-SO 167 0 min 0,000 mm 0,0 UV-I 0 W/m 12,0 C 14,2 C 8,0 km/h (2 Bft) 100,00 %
22.08.2016 23:48 14,2 C 86 % 1027,6 hPa 0,0 l/m 6,9 km/h (2 Bft) S-SO 164 0 min 0,000 mm 0,0 UV-I 0 W/m 11,9 C 13,9 C 9,7 km/h (2 Bft) 100,00 %
22.08.2016 23:50 14,2 C 86 % 1027,6 hPa 0,0 l/m 6,3 km/h (2 Bft) S 187 0 min 0,000 mm 0,0 UV-I 0 W/m 11,9 C 14,2 C 8,0 km/h (2 Bft) 100,00 %
22.08.2016 23:52 14,2 C 86 % 1027,6 hPa 0,0 l/m 6,8 km/h (2 Bft) S 170 0 min 0,000 mm 0,0 UV-I 0 W/m 11,9 C 14,0 C 9,7 km/h (2 Bft) 100,00 %
22.08.2016 23:54 14,2 C 86 % 1027,6 hPa 0,0 l/m 8,2 km/h (2 Bft) S 184 0 min 0,000 mm 0,0 UV-I 0 W/m 11,9 C 13,2 C 11,3 km/h (2 Bft) 100,00 %
22.08.2016 23:56 14,1 C 86 % 1027,6 hPa 0,0 l/m 6,9 km/h (2 Bft) S 182 0 min 0,000 mm 0,0 UV-I 0 W/m 11,8 C 13,8 C 8,0 km/h (2 Bft) 100,00 %
22.08.2016 23:58 14,1 C 86 % 1027,6 hPa 0,0 l/m 6,3 km/h (2 Bft) S 182 0 min 0,000 mm 0,0 UV-I 0 W/m 11,8 C 14,1 C 8,0 km/h (2 Bft) 100,00 %
_ Min-Zeit 05:56 16:50 00:00 - 01:00 - - - - - - 05:56 05:00 00:56 16:58
Minimum _ 12,5 C 63 % 1022,0 hPa - 1,1 km/h (1 Bft) - - - - - - 10,7 C 9,4 C 3,2 km/h (1 Bft) 92,68 %
_ Max-Zeit 17:00 05:22 21:30 00:00 14:56 - - 09:08 13:00 13:08 13:16 13:20 16:58 15:02 00:00
Maximum _ 20,6 C 90 % 1027,8 hPa 0,0 l/m 22,8 km/h
S-SW (4 Bft)
- - 2 min 0,432 mm 5,8 UV-I 1035 W/m 14,8 C 20,5 C 32,2 km/h
W-SW (5 Bft)
100,00 %
Durchschnitt _ 15,9 C 79 % 1025,6 hPa #0,0 l/m 8,1 km/h (2 Bft) W-SW - #3:48 h #2,845 mm 2,3 UV-I 291 W/m 12,3 C 14,9 C 13,4 km/h (3 Bft) 98,79 %